[[{"header":{"parameterUnit":"m.s-1","parameterCategory":1,"la1":31.0,"la2":29.5877,"lo1":-88.7671,"lo2":-86.6584,"dx":0.0162,"dy":0.0185,"nx":115,"ny":88,"refTime":"2022-11-14T06:00:00:Z","depth":0,"parameterNumber":2,"parameterNumberName":"U-component_of_WINDS"},"data":[0.0,0.0,0.0,0.0,0.0,0.0,0.0,0.0,0.0,0.0,0.0,0.0,0.0,0.0,0.0,0.0,0.0,0.0,0.0,0.0,0.0,0.0,0.0,0.0,0.0,0.0,0.0,0.0,0.0,0.0,0.0,0.0,0.0,0.0,0.0,0.0,0.0,0.0,0.0,0.0,0.0,0.0,0.0,0.0,0.0,0.0,0.0,0.0,0.0,0.0,0.0,0.0,0.0,0.0,0.0,0.0,0.0,0.0,0.0,0.0,0.0,0.0,0.0,0.0,0.0,0.0,0.0,0.0,0.0,0.0,0.0,0.0,0.0,0.0,0.0,0.0,0.0,0.0,0.0,0.0,0.0,0.0,0.0,0.0,0.0,0.0,0.0,0.0,0.0,0.0,0.0,0.0,0.0,0.0,0.0,0.0,0.0,0.0,0.0,0.0,0.0,0.0,0.0,0.0,0.0,0.0,0.0,0.0,0.0,0.0,0.0,0.0,0.0,0.0,0.0,0.0,0.0,0.0,0.0,0.0,0.0,0.0,0.0,0.0,0.0,0.0,0.0,0.0,0.0,0.0,0.0,0.0,0.0,0.0,0.0,0.0,0.0,0.0,0.0,0.0,0.0,0.0,0.0,0.0,0.0,0.0,0.0,0.0,0.0,0.0,0.0,0.0,0.0,0.0,0.0,0.0,0.0,0.0,0.0,0.0,0.0,0.0,0.0,0.0,0.0,0.0,0.0,0.0,0.0,0.0,0.0,0.0,0.0,0.0,0.0,0.0,0.0,0.0,0.0,0.0,0.0,0.0,0.0,0.0,0.0,0.0,0.0,0.0,0.0,0.0,0.0,0.0,0.0,0.0,0.0,0.0,0.0,0.0,0.0,0.0,0.0,0.0,0.0,0.0,0.0,0.0,0.0,0.0,0.0,0.0,0.0,0.0,0.0,0.0,0.0,0.0,0.0,0.0,0.0,0.0,0.0,0.0,0.0,0.0,0.0,0.0,0.0,0.0,0.0,0.0,0.0,0.0,0.0,0.0,0.0,0.0,0.0,0.0,0.0,0.0,0.0,0.0,0.0,0.0,0.0,0.0,0.0,0.0,0.0,0.0,0.0,0.0,0.0,0.0,0.0,0.0,0.0,0.0,0.0,0.0,0.0,0.0,0.0,0.0,0.0,0.0,0.0,0.0,0.0,0.0,0.0,0.0,0.0,0.0,0.0,0.0,0.0,0.0,0.0,0.0,0.0,0.0,0.0,0.0,0.0,0.0,0.0,0.0,0.0,0.0,0.0,0.0,0.0,0.0,0.0,0.0,0.0,0.0,0.0,0.0,0.0,0.0,0.0,0.0,0.0,0.0,0.0,0.0,0.0,0.0,0.0,0.0,0.0,0.0,0.0,0.0,0.0,0.0,0.0,0.0,0.0,0.0,0.0,0.0,0.0,0.0,0.0,0.0,0.0,0.0,0.0,0.0,0.0,0.0,0.0,0.0,0.0,0.0,0.0,0.0,0.0,0.0,0.0,0.0,0.0,0.0,0.0,0.0,0.0,0.0,0.0,0.0,0.0,0.0,0.0,0.0,0.0,0.0,0.0,0.0,0.0,0.0,0.0,0.0,0.0,0.0,0.0,0.0,0.0,0.0,0.0,0.0,0.0,0.0,0.0,0.0,0.0,0.0,0.0,0.0,0.0,0.0,0.0,0.0,0.0,0.0,0.0,0.0,0.0,0.0,0.0,0.0,0.0,0.0,0.0,0.0,0.0,0.0,0.0,0.0,0.0,0.0,0.0,0.0,0.0,0.0,0.0,0.0,0.0,0.0,0.0,0.0,0.0,0.0,0.0,0.0,0.0,0.0,0.0,0.0,0.0,0.0,0.0,0.0,0.0,0.0,0.0,0.0,0.0,0.0,0.0,0.0,0.0,0.0,0.0,0.0,0.0,0.0,0.0,0.0,0.0,0.0,0.0,0.0,0.0,0.0,0.0,0.0,0.0,0.0,0.0,0.0,0.0,0.0,0.0,0.0,0.0,0.0,0.0,0.0,0.0,0.0,0.0,0.0,0.0,0.0,0.0,0.0,0.0,0.0,0.0,0.0,0.0,0.0,0.0,0.0,0.0,0.0,0.0,0.0,0.0,0.0,0.0,0.0,0.0,0.0,0.0,0.0,0.0,0.0,0.0,0.0,0.0,0.0,0.0,0.0,0.0,0.0,0.0,0.0,0.0,0.0,0.0,0.0,0.0,0.0,0.0,0.0,0.0,0.0,0.0,0.0,0.0,0.0,0.0,0.0,0.0,0.0,0.0,0.0,0.0,0.0,0.0,0.0,0.0,0.0,0.0,0.0,0.0,0.0,0.0,0.0,0.0,0.0,0.0,0.0,0.0,0.0,0.0,0.0,0.0,0.0,0.0,0.0,0.0,0.0,0.0,0.0,0.0,0.0,0.0,0.0,0.0,0.0,0.0,0.0,0.0,0.0,0.0,0.0,0.0,0.0,0.0,0.0,0.0,0.0,0.0,0.0,0.0,0.0,0.0,0.0,0.0,0.0,0.0,0.0,0.0,0.0,0.0,0.0,0.0,0.0,0.0,0.0,0.0,0.0,0.0,0.0,0.0,0.0,0.0,0.0,0.0,0.0,0.0,0.0,0.0,0.0,0.0,0.0,0.0,0.0,0.0,0.0,0.0,0.0,0.0,0.0,0.0,0.0,0.0,0.0,0.0,0.0,0.0,0.0,0.0,0.0,0.0,0.0,0.0,0.0,0.0,0.0,0.0,0.0,0.0,0.0,0.0,0.0,0.0,0.0,0.0,0.0,0.0,0.0,0.0,0.0,0.0,0.0,0.0,0.0,0.0,0.0,0.0,0.0,0.0,0.0,0.0,0.0,0.0,0.0,0.0,0.0,0.0,0.0,0.0,0.0,0.0,0.0,0.0,0.0,0.0,0.0,0.0,0.0,0.0,0.0,0.0,0.0,0.0,0.0,0.0,0.0,0.0,0.0,0.0,0.0,0.0,0.0,0.0,0.0,0.0,0.0,0.0,0.0,0.0,0.0,0.0,0.0,0.0,0.0,0.0,0.0,0.0,0.0,0.0,0.0,0.0,0.0,0.0,0.0,0.0,0.0,0.0,0.0,0.0,0.0,0.0,0.0,0.0,0.0,0.0,0.0,0.0,0.0,0.0,0.0,0.0,0.0,0.0,0.0,0.0,0.0,0.0,0.0,0.0,0.0,0.0,0.0,0.0,0.0,0.0,0.0,0.0,0.0,0.0,0.0,0.0,0.0,0.0,0.0,0.0,0.0,0.0,0.0,0.0,0.0,0.0,0.0,0.0,0.0,0.0,0.0,0.0,0.0,0.0,0.0,0.0,0.0,0.0,0.0,0.0,0.0,0.0,0.0,0.0,0.0,0.0,0.0,0.0,0.0,0.0,0.0,0.0,0.0,0.0,0.0,0.0,0.0,0.0,0.0,0.0,0.0,0.0,0.0,0.0,0.0,0.0,0.0,0.0,0.0,0.0,0.0,0.0,0.0,0.0,0.0,0.0,0.0,0.0,0.0,0.0,0.0,0.0,0.0,0.0,0.0,0.0,0.0,0.0,0.0,0.0,0.0,0.0,0.0,0.0,0.0,0.0,0.0,0.0,0.0,0.0,0.0,0.0,0.0,0.0,0.0,0.0,0.0,0.0,0.0,0.0,0.0,0.0,0.0,0.0,0.0,0.0,0.0,0.0,0.0,0.0,0.0,0.0,0.0,0.0,0.0,0.0,0.0,0.0,0.0,0.0,0.0,0.0,0.0,0.0,0.0,0.0,0.0,0.0,0.0,0.0,0.0,0.0,0.0,0.0,0.0,0.0,0.0,0.0,0.0,0.0,0.0,0.0,0.0,0.0,0.0,0.0,0.0,0.0,0.0,0.0,0.0,0.0,0.0,0.0,0.0,0.0,0.0,0.0,0.0,0.0,0.0,0.0,0.0,0.0,0.0,0.0,0.0,0.0,0.0,0.0,0.0,0.0,0.0,0.0,0.0,0.0,0.0,0.0,0.0,0.0,0.0,0.0,0.0,0.0,0.0,0.0,0.0,0.0,0.0,0.0,0.0,0.0,0.0,0.0,0.0,0.0,0.0,0.0,0.0,0.0,0.0,0.0,0.0,0.0,0.0,0.0,0.0,0.0,0.0,0.0,0.0,0.0,0.0,0.0,0.0,0.0,0.0,0.0,0.0,0.0,0.0,0.0,0.0,0.0,0.0,0.0,0.0,0.0,0.0,-1.5804,0.0,0.0,0.0,-1.5609,0.0,0.0,0.0,0.0,0.0,0.0,0.0,0.0,0.0,0.0,0.0,0.0,0.0,0.0,0.0,0.0,0.0,0.0,0.0,0.0,0.0,0.0,0.0,0.0,0.0,0.0,0.0,0.0,0.0,0.0,0.0,0.0,0.0,0.0,0.0,0.0,0.0,0.0,0.0,0.0,0.0,0.0,0.0,0.0,0.0,0.0,0.0,0.0,0.0,0.0,0.0,0.0,0.0,0.0,0.0,0.0,0.0,0.0,0.0,0.0,0.0,0.0,0.0,0.0,0.0,0.0,0.0,0.0,0.0,0.0,0.0,0.0,0.0,0.0,0.0,0.0,0.0,0.0,0.0,0.0,0.0,0.0,0.0,0.0,0.0,0.0,0.0,0.0,0.0,0.0,0.0,0.0,0.0,0.0,0.0,0.0,0.0,0.0,0.0,0.0,0.0,0.0,0.0,0.0,0.0,0.0,0.0,0.0,0.0,0.0,-1.5812,-1.5845,-1.5544,-1.54,-1.5361,0.0,0.0,0.0,0.0,0.0,0.0,0.0,0.0,0.0,0.0,0.0,0.0,0.0,0.0,0.0,0.0,0.0,0.0,0.0,0.0,0.0,0.0,0.0,0.0,0.0,0.0,0.0,0.0,0.0,0.0,0.0,0.0,0.0,0.0,0.0,0.0,0.0,0.0,0.0,0.0,0.0,0.0,0.0,0.0,0.0,0.0,0.0,0.0,0.0,0.0,0.0,0.0,0.0,0.0,0.0,0.0,0.0,0.0,0.0,0.0,0.0,0.0,0.0,0.0,0.0,0.0,0.0,0.0,0.0,0.0,0.0,0.0,0.0,0.0,0.0,0.0,0.0,0.0,0.0,0.0,0.0,0.0,0.0,0.0,0.0,0.0,0.0,0.0,0.0,0.0,0.0,0.0,0.0,0.0,0.0,0.0,0.0,0.0,0.0,0.0,0.0,0.0,0.0,0.0,0.0,0.0,0.0,0.0,0.0,0.0,0.0,0.0,-1.5764,-1.5424,-1.4944,0.0,0.0,0.0,0.0,0.0,0.0,0.0,0.0,0.0,0.0,0.0,0.0,0.0,0.0,0.0,0.0,0.0,0.0,0.0,0.0,0.0,0.0,0.0,0.0,0.0,0.0,0.0,0.0,0.0,0.0,0.0,0.0,0.0,0.0,0.0,0.0,0.0,0.0,0.0,0.0,0.0,0.0,0.0,0.0,0.0,0.0,0.0,0.0,0.0,0.0,0.0,0.0,0.0,0.0,0.0,0.0,0.0,0.0,0.0,0.0,0.0,0.0,0.0,0.0,0.0,0.0,0.0,0.0,0.0,0.0,0.0,0.0,0.0,0.0,0.0,0.0,0.0,0.0,0.0,0.0,0.0,0.0,0.0,0.0,0.0,0.0,0.0,0.0,0.0,0.0,0.0,0.0,0.0,0.0,0.0,0.0,0.0,0.0,0.0,0.0,0.0,0.0,0.0,0.0,0.0,0.0,0.0,0.0,0.0,0.0,-1.6033,-1.5818,-1.5806,0.0,-1.4441,0.0,0.0,0.0,0.0,0.0,0.0,0.0,0.0,0.0,0.0,0.0,0.0,0.0,0.0,0.0,0.0,0.0,0.0,0.0,0.0,0.0,0.0,0.0,0.0,0.0,0.0,0.0,0.0,0.0,0.0,0.0,0.0,0.0,0.0,0.0,0.0,0.0,0.0,0.0,0.0,0.0,0.0,0.0,0.0,0.0,0.0,0.0,0.0,0.0,0.0,0.0,0.0,0.0,0.0,0.0,0.0,0.0,0.0,0.0,0.0,0.0,0.0,0.0,0.0,0.0,0.0,0.0,0.0,0.0,0.0,0.0,0.0,0.0,0.0,0.0,0.0,0.0,0.0,0.0,0.0,0.0,0.0,0.0,0.0,0.0,0.0,0.0,0.0,0.0,0.0,0.0,0.0,0.0,0.0,0.0,0.0,0.0,0.0,0.0,0.0,0.0,0.0,0.0,0.0,0.0,0.0,0.0,0.0,0.0,0.0,-1.619,-1.6458,-1.5985,-1.53,0.0,0.0,0.0,0.0,0.0,0.0,0.0,0.0,0.0,0.0,0.0,0.0,0.0,0.0,0.0,0.0,0.0,0.0,0.0,0.0,0.0,0.0,0.0,0.0,0.0,0.0,0.0,0.0,0.0,0.0,0.0,0.0,0.0,0.0,0.0,0.0,0.0,0.0,0.0,0.0,0.0,0.0,0.0,0.0,0.0,0.0,0.0,0.0,0.0,0.0,0.0,0.0,0.0,0.0,0.0,0.0,0.0,0.0,0.0,0.0,0.0,0.0,0.0,0.0,0.0,0.0,0.0,0.0,0.0,0.0,0.0,0.0,0.0,0.0,0.0,0.0,0.0,0.0,0.0,0.0,0.0,0.0,0.0,0.0,0.0,0.0,0.0,0.0,0.0,0.0,0.0,0.0,0.0,0.0,0.0,0.0,0.0,0.0,0.0,0.0,0.0,0.0,0.0,0.0,0.0,0.0,0.0,0.0,0.0,0.0,-1.6431,-1.6516,-1.6769,-1.6159,-1.5362,-1.4367,0.0,0.0,0.0,0.0,0.0,0.0,0.0,0.0,0.0,0.0,0.0,0.0,0.0,0.0,0.0,0.0,0.0,0.0,0.0,0.0,0.0,0.0,0.0,0.0,0.0,0.0,0.0,0.0,0.0,0.0,0.0,0.0,0.0,0.0,0.0,0.0,0.0,0.0,0.0,0.0,0.0,0.0,0.0,0.0,0.0,0.0,0.0,0.0,0.0,0.0,0.0,0.0,0.0,0.0,0.0,0.0,0.0,0.0,0.0,0.0,0.0,0.0,0.0,0.0,0.0,0.0,0.0,0.0,0.0,0.0,0.0,0.0,0.0,0.0,0.0,0.0,0.0,0.0,0.0,0.0,0.0,0.0,0.0,0.0,0.0,0.0,0.0,0.0,0.0,0.0,0.0,0.0,0.0,0.0,0.0,0.0,0.0,0.0,0.0,0.0,0.0,0.0,0.0,0.0,0.0,0.0,0.0,0.0,-1.6456,-1.6935,-1.7038,-1.6631,-1.6283,-1.5479,0.0,0.0,0.0,0.0,0.0,0.0,0.0,0.0,0.0,0.0,0.0,0.0,0.0,0.0,0.0,0.0,0.0,0.0,0.0,0.0,0.0,0.0,0.0,0.0,0.0,0.0,0.0,0.0,0.0,0.0,0.0,0.0,0.0,0.0,0.0,0.0,0.0,0.0,0.0,0.0,0.0,0.0,0.0,0.0,0.0,0.0,0.0,0.0,0.0,0.0,0.0,0.0,0.0,0.0,0.0,0.0,0.0,0.0,0.0,0.0,0.0,0.0,0.0,0.0,0.0,0.0,0.0,0.0,0.0,0.0,0.0,0.0,0.0,0.0,0.0,0.0,0.0,0.0,0.0,0.0,0.0,0.0,0.0,0.0,0.0,0.0,0.0,0.0,0.0,0.0,0.0,0.0,0.0,0.0,0.0,0.0,0.0,0.0,0.0,0.0,0.0,0.0,0.0,0.0,0.0,0.0,0.0,0.0,0.0,-1.7306,-1.7526,-1.7433,-1.6913,-1.6611,-1.5687,0.0,0.0,0.0,0.0,0.0,0.0,0.0,0.0,0.0,0.0,0.0,0.0,0.0,0.0,0.0,0.0,0.0,0.0,0.0,0.0,0.0,0.0,0.0,0.0,0.0,0.0,0.0,0.0,0.0,0.0,0.0,0.0,0.0,0.0,0.0,0.0,0.0,0.0,0.0,0.0,0.0,0.0,0.0,0.0,0.0,0.0,0.0,0.0,0.0,0.0,0.0,0.0,0.0,0.0,0.0,0.0,0.0,0.0,0.0,0.0,0.0,0.0,0.0,0.0,0.0,0.0,0.0,0.0,0.0,0.0,0.0,0.0,0.0,0.0,0.0,0.0,0.0,0.0,0.0,0.0,0.0,0.0,0.0,0.0,0.0,0.0,0.0,0.0,0.0,0.0,0.0,0.0,0.0,0.0,0.0,0.0,0.0,0.0,0.0,0.0,0.0,0.0,0.0,0.0,0.0,0.0,0.0,0.0,0.0,-1.8363,-1.8398,-1.8107,-1.7541,-1.7083,-1.6048,0.0,0.0,0.0,0.0,0.0,0.0,0.0,0.0,0.0,0.0,0.0,0.0,0.0,0.0,0.0,0.0,0.0,0.0,0.0,0.0,0.0,0.0,0.0,0.0,0.0,0.0,0.0,0.0,0.0,0.0,0.0,0.0,0.0,0.0,0.0,0.0,0.0,0.0,0.0,0.0,0.0,0.0,0.0,0.0,0.0,0.0,0.0,0.0,0.0,0.0,0.0,0.0,0.0,0.0,0.0,0.0,0.0,0.0,0.0,0.0,0.0,0.0,0.0,0.0,0.0,0.0,0.0,0.0,0.0,0.0,0.0,0.0,0.0,0.0,0.0,0.0,0.0,0.0,0.0,0.0,0.0,0.0,0.0,0.0,0.0,0.0,0.0,0.0,0.0,0.0,0.0,0.0,0.0,0.0,0.0,0.0,0.0,0.0,0.0,0.0,0.0,0.0,0.0,0.0,0.0,0.0,0.0,0.0,-1.8464,-1.9526,-1.9479,-1.9136,-1.8434,-1.7725,-1.6666,0.0,0.0,0.0,0.0,0.0,0.0,0.0,0.0,0.0,0.0,0.0,0.0,0.0,0.0,0.0,0.0,0.0,0.0,0.0,0.0,0.0,0.0,0.0,0.0,0.0,0.0,0.0,0.0,0.0,0.0,0.0,0.0,0.0,0.0,0.0,0.0,0.0,0.0,0.0,0.0,0.0,0.0,0.0,0.0,0.0,0.0,0.0,0.0,0.0,0.0,0.0,0.0,0.0,0.0,0.0,0.0,0.0,0.0,0.0,0.0,0.0,0.0,0.0,0.0,0.0,0.0,0.0,0.0,0.0,0.0,0.0,0.0,0.0,0.0,0.0,0.0,0.0,0.0,0.0,0.0,0.0,0.0,0.0,0.0,0.0,0.0,0.0,0.0,0.0,0.0,0.0,0.0,0.0,0.0,0.0,0.0,0.0,0.0,0.0,0.0,0.0,0.0,0.0,0.0,0.0,0.0,0.0,0.0,0.0,-2.0712,-2.0868,-2.0505,-1.9671,-1.8845,-1.754,0.0,0.0,0.0,0.0,0.0,0.0,0.0,0.0,0.0,0.0,0.0,0.0,0.0,0.0,0.0,0.0,0.0,0.0,0.0,0.0,0.0,0.0,0.0,0.0,0.0,0.0,0.0,0.0,0.0,0.0,0.0,0.0,0.0,0.0,0.0,0.0,0.0,0.0,0.0,0.0,0.0,0.0,0.0,0.0,0.0,0.0,0.0,0.0,0.0,0.0,0.0,0.0,0.0,0.0,0.0,0.0,0.0,0.0,0.0,0.0,0.0,0.0,0.0,0.0,0.0,0.0,0.0,0.0,0.0,0.0,0.0,0.0,0.0,0.0,0.0,0.0,0.0,0.0,0.0,0.0,0.0,0.0,0.0,0.0,0.0,0.0,0.0,0.0,0.0,0.0,0.0,0.0,0.0,0.0,0.0,0.0,0.0,0.0,0.0,0.0,0.0,0.0,0.0,0.0,0.0,0.0,0.0,0.0,0.0,-2.318,-2.294,-2.237,-2.1469,-2.0377,-1.8993,-1.7245,0.0,0.0,0.0,0.0,0.0,0.0,0.0,0.0,0.0,0.0,0.0,0.0,0.0,0.0,0.0,0.0,0.0,0.0,0.0,0.0,0.0,0.0,0.0,0.0,0.0,0.0,0.0,0.0,0.0,0.0,0.0,0.0,0.0,0.0,0.0,0.0,0.0,0.0,0.0,0.0,0.0,0.0,0.0,0.0,0.0,0.0,0.0,0.0,0.0,0.0,0.0,0.0,0.0,0.0,0.0,0.0,0.0,0.0,0.0,0.0,0.0,0.0,0.0,0.0,0.0,0.0,0.0,0.0,0.0,0.0,0.0,0.0,0.0,0.0,0.0,0.0,0.0,0.0,0.0,0.0,0.0,0.0,0.0,0.0,0.0,0.0,0.0,0.0,0.0,0.0,0.0,0.0,0.0,0.0,0.0,0.0,0.0,0.0,0.0,0.0,0.0,0.0,0.0,0.0,0.0,0.0,0.0,0.0,-2.6606,-2.557,-2.4576,-2.3614,-2.219,-2.0769,0.0,0.0,0.0,0.0,0.0,0.0,0.0,0.0,0.0,0.0,0.0,0.0,0.0,0.0,0.0,0.0,0.0,0.0,0.0,0.0,0.0,0.0,0.0,0.0,0.0,0.0,0.0,0.0,0.0,0.0,0.0,0.0,0.0,0.0,0.0,0.0,0.0,0.0,0.0,0.0,0.0,0.0,0.0,0.0,0.0,0.0,0.0,0.0,0.0,0.0,0.0,0.0,0.0,0.0,0.0,0.0,0.0,0.0,0.0,0.0,0.0,0.0,0.0,0.0,0.0,0.0,0.0,0.0,0.0,0.0,0.0,0.0,0.0,0.0,0.0,0.0,0.0,0.0,0.0,0.0,0.0,0.0,0.0,0.0,0.0,0.0,0.0,0.0,0.0,0.0,0.0,0.0,0.0,0.0,0.0,0.0,0.0,0.0,0.0,0.0,0.0,0.0,0.0,0.0,0.0,0.0,0.0,0.0,0.0,-2.8269,-2.8271,-2.7096,-2.482,-2.3617,-2.1968,0.0,0.0,0.0,0.0,0.0,0.0,0.0,0.0,0.0,0.0,0.0,0.0,0.0,0.0,0.0,0.0,0.0,0.0,0.0,0.0,0.0,0.0,0.0,0.0,0.0,0.0,0.0,0.0,0.0,0.0,0.0,0.0,0.0,0.0,0.0,0.0,0.0,0.0,0.0,0.0,0.0,0.0,0.0,0.0,0.0,0.0,0.0,0.0,0.0,0.0,0.0,0.0,0.0,0.0,0.0,0.0,0.0,0.0,0.0,0.0,0.0,0.0,0.0,0.0,0.0,0.0,0.0,0.0,0.0,0.0,0.0,0.0,0.0,0.0,0.0,0.0,0.0,0.0,0.0,0.0,0.0,0.0,0.0,0.0,0.0,0.0,0.0,0.0,0.0,0.0,0.0,0.0,0.0,0.0,0.0,0.0,0.0,0.0,0.0,0.0,0.0,0.0,0.0,0.0,0.0,0.0,0.0,0.0,-2.8343,-3.0073,-3.0213,-2.9178,-2.6927,-2.5404,-2.356,0.0,0.0,0.0,0.0,0.0,0.0,0.0,0.0,0.0,0.0,0.0,0.0,0.0,0.0,0.0,0.0,0.0,0.0,0.0,0.0,0.0,0.0,0.0,0.0,0.0,0.0,0.0,0.0,0.0,0.0,0.0,0.0,0.0,0.0,0.0,0.0,0.0,0.0,0.0,0.0,0.0,0.0,0.0,0.0,0.0,0.0,0.0,0.0,0.0,0.0,0.0,0.0,0.0,0.0,0.0,0.0,0.0,0.0,0.0,0.0,0.0,0.0,0.0,0.0,0.0,0.0,0.0,0.0,0.0,0.0,0.0,0.0,0.0,0.0,0.0,0.0,0.0,0.0,0.0,0.0,0.0,0.0,0.0,0.0,0.0,0.0,0.0,0.0,0.0,0.0,0.0,0.0,0.0,0.0,0.0,0.0,0.0,0.0,0.0,0.0,0.0,0.0,0.0,0.0,0.0,0.0,0.0,0.0,-2.9783,-3.1665,-3.1622,-3.0946,-2.9606,-2.738,-2.5245,0.0,0.0,0.0,0.0,0.0,0.0,0.0,0.0,0.0,0.0,0.0,0.0,0.0,0.0,0.0,0.0,0.0,0.0,0.0,0.0,0.0,0.0,0.0,0.0,0.0,0.0,0.0,0.0,0.0,0.0,0.0,0.0,0.0,0.0,0.0,0.0,0.0,0.0,0.0,0.0,0.0,0.0,0.0,0.0,0.0,0.0,0.0,0.0,0.0,0.0,0.0,0.0,0.0,0.0,0.0,0.0,0.0,0.0,0.0,0.0,0.0,0.0,0.0,0.0,0.0,0.0,0.0,0.0,0.0,0.0,0.0,0.0,0.0,0.0,0.0,0.0,0.0,0.0,0.0,0.0,0.0,0.0,0.0,0.0,0.0,0.0,0.0,0.0,0.0,0.0,0.0,0.0,0.0,0.0,0.0,0.0,0.0,0.0,0.0,0.0,0.0,0.0,0.0,0.0,0.0,0.0,0.0,0.0,-3.0732,-3.2647,-3.2287,-3.2032,-3.1993,-2.9408,-2.6506,0.0,0.0,0.0,0.0,0.0,0.0,0.0,0.0,0.0,0.0,0.0,0.0,0.0,0.0,0.0,0.0,0.0,0.0,0.0,0.0,0.0,0.0,0.0,0.0,0.0,0.0,0.0,0.0,0.0,0.0,0.0,0.0,0.0,0.0,0.0,0.0,0.0,0.0,0.0,0.0,0.0,0.0,0.0,0.0,0.0,0.0,0.0,0.0,-0.9228,0.0,0.0,0.0,0.0,0.0,0.0,0.0,0.0,0.0,0.0,0.0,0.0,0.0,0.0,0.0,0.0,0.0,0.0,0.0,0.0,0.0,0.0,0.0,0.0,0.0,0.0,0.0,0.0,0.0,0.0,0.0,0.0,0.0,0.0,0.0,0.0,0.0,0.0,0.0,0.0,0.0,0.0,0.0,0.0,0.0,0.0,0.0,0.0,0.0,0.0,0.0,0.0,0.0,0.0,0.0,0.0,0.0,0.0,0.0,-3.2151,-3.3846,-3.3963,-3.3607,-3.2778,-3.0956,-2.8284,0.0,0.0,0.0,0.0,0.0,0.0,0.0,0.0,0.0,0.0,0.0,0.0,0.0,0.0,0.0,0.0,0.0,0.0,0.0,0.0,0.0,0.0,0.0,0.0,0.0,0.0,0.0,0.0,0.0,0.0,0.0,0.0,0.0,0.0,0.0,0.0,0.0,0.0,0.0,0.0,0.0,0.0,0.0,0.0,0.0,0.0,0.0,0.0,0.0,0.0,0.0,0.0,0.0,0.0,0.0,0.0,0.0,0.0,0.0,0.0,0.0,0.0,0.0,0.0,0.0,0.0,0.0,0.0,0.0,0.0,0.0,0.0,0.0,0.0,0.0,0.0,0.0,0.0,0.0,0.0,0.0,0.0,0.0,0.0,0.0,0.0,0.0,0.0,0.0,0.0,0.0,0.0,0.0,0.0,0.0,0.0,0.0,0.0,0.0,0.0,0.0,0.0,0.0,0.0,0.0,0.0,0.0,-3.1553,-3.3847,-3.5169,-3.5839,-3.5259,-3.344,-3.2457,-3.0181,-2.6409,0.0,0.0,0.0,0.0,0.0,0.0,0.0,0.0,0.0,0.0,0.0,0.0,0.0,0.0,0.0,0.0,0.0,0.0,0.0,0.0,0.0,0.0,0.0,0.0,0.0,0.0,0.0,0.0,0.0,0.0,0.0,0.0,0.0,0.0,0.0,0.0,0.0,0.0,-1.3036,-1.3477,0.0,0.0,0.0,0.0,0.0,0.0,0.0,0.0,-1.2003,0.0,0.0,0.0,0.0,0.0,0.0,0.0,0.0,0.0,0.0,0.0,0.0,0.0,0.0,0.0,0.0,0.0,0.0,0.0,0.0,0.0,0.0,0.0,0.0,0.0,0.0,0.0,0.0,0.0,0.0,0.0,0.0,0.0,0.0,0.0,0.0,0.0,0.0,0.0,0.0,0.0,0.0,0.0,0.0,0.0,0.0,0.0,0.0,0.0,0.0,0.0,0.0,0.0,0.0,0.0,0.0,-2.9738,-3.3119,-3.5396,-3.6597,-3.6736,-3.6507,-3.6025,-3.4089,-3.1498,-2.8288,0.0,0.0,0.0,0.0,0.0,0.0,0.0,0.0,0.0,0.0,0.0,0.0,0.0,0.0,0.0,0.0,0.0,0.0,0.0,0.0,0.0,0.0,0.0,0.0,0.0,0.0,0.0,0.0,0.0,0.0,0.0,0.0,0.0,0.0,0.0,0.0,0.0,0.0,0.0,-1.5835,-1.614,0.0,0.0,0.0,0.0,0.0,0.0,0.0,0.0,-1.3188,0.0,0.0,0.0,0.0,0.0,0.0,0.0,0.0,0.0,0.0,0.0,0.0,0.0,0.0,0.0,0.0,0.0,0.0,0.0,0.0,0.0,0.0,0.0,0.0,0.0,0.0,0.0,0.0,0.0,0.0,0.0,0.0,0.0,0.0,0.0,0.0,0.0,0.0,0.0,0.0,0.0,0.0,0.0,0.0,0.0,0.0,0.0,0.0,0.0,0.0,0.0,0.0,0.0,0.0,0.0,-3.1786,-3.5294,-3.7682,-3.8878,-3.9291,-3.8957,-3.7836,-3.5845,-3.3053,0.0,0.0,0.0,0.0,0.0,0.0,0.0,0.0,0.0,0.0,0.0,0.0,0.0,0.0,0.0,0.0,0.0,0.0,0.0,0.0,0.0,0.0,0.0,0.0,0.0,0.0,0.0,0.0,0.0,0.0,0.0,0.0,0.0,0.0,0.0,0.0,0.0,0.0,0.0,0.0,-1.8042,-1.8287,-1.8346,0.0,0.0,0.0,0.0,0.0,0.0,-1.643,-1.5521,0.0,0.0,0.0,0.0,0.0,0.0,0.0,0.0,0.0,0.0,0.0,0.0,0.0,0.0,0.0,0.0,0.0,0.0,0.0,0.0,0.0,0.0,0.0,0.0,0.0,0.0,0.0,0.0,0.0,0.0,0.0,0.0,0.0,0.0,0.0,0.0,0.0,0.0,0.0,0.0,0.0,0.0,0.0,0.0,0.0,0.0,0.0,0.0,0.0,0.0,0.0,0.0,0.0,0.0,0.0,-3.4078,-3.7581,-3.9958,-4.1196,-4.1852,-4.1351,-3.9643,-3.7727,-3.4758,0.0,0.0,0.0,0.0,0.0,0.0,0.0,0.0,0.0,0.0,0.0,0.0,0.0,0.0,0.0,0.0,0.0,0.0,0.0,0.0,0.0,0.0,0.0,0.0,0.0,0.0,0.0,0.0,0.0,0.0,0.0,0.0,0.0,0.0,0.0,0.0,0.0,0.0,0.0,0.0,0.0,-2.0427,-2.0651,-2.0601,0.0,0.0,0.0,0.0,-1.9945,-1.9055,0.0,0.0,0.0,0.0,0.0,0.0,0.0,0.0,0.0,0.0,0.0,0.0,0.0,0.0,0.0,0.0,0.0,0.0,0.0,0.0,0.0,0.0,0.0,0.0,0.0,0.0,0.0,0.0,0.0,0.0,0.0,0.0,0.0,0.0,0.0,0.0,0.0,0.0,0.0,0.0,0.0,0.0,0.0,0.0,0.0,0.0,0.0,0.0,0.0,0.0,0.0,0.0,0.0,0.0,0.0,0.0,-3.6137,-3.9201,-4.1489,-4.2995,-4.3339,-4.302,-4.2019,-3.9896,-3.6799,0.0,0.0,0.0,0.0,0.0,0.0,0.0,0.0,0.0,0.0,0.0,0.0,0.0,0.0,0.0,0.0,0.0,0.0,0.0,0.0,0.0,0.0,0.0,0.0,0.0,0.0,0.0,0.0,0.0,0.0,0.0,0.0,0.0,0.0,0.0,0.0,0.0,0.0,0.0,0.0,0.0,-2.2513,-2.2635,-2.2956,-2.3317,0.0,0.0,-2.2646,-2.2495,-2.1406,0.0,0.0,0.0,0.0,0.0,0.0,0.0,0.0,0.0,0.0,0.0,0.0,0.0,0.0,0.0,0.0,0.0,0.0,0.0,0.0,0.0,0.0,0.0,0.0,0.0,0.0,0.0,0.0,0.0,0.0,0.0,0.0,0.0,0.0,0.0,0.0,0.0,0.0,0.0,0.0,0.0,0.0,0.0,0.0,0.0,0.0,0.0,0.0,0.0,0.0,0.0,0.0,0.0,0.0,0.0,-3.3174,-3.8592,-4.2144,-4.4607,-4.6052,-4.6501,-4.6115,-4.4903,-4.2705,-3.9537,0.0,0.0,0.0,0.0,0.0,0.0,0.0,0.0,0.0,0.0,0.0,0.0,0.0,0.0,0.0,0.0,0.0,0.0,0.0,0.0,0.0,0.0,0.0,0.0,0.0,0.0,0.0,0.0,0.0,0.0,0.0,0.0,0.0,0.0,0.0,0.0,0.0,0.0,0.0,0.0,0.0,0.0,-2.5577,-2.6017,0.0,0.0,0.0,-2.5501,-2.4835,0.0,0.0,0.0,0.0,0.0,0.0,0.0,0.0,0.0,0.0,0.0,0.0,0.0,0.0,0.0,0.0,0.0,0.0,0.0,0.0,0.0,0.0,0.0,0.0,0.0,0.0,0.0,0.0,0.0,0.0,0.0,0.0,0.0,0.0,0.0,0.0,0.0,0.0,0.0,0.0,0.0,0.0,0.0,0.0,0.0,0.0,0.0,0.0,0.0,0.0,0.0,0.0,0.0,0.0,0.0,0.0,0.0,-4.0824,-4.4554,-4.7245,-4.8737,-4.9229,-4.8937,-4.7735,-4.5422,0.0,0.0,0.0,0.0,0.0,0.0,0.0,0.0,0.0,0.0,0.0,0.0,0.0,0.0,0.0,0.0,0.0,0.0,0.0,0.0,0.0,0.0,0.0,0.0,0.0,0.0,0.0,-1.9702,0.0,0.0,0.0,0.0,0.0,0.0,0.0,0.0,0.0,0.0,0.0,0.0,0.0,0.0,-2.7401,-2.8059,-2.8553,-2.879,0.0,0.0,-2.7968,-2.7193,-2.5824,-2.431,0.0,0.0,0.0,0.0,0.0,0.0,0.0,0.0,0.0,0.0,0.0,0.0,0.0,0.0,0.0,0.0,0.0,0.0,0.0,0.0,0.0,0.0,0.0,0.0,0.0,0.0,0.0,0.0,0.0,0.0,0.0,0.0,0.0,0.0,0.0,0.0,0.0,0.0,0.0,0.0,0.0,0.0,0.0,0.0,0.0,0.0,0.0,0.0,0.0,0.0,0.0,0.0,0.0,0.0,-3.6566,-4.2398,-4.5764,-4.8362,-5.0278,-5.0655,-5.0625,-5.0194,-4.7684,-4.4611,0.0,0.0,0.0,0.0,0.0,0.0,0.0,0.0,0.0,0.0,0.0,0.0,0.0,0.0,0.0,0.0,0.0,0.0,0.0,0.0,0.0,0.0,0.0,0.0,0.0,0.0,0.0,0.0,0.0,0.0,0.0,0.0,0.0,0.0,0.0,0.0,0.0,0.0,0.0,0.0,0.0,-2.8874,-2.9475,-2.9986,-3.0446,0.0,-2.9938,-2.9385,-2.9599,-2.788,-2.6056,-2.4715,0.0,0.0,0.0,0.0,0.0,0.0,0.0,0.0,0.0,0.0,0.0,0.0,0.0,0.0,0.0,0.0,0.0,0.0,0.0,0.0,0.0,0.0,0.0,0.0,0.0,0.0,0.0,0.0,0.0,0.0,0.0,0.0,0.0,0.0,0.0,0.0,0.0,0.0,0.0,0.0,0.0,0.0,0.0,0.0,0.0,0.0,0.0,0.0,0.0,0.0,0.0,0.0,0.0,-3.8403,-4.4547,-4.8317,-5.1095,-5.292,-5.3664,-5.3585,-5.2707,-5.0504,-4.7817,0.0,0.0,0.0,0.0,0.0,0.0,0.0,0.0,0.0,0.0,0.0,0.0,0.0,0.0,0.0,0.0,0.0,0.0,0.0,0.0,0.0,0.0,0.0,0.0,0.0,0.0,0.0,0.0,-2.6491,-2.6194,-2.5124,0.0,0.0,0.0,0.0,0.0,0.0,0.0,0.0,0.0,0.0,-3.1597,-3.2085,-3.2343,0.0,0.0,-3.1889,-3.1146,-3.0332,-2.9377,-2.812,-2.6476,-2.6184,0.0,0.0,0.0,0.0,0.0,0.0,0.0,0.0,0.0,0.0,0.0,0.0,0.0,0.0,0.0,0.0,0.0,0.0,0.0,0.0,0.0,0.0,0.0,0.0,0.0,0.0,0.0,0.0,0.0,0.0,0.0,0.0,0.0,0.0,0.0,0.0,0.0,0.0,0.0,0.0,0.0,0.0,0.0,0.0,0.0,0.0,0.0,0.0,0.0,0.0,0.0,0.0,-4.027,-4.6491,-5.0457,-5.3309,-5.4998,-5.5955,-5.6083,-5.5104,-5.312,-5.0815,0.0,0.0,0.0,0.0,0.0,0.0,0.0,0.0,0.0,0.0,0.0,0.0,0.0,0.0,0.0,0.0,0.0,0.0,0.0,0.0,0.0,0.0,0.0,0.0,0.0,0.0,0.0,0.0,-2.9173,-2.8516,-2.7259,0.0,0.0,0.0,0.0,0.0,0.0,0.0,0.0,0.0,0.0,-3.3965,-3.4346,-3.4465,-3.4389,-3.3913,-3.3603,-3.2976,-3.182,-3.1052,-3.0151,-2.8936,0.0,0.0,0.0,0.0,0.0,0.0,0.0,0.0,0.0,0.0,0.0,0.0,0.0,0.0,0.0,0.0,0.0,0.0,0.0,0.0,0.0,0.0,0.0,0.0,0.0,0.0,0.0,-2.7313,0.0,0.0,-2.2669,0.0,0.0,0.0,0.0,0.0,0.0,0.0,0.0,0.0,0.0,0.0,0.0,0.0,0.0,0.0,0.0,0.0,0.0,0.0,0.0,0.0,0.0,-4.2245,-4.83,-5.1933,-5.4459,-5.5961,-5.7239,-5.774,-5.7294,-5.5551,-5.3508,-5.1346,0.0,0.0,0.0,0.0,0.0,0.0,0.0,0.0,0.0,0.0,0.0,0.0,0.0,0.0,0.0,0.0,0.0,0.0,0.0,0.0,0.0,0.0,0.0,0.0,0.0,0.0,-3.2531,-3.1734,-3.0731,0.0,0.0,0.0,0.0,0.0,0.0,0.0,0.0,0.0,-3.4461,-3.5189,-3.5759,-3.599,-3.6088,-3.5903,-3.5174,-3.5041,-3.4854,-3.4454,-3.3186,-3.2185,0.0,0.0,0.0,0.0,0.0,0.0,0.0,0.0,0.0,0.0,0.0,0.0,0.0,0.0,0.0,0.0,0.0,0.0,0.0,0.0,0.0,0.0,0.0,0.0,0.0,0.0,0.0,-3.3566,-3.2873,0.0,0.0,0.0,0.0,0.0,0.0,0.0,0.0,0.0,0.0,0.0,-4.6035,-4.5752,0.0,0.0,0.0,0.0,0.0,0.0,0.0,0.0,0.0,0.0,0.0,0.0,-4.5481,-5.0961,-5.4682,-5.7239,-5.876,-6.0014,-6.047,-5.9887,-5.8245,-5.5444,-5.1347,0.0,0.0,0.0,0.0,0.0,0.0,0.0,0.0,0.0,0.0,0.0,0.0,0.0,0.0,0.0,0.0,0.0,0.0,0.0,0.0,0.0,0.0,0.0,0.0,0.0,-3.5299,0.0,0.0,0.0,0.0,0.0,0.0,0.0,0.0,0.0,0.0,0.0,-3.5918,-3.6936,-3.8063,-3.8618,-3.8292,-3.8006,-3.767,0.0,0.0,0.0,0.0,0.0,0.0,0.0,0.0,0.0,0.0,0.0,0.0,0.0,0.0,-3.0252,-2.7326,-2.6517,-2.6249,-2.6254,0.0,0.0,0.0,0.0,0.0,0.0,0.0,0.0,0.0,0.0,0.0,0.0,0.0,0.0,-4.0338,0.0,-3.7729,0.0,0.0,0.0,0.0,0.0,0.0,0.0,0.0,-5.0423,-5.217,-5.3606,-5.331,-5.2329,0.0,-4.9745,-4.6181,0.0,0.0,0.0,0.0,0.0,0.0,0.0,0.0,-4.9088,-5.4034,-5.7281,-5.9671,-6.1152,-6.2253,-6.2538,-6.2039,-6.0484,-5.7503,-5.2969,-5.0266,-4.6793,0.0,0.0,0.0,0.0,0.0,0.0,0.0,0.0,0.0,0.0,0.0,0.0,0.0,0.0,0.0,0.0,0.0,0.0,0.0,0.0,0.0,0.0,0.0,-3.8865,0.0,0.0,0.0,0.0,0.0,0.0,0.0,0.0,0.0,-3.535,-3.7032,-3.874,-3.9647,-4.0564,-4.1036,-4.0629,0.0,0.0,0.0,0.0,0.0,0.0,0.0,-3.8443,-3.795,-3.8015,-3.818,-3.8117,-3.8267,-3.8369,-3.8369,0.0,0.0,-3.2185,-3.104,-3.0809,-3.0843,-3.0743,-3.0535,-3.0419,-2.9778,-2.8992,0.0,0.0,0.0,0.0,0.0,0.0,0.0,0.0,-4.8146,-4.8112,0.0,-4.6005,0.0,0.0,0.0,0.0,0.0,-4.8407,0.0,0.0,-5.7321,-5.8892,-6.025,-6.0105,-5.9422,-5.8349,-5.7978,-5.7285,-5.5901,-4.7068,0.0,0.0,0.0,0.0,0.0,0.0,-5.3218,-5.7528,-5.9916,-6.1733,-6.3208,-6.3916,-6.4119,-6.3722,-6.2159,-5.9806,-5.6497,-5.4509,-5.1298,-4.6561,-4.3599,0.0,0.0,0.0,0.0,0.0,0.0,0.0,0.0,0.0,0.0,0.0,0.0,0.0,0.0,0.0,0.0,0.0,0.0,0.0,0.0,-4.1033,0.0,0.0,0.0,0.0,0.0,0.0,0.0,0.0,0.0,0.0,-3.8811,-4.0135,-4.1615,-4.2423,0.0,0.0,0.0,0.0,-4.2447,-4.2014,-4.1974,-4.1975,-4.2007,-4.1398,-4.1203,-4.1888,0.0,0.0,-4.1685,-4.1833,-4.1813,-4.1833,-4.1813,-4.0866,-3.7667,-3.6371,-3.58,-3.5807,-3.5436,-3.5135,-3.4703,-3.3693,-3.2599,-5.9208,0.0,0.0,0.0,0.0,-5.3467,-5.418,-5.4842,-5.5027,-5.5343,-5.5683,-5.4077,0.0,0.0,0.0,0.0,0.0,0.0,-5.9537,-6.2223,-6.4314,-6.569,-6.6335,-6.632,-6.5917,-6.514,-6.4348,-6.3553,-6.2773,-5.9679,-5.5761,-5.1208,0.0,0.0,0.0,0.0,-5.8423,-6.0823,-6.3469,-6.5174,-6.5858,-6.6962,-6.7195,-6.6408,-6.504,-6.3183,-6.0889,-5.86,-5.5674,-5.212,-4.8755,0.0,0.0,0.0,0.0,0.0,0.0,0.0,0.0,0.0,0.0,0.0,0.0,0.0,0.0,0.0,0.0,0.0,0.0,0.0,-4.5499,-4.5486,-4.5098,0.0,0.0,0.0,0.0,0.0,0.0,0.0,0.0,0.0,-4.5072,-4.4932,-4.4878,0.0,0.0,-4.5715,-4.4603,-4.4592,-4.444,-4.3733,-4.4254,0.0,-4.4629,-4.5022,-4.5133,-4.469,-4.4394,-4.4356,-4.4514,-4.4752,-4.5009,-4.4989,-4.4752,-4.4191,-4.3326,-4.0968,-3.9249,-3.888,-3.8454,-3.8027,-3.7612,-3.6849,-3.5863,-6.7094,-6.3504,-6.1148,-5.9722,-5.9252,-6.0217,-6.0859,-6.125,-6.1808,-6.235,-6.2744,-6.166,-6.0754,-6.0039,-5.9608,0.0,0.0,0.0,-6.6734,-6.9211,-7.0601,-7.158,-7.21,-7.1995,-7.1679,-7.1184,-7.0369,-6.9764,-6.9239,-6.8843,-6.6659,-6.2778,0.0,0.0,-6.0197,-6.1905,-6.3502,-6.4983,-6.7011,-6.8269,-6.8729,-6.9333,-6.9203,-6.8345,-6.7489,-6.6125,-6.4085,-6.229,-5.9801,-5.6441,-5.3462,-5.0244,0.0,0.0,0.0,0.0,0.0,0.0,0.0,0.0,0.0,0.0,0.0,-3.3026,-3.6671,0.0,0.0,0.0,-4.4447,-4.6799,-4.9858,-4.9118,0.0,0.0,0.0,0.0,0.0,0.0,0.0,-4.634,-4.771,-4.8942,-5.0044,-4.9745,-4.8951,-4.779,-4.8342,-4.8452,-4.7276,0.0,-4.7294,-4.6838,-4.7229,-4.7474,-4.73,-4.7805,-4.7983,-4.7391,-4.7503,-4.7547,-4.732,-4.7506,-4.7589,-4.7424,-4.7237,-4.7071,-4.7071,-4.5291,-4.3495,-4.2325,-4.1699,-4.1327,-4.0868,-4.009,-3.9146,-7.3952,-7.3362,-6.8114,-6.5834,-6.5775,-6.6592,-6.7204,-6.7646,-6.8428,-6.903,-6.9449,-6.8772,-6.8715,-6.911,-6.864,0.0,-7.1114,-7.1824,-7.3635,-7.633,-7.6321,-7.6858,-7.7717,-7.7261,-7.6896,-7.6666,-7.6137,-7.5788,-7.5497,-7.5236,-7.5038,-7.4889,-6.9004,-6.6052,-6.6377,-6.7367,-6.8482,-6.958,-7.0428,-7.1143,-7.1769,-7.1167,-7.0556,-6.9937,-6.9722,-6.8623,-6.6527,-6.5725,-6.3608,-6.0074,-5.7824,-5.4998,-5.1339,0.0,0.0,0.0,0.0,0.0,0.0,0.0,0.0,0.0,0.0,0.0,0.0,0.0,0.0,-4.7477,-4.9456,0.0,-5.2489,-5.2106,0.0,0.0,0.0,-4.9613,-4.8704,-4.9212,-4.9861,-5.029,0.0,0.0,-5.3864,-5.4262,-5.3494,-5.0851,-5.0898,-5.1029,-5.0552,-5.0506,-5.0674,-5.0505,-5.0718,-5.0643,-5.0191,-5.0136,-5.0105,-5.0034,-5.042,-5.0379,-4.9975,-4.9911,-4.9762,-4.9378,-4.9248,-4.9227,-4.9248,-4.8976,-4.839,-4.594,-4.5062,-4.4591,-4.3998,-4.3195,-4.2148,-7.742,-7.7308,-7.6547,-7.4242,-7.1215,-7.1981,-7.2613,-7.3086,-7.3875,-7.4684,-7.5392,-7.5264,-7.537,-7.5785,-7.545,-7.6281,-7.7978,-7.8911,-8.014,-8.1555,-8.2123,-8.243,-8.251,-8.204,-8.169,-8.1459,-8.0674,-8.0239,-8.0144,-7.9469,-7.9207,-7.909,-7.7363,-7.497,-7.2022,-7.262,-7.2839,-7.2584,-7.4036,-7.4998,-7.5271,-7.4405,-7.3726,-7.3292,-7.1811,-7.0612,-6.9843,-6.823,-6.6209,-6.3877,-6.2078,-5.9654,-5.6307,-5.364,0.0,0.0,0.0,0.0,0.0,0.0,0.0,0.0,0.0,-4.4012,-4.798,0.0,-5.1665,0.0,-5.4685,-5.5116,-5.5375,-5.4846,0.0,0.0,-5.3637,-5.2865,-5.2865,-5.289,-5.3273,-5.4261,-5.495,-5.5551,-5.6177,-5.689,-5.6926,-5.5968,-5.4234,-5.2717,-5.1922,-5.249,-5.2808,-5.2633,-5.3443,-5.3942,-5.3423,-5.3114,-5.2766,-5.243,-5.2282,-5.1938,-5.1507,-5.142,-5.1333,-5.1247,-5.0878,-5.0684,-5.0597,-5.0356,-4.997,-4.9213,-4.7943,-4.6686,-4.5944,-4.5361,-4.4648,-8.1237,-8.1273,-8.1708,-8.0621,-7.8584,-7.7629,-7.7363,-7.7703,-7.8523,-7.9211,-7.9723,-8.0369,-8.1017,-8.1773,-8.1729,-8.2423,-8.3764,-8.4345,-8.5072,-8.5904,-8.6338,-8.6361,-8.6117,-8.5673,-8.5299,-8.4954,-8.4121,-8.3704,-8.3566,-8.2959,-8.2577,-8.2466,-8.2188,-8.0743,-7.8237,-7.7625,-7.7086,-7.6696,-7.7376,-7.7609,-7.7131,-7.6633,-7.6079,-7.5618,-7.4066,-7.2892,-7.212,-7.0585,-6.8723,-6.654,-6.5255,-6.3325,-6.0443,-5.8399,-5.6042,0.0,0.0,0.0,0.0,0.0,0.0,0.0,0.0,0.0,0.0,0.0,-5.6386,-5.8605,-5.8238,-5.8086,-5.8488,-5.7765,-5.7437,-5.7846,-5.7097,-5.6558,-5.6472,-5.6615,-5.6868,-5.7094,-5.7922,-5.8597,-5.8729,-5.9434,-5.9765,-5.9528,-5.8039,-5.6542,-5.5446,-5.56,-5.5788,-5.5649,-5.6093,-5.6219,-5.5639,-5.515,-5.4722,-5.4487,-5.4319,-5.3953,-5.3233,-5.3058,-5.297,-5.2552,-5.2266,-5.209,-5.198,-5.1825,-5.1584,-5.1291,-5.0572,-4.939,-4.7894,-4.741,-4.6901,-8.5046,-8.5083,-8.5267,-8.5783,-8.62,-8.3484,-8.2162,-8.2009,-8.2881,-8.332,-8.347,-8.4718,-8.5881,-8.6931,-8.7103,-8.7681,-8.8593,-8.8593,-8.9005,-8.9674,-8.964,-8.9496,-8.9271,-8.8887,-8.8418,-8.8013,-8.7301,-8.6904,-8.6683,-8.6154,-8.5787,-8.5577,-8.5307,-8.4924,-8.4353,-8.2581,-8.1331,-8.078,-8.0355,-7.9594,-7.8619,-7.8404,-7.8043,-7.7439,-7.6385,-7.5238,-7.4063,-7.2922,-7.1199,-6.8779,-6.7903,-6.6398,-6.3949,-6.2647,-6.0727,0.0,-5.6677,0.0,0.0,0.0,0.0,0.0,0.0,0.0,0.0,-5.9232,-6.056,-6.2134,-6.117,-6.0784,-6.1441,-6.0726,-6.0189,-6.0428,-6.0389,-6.0225,-5.9844,-6.0261,-6.0373,-5.9731,-6.0992,-6.1703,-6.1349,-6.1787,-6.2112,-6.2086,-6.1717,-6.0921,-5.9683,-5.9122,-5.8805,-5.8901,-5.8612,-5.8225,-5.7499,-5.7029,-5.6668,-5.6541,-5.6426,-5.6172,-5.527,-5.4917,-5.4629,-5.3919,-5.3566,-5.3366,-5.3409,-5.3298,-5.2992,-5.2588,-5.2461,-5.1857,-5.0011,-4.9481,-4.8841,-8.7997,-8.8109,-8.9457,-9.0093,-9.0176,-8.9593,-8.8354,-8.6789,-8.7735,-8.8311,-8.8582,-8.9201,-8.9581,-8.983,-8.9988,-9.0534,-9.1348,-9.1259,-9.198,-9.3397,-9.3094,-9.3187,-9.3564,-9.3011,-9.2665,-9.2354,-9.1541,-9.1111,-9.1068,-9.0375,-8.9958,-8.9763,-8.9495,-8.9117,-8.8621,0.0,0.0,0.0,-8.1933,-8.1655,-8.1533,-8.0746,-8.0164,-7.9724,-7.8313,0.0,-7.6722,-7.4996,-7.3385,-7.2089,-7.0637,0.0,0.0,0.0,0.0,0.0,0.0,0.0,0.0,0.0,0.0,0.0,-6.2662,-6.2837,-6.2554,-6.4514,-6.5683,-6.5234,-6.4955,-6.4533,-6.3848,-6.3328,-6.3124,-6.3319,-6.288,-6.2641,-6.3003,-6.3343,-6.3522,-6.3593,-6.3969,-6.4069,-6.3715,-6.383,-6.4013,-6.4039,-6.4009,-6.3895,-6.3575,-6.1933,-6.0792,-6.0409,-6.0608,-6.0748,-6.0254,-6.0125,-5.9672,-5.925,-5.866,-5.82,-5.76,-5.6842,-5.6376,-5.5999,-5.5159,-5.4365,-5.4365,-5.3744,-5.3298,-5.3102,-5.3348,-5.3159,-5.1736,-5.1371,-5.1007,-9.0701,0.0,-9.1609,-9.2189,0.0,-9.2607,-9.2242,-9.1571,-9.0818,-9.0937,-9.1553,-9.1796,-9.2175,-9.255,-9.3059,-9.3538,-9.3952,-9.4167,-9.4653,-9.5383,-9.5166,-9.5061,-9.5054,-9.4665,-9.4301,-9.3923,-9.326,-9.2894,-9.2771,-9.2223,-9.1833,-9.1568,-9.1345,-9.0935,-9.0316,-8.9738,-8.7966,-8.5114,-8.4682,-8.4422,-8.4162,-8.3158,-8.2419,-8.1894,-8.0334,0.0,0.0,0.0,0.0,0.0,0.0,0.0,0.0,0.0,0.0,-6.6252,-6.5832,-6.5291,-6.4213,-6.4571,-6.523,-6.6192,-6.7457,-6.7669,-6.6343,-6.7631,-6.8184,-6.755,-6.7196,-6.665,-6.5997,-6.5402,-6.5277,-6.5843,-6.5404,-6.5418,-6.6068,-6.6369,-6.6384,-6.6276,-6.6426,-6.6406,-6.598,-6.6109,-6.6148,-6.6175,-6.6025,-6.6029,-6.5843,-6.4203,-6.2633,-6.2502,-6.2788,-6.2914,-6.2457,-6.1946,-6.1648,-6.1105,-6.052,-5.9908,-5.9381,-5.8526,-5.7767,-5.7435,-5.6437,-5.5664,-5.5576,-5.5071,-5.4674,-5.4674,-5.4829,-5.4807,-5.4106,-5.3387,-5.2627,-9.3021,-9.3021,-9.3174,-9.3746,-9.4548,-9.4599,-9.5102,-9.5668,0.0,0.0,0.0,-9.3832,-9.4275,-9.4931,-9.5802,-9.6154,-9.6112,-9.6583,-9.6768,-9.6704,-9.6492,-9.6292,-9.5913,-9.5672,-9.536,-9.4853,-9.4402,-9.4056,-9.3896,-9.3529,-9.3199,-9.2911,-9.274,-9.2263,-9.1499,-9.0559,-8.9542,-8.8535,-8.7624,-8.6873,-8.6287,-8.5348,-8.4564,-8.4109,-8.2494,-8.1236,-8.0383,-7.8895,-7.7636,-7.6744,-7.5712,-7.4587,-7.3195,-7.2756,-7.1711,-6.9975,-6.9793,-6.9489,-6.8789,-6.8729,-6.9093,-6.9793,-7.1012,-7.1041,-6.9488,-6.9757,-6.9808,-6.943,-6.8921,-6.8501,-6.82,-6.764,-6.7641,-6.8457,-6.816,-6.8269,-6.901,-6.9065,-6.8979,-6.8686,-6.8741,-6.8577,-6.8233,-6.8222,-6.8351,-6.8274,-6.8,-6.773,-6.7533,-6.5864,-6.4525,-6.4582,-6.4728,-6.4689,-6.4268,-6.38,-6.3203,-6.3044,-6.2331,-6.1541,-6.094,-6.004,-5.9278,-5.8855,-5.7809,-5.7274,-5.7056,-5.6732,-5.6429,-5.6342,-5.6429,-5.6429,-5.6384,-5.5548,-5.4496,-9.4599,-9.4638,-9.5387,-9.6213,-9.6982,-9.7001,-9.7462,-9.7999,-9.5894,-9.5059,-9.5311,-9.5982,-9.6295,-9.6353,-9.7229,-9.745,-9.7262,-9.7219,-9.7457,-9.7827,-9.7531,-9.7636,-9.7955,-9.762,-9.7309,-9.7133,-9.6658,-9.6358,-9.6203,-9.5933,-9.5615,-9.5249,-9.5203,-9.4704,-9.3828,-9.3049,-9.2348,-9.171,-8.9295,-8.7841,-8.7454,-8.6847,-8.654,-8.6341,-8.5131,-8.4316,-8.39,-8.1501,-7.9982,-7.9492,-7.7151,-7.5745,-7.5527,-7.493,-7.4086,-7.3005,-7.285,-7.2448,-7.1494,-7.1433,-7.1989,-7.3197,-7.4028,-7.3407,-7.1009,-7.1309,-7.1483,-7.11,-7.1006,-7.1053,-7.1171,-7.0872,-7.0903,-7.1546,-7.1151,-7.0963,-7.1592,-7.1428,-7.1278,-7.1353,-7.1149,-7.0813,-7.0419,-7.0118,-6.9933,-6.9942,-6.9861,-6.9516,-6.8807,-6.7317,-6.6262,-6.6227,-6.6335,-6.6168,-6.5883,-6.5984,-6.5735,-6.5112,-6.4518,-6.3777,-6.2978,-6.1989,-6.1164,-6.0672,-5.9745,-5.8988,-5.8601,-5.8088,-5.7831,-5.7487,-5.7659,-5.7831,-5.7831,-5.7824,-5.7297,-9.6026,-9.6488,-9.6926,-9.7599,-9.8426,-9.8488,-9.8731,-9.8985,-9.8044,-9.7462,-9.7283,-9.7643,-9.7733,-9.7746,-9.841,-9.863,-9.8549,-9.859,-9.8767,-9.897,-9.8605,-9.8492,-9.8616,-9.8357,-9.8057,-9.7713,-9.7464,-9.7284,-9.7026,-9.6726,-9.6535,-9.6341,-9.6024,-9.5535,-9.4893,-9.4285,-9.3694,-9.3037,-9.1061,-8.983,-8.9411,-8.8628,-8.8048,-8.7722,-8.6634,-8.5838,-8.5382,-8.3677,-8.2607,-8.2307,-8.0032,-7.8592,-7.8213,-7.7027,-7.5994,-7.5215,-7.4966,-7.4653,-7.4187,-7.4156,-7.4405,-7.5028,-7.5527,-7.534,-7.4067,-7.4096,-7.3967,-7.365,-7.365,-7.3644,-7.3564,-7.3239,-7.3315,-7.3979,-7.3544,-7.3409,-7.3771,-7.3783,-7.3626,-7.3503,-7.2999,-7.2573,-7.2401,-7.1855,-7.1621,-7.1744,-7.1869,-7.1687,-7.1061,-7.0336,-6.9347,-6.8351,-6.8145,-6.7961,-6.7596,-6.744,-6.7281,-6.6601,-6.6197,-6.5728,-6.5085,-6.4122,-6.3225,-6.2795,-6.1771,-6.0924,-6.0601,-6.0183,-5.9847,-5.9679,-5.951,-5.9594,-5.9618,-5.9558,-5.887,-9.7099,-9.7903,-9.7929,-9.8594,-9.9576,-9.9904,-10.0039,-9.9986,-10.0025,-9.9785,-9.9432,-9.9153,-9.8981,-9.896,-9.9556,-9.9763,-9.9717,-9.9886,-9.9904,-9.9769,-9.9433,-9.9141,-9.8966,-9.8742,-9.8423,-9.7986,-9.7955,-9.7894,-9.7724,-9.7506,-9.7507,-9.7506,-9.7007,-9.649,-9.6157,-9.5656,-9.5054,-9.4367,-9.3339,-9.2224,-9.1092,-9.0226,-8.9548,-8.9033,-8.8089,-8.7313,-8.687,-8.5739,-8.5002,-8.4734,-8.2887,-8.1447,-8.0771,-7.9279,-7.8059,-7.7397,-7.6993,-7.6745,-7.6651,-7.6682,-7.6745,-7.6807,-7.7024,-7.7209,-7.7332,-7.7148,-7.665,-7.5964,-7.5776,-7.5744,-7.5647,-7.5488,-7.5543,-7.6095,-7.5893,-7.5719,-7.5875,-7.5863,-7.5594,-7.5218,-7.4603,-7.4189,-7.401,-7.3451,-7.3135,-7.3399,-7.3816,-7.3823,-7.3283,-7.3158,-7.2292,-7.0905,-7.0096,-6.9598,-6.932,-6.8878,-6.8461,-6.8041,-6.7704,-6.7348,-6.6865,-6.595,-6.5173,-6.4786,-6.388,-6.3055,-6.2797,-6.242,-6.2092,-6.1903,-6.1598,-6.1399,-6.1404,-6.1286,-6.0327,-9.7315,-9.8109,-9.8201,-9.9134,-10.0687,-10.1451,-10.1775,-10.1775,-10.1852,-10.1838,-10.156,-10.0666,-10.0105,-10.0,-10.073,-10.0851,-10.0474,-10.0519,-10.0265,-9.9888,-9.9742,-9.9519,-9.9224,-9.9004,-9.878,-9.8589,-9.8502,-9.8747,-9.9103,-9.9069,-9.9266,-9.9612,-9.9123,-9.8623,-9.8343,-9.7933,-9.7377,-9.6716,-9.6581,-9.5036,-9.208,-9.1537,-9.1246,-9.0971,-9.0128,-8.9628,-8.9451,-8.7823,-8.6865,-8.6684,-8.4918,-8.3519,-8.2714,-8.1807,-8.0723,-7.9774,-7.9342,-7.9065,-7.8722,-7.8753,-7.8815,-7.9127,-7.9187,-7.9402,-7.9982,-8.0075,-7.9106,-7.7575,-7.6983,-7.7238,-7.7649,-7.7682,-7.7872,-7.8439,-7.825,-7.8057,-7.7768,-7.7476,-7.7085,-7.6391,-7.599,-7.5587,-7.5248,-7.4654,-7.4462,-7.4808,-7.5216,-7.5289,-7.4935,-7.4618,-7.4268,-7.3298,-7.2035,-7.088,-7.058,-7.0253,-6.9789,-6.9406,-6.9267,-6.8887,-6.8272,-6.7902,-6.7429,-6.6725,-6.6096,-6.5571,-6.4968,-6.4443,-6.436,-6.4273,-6.3869,-6.3275,-6.34,-6.3335,-6.2498,-9.7753,-9.902,-9.9074,-10.0095,-10.1659,-10.2086,-10.2203,-10.2203,-10.2203,-10.219,-10.2113,-10.1669,-10.134,-10.1174,-10.1288,-10.119,-10.1004,-10.0742,-10.0753,-10.0989,-10.0796,-10.082,-10.0984,-10.0848,-10.0639,-10.0356,-10.0331,-10.0355,-10.0456,-10.04,-10.0419,-10.0406,-10.0017,-9.9611,-9.927,-9.8876,-9.839,-9.7851,-9.7716,-9.6787,-9.5118,-9.4283,-9.3726,-9.3288,-9.2201,-9.1592,-9.1417,-8.9765,-8.8787,-8.8608,-8.6898,-8.5733,-8.5434,-8.413,-8.2921,-8.188,-8.0887,-8.0299,-8.0178,-8.0178,-8.0239,-8.036,-8.0541,-8.0814,-8.1112,-8.1408,-8.1141,-8.0334,-7.9671,-7.9501,-7.9697,-7.9822,-7.9889,-8.0114,-7.9873,-7.9565,-7.9255,-7.8848,-7.8407,-7.7799,-7.7377,-7.6888,-7.6446,-7.6244,-7.6116,-7.6266,-7.6605,-7.6857,-7.6375,-7.6103,-7.5801,-7.5116,-7.4084,-7.3016,-7.2169,-7.1635,-7.1204,-7.0771,-7.0608,-7.0366,-7.0124,-6.9642,-6.9348,-6.8866,-6.8545,-6.8198,-6.7826,-6.764,-6.7561,-6.7164,-6.6712,-6.6255,-6.5892,-6.5497,-6.4756,-9.8027,-9.9565,-10.0172,-10.1153,-10.2288,-10.2288,-10.2288,-10.2288,-10.2288,-10.2264,-10.2254,-10.2436,-10.25,-10.2275,-10.1736,-10.1538,-10.1635,-10.1328,-10.1568,-10.2241,-10.1941,-10.2052,-10.2425,-10.2298,-10.2062,-10.1859,-10.1762,-10.1792,-10.1828,-10.1972,-10.1893,-10.1659,-10.1287,-10.0937,-10.0648,-10.0275,-9.9813,-9.9456,-9.9212,-9.8796,-9.807,-9.7314,-9.6388,-9.5272,-9.4112,-9.3424,-9.3214,-9.1646,-9.0632,-9.0372,-8.8905,-8.7924,-8.7532,-8.6226,-8.4995,-8.3746,-8.2531,-8.1786,-8.1819,-8.1623,-8.1493,-8.1493,-8.1759,-8.1876,-8.205,-8.2395,-8.268,-8.2647,-8.2165,-8.1694,-8.1493,-8.1493,-8.1434,-8.1408,-8.1139,-8.0841,-8.0421,-8.0117,-7.9627,-7.9005,-7.8565,-7.812,-7.7497,-7.7558,-7.769,-7.7424,-7.7921,-7.8354,-7.7667,-7.7372,-7.7076,-7.6404,-7.5953,-7.501,-7.3538,-7.2858,-7.2461,-7.2247,-7.214,-7.2142,-7.2142,-7.1703,-7.132,-7.1069,-7.0772,-7.047,-7.0141,-7.0223,-7.0204,-6.9997,-6.9552,-6.8919,-6.8278,-6.764,-6.7269,-9.8053,-9.9835,-10.1475,-10.216,-10.2288,-10.2288,-10.2327,-10.2404,-10.2366,-10.2315,-10.2497,-10.3147,-10.3432,-10.3354,-10.243,-10.224,-10.2686,-10.2578,-10.284,-10.3377,-10.3144,-10.2991,-10.2867,-10.2611,-10.2516,-10.2652,-10.2553,-10.2716,-10.3214,-10.3784,-10.4091,-10.3866,-10.326,-10.2992,-10.2851,-10.2351,-10.2091,-10.1752,-10.152,-10.1197,-10.0657,-10.0488,-9.9077,-9.6669,-9.5687,-9.5078,-9.4393,-9.3531,-9.2577,-9.159,-9.0884,-8.996,-8.8843,-8.8095,-8.697,-8.5544,-8.448,-8.3853,-8.3754,-8.3224,-8.277,-8.2737,-8.2794,-8.2907,-8.3131,-8.3299,-8.3465,-8.372,-8.3631,-8.3354,-8.2873,-8.2704,-8.2567,-8.2338,-8.2338,-8.1992,-8.1467,-8.1171,-8.0694,-8.0056,-7.9565,-7.8974,-7.8149,-7.8517,-7.8722,-7.8643,-7.8971,-7.922,-7.8759,-7.8397,-7.799,-7.7549,-7.7076,-7.6375,-7.4905,-7.4162,-7.3922,-7.3816,-7.3667,-7.3829,-7.3879,-7.3795,-7.3486,-7.3156,-7.2883,-7.2574,-7.2279,-7.1986,-7.1764,-7.1595,-7.1645,-7.1128,-7.0549,-6.9875,-6.939,-9.8966,-10.0633,-10.181,-10.2288,-10.2288,-10.2288,-10.2599,-10.3104,-10.3104,-10.3453,-10.3958,-10.4284,-10.4388,-10.4388,-10.3962,-10.3792,-10.3803,-10.363,-10.3926,-10.45,-10.4368,-10.4461,-10.4821,-10.4619,-10.4443,-10.434,-10.4208,-10.428,-10.4464,-10.4666,-10.4713,-10.4508,-10.4136,-10.3845,-10.3688,-10.3216,-10.2863,-10.2756,-10.2426,-10.2009,-10.1657,-10.1497,-10.0761,-9.9418,-9.7983,-9.7119,-9.6833,-9.5131,-9.3881,-9.3391,-9.237,-9.1398,-9.0538,-8.9248,-8.8225,-8.7592,-8.6475,-8.5884,-8.5783,-8.5089,-8.4652,-8.4619,-8.4216,-8.3981,-8.4089,-8.4251,-8.4412,-8.4606,-8.48,-8.4713,-8.4446,-8.3905,-8.341,-8.3299,-8.3075,-8.285,-8.2452,-8.2108,-8.1643,-8.1052,-8.0299,-7.9662,-7.9606,-7.9781,-7.9973,-7.9934,-8.0188,-8.0261,-7.993,-7.9546,-7.9046,-7.8499,-7.8179,-7.7814,-7.6749,-7.5725,-7.5164,-7.5059,-7.501,-7.4837,-7.4837,-7.4837,-7.4553,-7.4601,-7.4487,-7.4402,-7.4051,-7.4003,-7.3671,-7.3478,-7.3479,-7.3268,-7.2918,-7.1823,-7.1197,-9.998,-10.1045,-10.1938,-10.2288,-10.2327,-10.2599,-10.3065,-10.3609,-10.392,-10.4347,-10.4891,-10.5202,-10.5318,-10.5345,-10.5541,-10.5552,-10.5302,-10.4896,-10.5031,-10.5695,-10.5543,-10.5823,-10.6403,-10.6277,-10.6266,-10.6412,-10.6261,-10.6222,-10.6118,-10.6012,-10.5904,-10.5775,-10.5471,-10.5272,-10.5058,-10.4607,-10.4339,-10.4241,-10.3825,-10.339,-10.2909,-10.2684,-10.2231,-10.1464,-10.0135,-9.9136,-9.8603,-9.6894,-9.5576,-9.4833,-9.3877,-9.296,-9.204,-9.0573,-8.9722,-8.9548,-8.8506,-8.7829,-8.7727,-8.706,-8.6515,-8.6276,-8.5834,-8.5459,-8.5221,-8.5308,-8.5394,-8.5498,-8.5583,-8.5772,-8.5532,-8.4958,-8.4339,-8.4102,-8.3796,-8.3465,-8.322,-8.285,-8.2452,-8.1818,-8.1052,-8.0653,-8.0739,-8.0935,-8.1117,-8.1283,-8.1502,-8.143,-8.1086,-8.0601,-8.0111,-7.9505,-7.922,-7.8861,-7.8179,-7.7372,-7.6629,-7.645,-7.615,-7.5981,-7.5754,-7.583,-7.583,-7.5906,-7.5906,-7.5981,-7.5981,-7.5981,-7.5754,-7.5421,-7.5259,-7.504,-7.4373,-7.3501,-7.2792,-10.1023,-10.1212,-10.1938,-10.2327,-10.2521,-10.3181,-10.357,-10.392,-10.458,-10.5007,-10.5318,-10.5862,-10.6212,-10.6328,-10.6937,-10.7288,-10.7054,-10.6422,-10.634,-10.6863,-10.6673,-10.695,-10.758,-10.7471,-10.7702,-10.8239,-10.8337,-10.8143,-10.78,-10.7736,-10.7657,-10.7637,-10.7348,-10.7104,-10.7187,-10.667,-10.6566,-10.6338,-10.5935,-10.5364,-10.463,-10.4272,-10.3612,-10.2574,-10.2086,-10.117,-9.9451,-9.8795,-9.764,-9.6149,-9.5602,-9.4755,-9.3238,-9.2104,-9.1572,-9.1296,-9.0365,-8.9761,-8.9623,-8.9036,-8.8277,-8.7794,-8.7483,-8.7138,-8.657,-8.6448,-8.6413,-8.6344,-8.6344,-8.6244,-8.6043,-8.589,-8.548,-8.4747,-8.4372,-8.4102,-8.3796,-8.3521,-8.3042,-8.2452,-8.1941,-8.1766,-8.1969,-8.2192,-8.2397,-8.2618,-8.2666,-8.2544,-8.211,-8.1566,-8.0979,-8.0562,-8.0212,-7.9718,-7.9434,-7.9005,-7.8427,-7.7843,-7.7475,-7.7105,-7.6957,-7.6957,-7.6882,-7.6882,-7.6882,-7.6882,-7.6882,-7.6808,-7.6882,-7.6629,-7.6704,-7.6525,-7.5774,-7.4908,-7.4023,-10.1466,-10.1956,-10.2183,-10.2676,-10.3181,-10.3492,-10.423,-10.5357,-10.5707,-10.6095,-10.66,-10.6911,-10.7027,-10.7222,-10.7882,-10.8297,-10.8272,-10.8465,-10.8461,-10.8059,-10.7807,-10.8078,-10.8588,-10.8565,-10.8487,-10.8577,-10.8476,-10.838,-10.8282,-10.8246,-10.808,-10.7912,-10.7897,-10.7778,-10.769,-10.7407,-10.7234,-10.7063,-10.6711,-10.6343,-10.5959,-10.562,-10.4932,-10.3976,-10.3539,-10.2757,-10.1483,-10.0253,-9.9165,-9.8158,-9.6965,-9.5502,-9.3964,-9.3085,-9.2651,-9.2407,-9.19,-9.1561,-9.1456,-9.0862,-9.0339,-9.0038,-8.957,-8.8955,-8.8291,-8.8187,-8.7942,-8.7475,-8.7192,-8.6964,-8.6901,-8.6607,-8.6212,-8.5325,-8.4958,-8.4761,-8.4507,-8.4006,-8.3465,-8.3142,-8.3143,-8.3275,-8.3459,-8.3601,-8.3913,-8.4057,-8.3898,-8.3636,-8.3177,-8.258,-8.2073,-8.1635,-8.1186,-8.0632,-8.0212,-7.986,-7.9404,-7.8759,-7.8427,-7.8136,-7.799,-7.799,-7.7917,-7.7843,-7.7843,-7.777,-7.777,-7.777,-7.777,-7.7623,-7.7372,-7.7166,-7.6959,-7.6152,-7.5086,-10.2012,-10.2438,-10.2734,-10.3115,-10.3686,-10.423,-10.5163,-10.6173,-10.6522,-10.695,-10.7377,-10.7766,-10.7882,-10.8076,-10.8776,-10.9164,-10.9242,-10.9786,-10.9851,-10.9445,-10.8989,-10.9195,-10.9831,-10.9918,-10.9765,-10.9604,-10.9513,-10.9442,-10.9395,-10.9323,-10.92,-10.9099,-10.9073,-10.9008,-10.8811,-10.8665,-10.8554,-10.8394,-10.8092,-10.7728,-10.7384,-10.7317,-10.6606,-10.5323,-10.467,-10.3977,-10.3019,-10.1716,-10.0576,-9.9536,-9.7808,-9.6169,-9.501,-9.4193,-9.3612,-9.3368,-9.3037,-9.281,-9.281,-9.229,-9.1855,-9.1573,-9.1175,-9.0623,-9.0034,-8.9904,-8.9668,-8.9176,-8.9013,-8.8791,-8.8591,-8.8318,-8.7819,-8.7172,-8.632,-8.587,-8.5637,-8.5398,-8.5018,-8.4823,-8.4812,-8.4869,-8.5043,-8.5143,-8.5412,-8.5447,-8.5172,-8.473,-8.4283,-8.3733,-8.3177,-8.2678,-8.2073,-8.1529,-8.0979,-8.0632,-8.0352,-7.9759,-7.9261,-7.8975,-7.8831,-7.8831,-7.8759,-7.8831,-7.8831,-7.8903,-7.8831,-7.8759,-7.8687,-7.8397,-7.8136,-7.8033,-7.7709,-7.6677,-7.5664,-10.2591,-10.2693,-10.3371,-10.3744,-10.4048,-10.5396,-10.6173,-10.6406,-10.7027,-10.7416,-10.7688,-10.8271,-10.8659,-10.8931,-10.9708,-11.0058,-11.0096,-11.033,-11.0757,-11.0899,-11.0479,-11.0329,-11.079,-11.1134,-11.12,-11.1105,-11.1099,-11.1108,-11.0801,-11.0793,-11.1013,-11.0662,-11.0599,-11.0691,-11.0332,-11.047,-11.0237,-11.0007,-10.9827,-10.9293,-10.8627,-10.9068,-10.8484,-10.6547,-10.5626,-10.4871,-10.4119,-10.3054,-10.1832,-10.0289,-9.8363,-9.7185,-9.6521,-9.5484,-9.4839,-9.45,-9.3985,-9.3765,-9.3673,-9.3426,-9.3002,-9.2481,-9.2478,-9.2225,-9.1584,-9.1506,-9.1444,-9.1131,-9.1077,-9.0931,-9.0527,-9.0352,-9.014,-8.9717,-8.8185,-8.7367,-8.7636,-8.7352,-8.6948,-8.6779,-8.6675,-8.65,-8.6602,-8.6629,-8.6711,-8.6633,-8.6408,-8.598,-8.5423,-8.4794,-8.4122,-8.3602,-8.3142,-8.2477,-8.1974,-8.1529,-8.1255,-8.091,-8.0322,-7.9971,-7.9546,-7.9475,-7.9475,-7.9546,-7.9688,-7.983,-7.9688,-7.9505,-7.9363,-7.919,-7.9005,-7.8933,-7.828,-7.727,-7.6442,-10.3028,-10.3573,-10.3636,-10.4389,-10.5455,-10.608,-10.6561,-10.7066,-10.7299,-10.7727,-10.8271,-10.8581,-10.9086,-10.9747,-11.0563,-11.0951,-11.1068,-11.1573,-11.1961,-11.2181,-11.1946,-11.167,-11.1676,-11.1692,-11.1672,-11.1529,-11.1406,-11.1336,-11.1224,-11.1155,-11.1123,-11.1076,-11.1037,-11.0941,-11.0793,-11.0767,-11.0665,-11.0455,-11.0373,-11.0159,-10.9828,-10.971,-10.919,-10.8009,-10.6761,-10.5762,-10.483,-10.3632,-10.2167,-10.0671,-9.9912,-9.8928,-9.8011,-9.7392,-9.6696,-9.5874,-9.5554,-9.5162,-9.4554,-9.4321,-9.4169,-9.407,-9.3927,-9.3765,-9.3012,-9.2948,-9.2661,-9.2223,-9.1913,-9.1853,-9.1604,-9.1461,-9.1357,-9.1187,-8.9815,-8.8602,-8.8416,-8.8122,-8.7946,-8.7875,-8.7891,-8.7863,-8.7745,-8.7867,-8.7859,-8.7537,-8.7308,-8.7071,-8.6408,-8.5919,-8.5298,-8.4762,-8.4251,-8.3602,-8.301,-8.2544,-8.2239,-8.187,-8.1461,-8.1017,-8.0462,-7.99,-7.983,-7.983,-8.0182,-8.0322,-8.0102,-7.9779,-7.9819,-8.0001,-7.9819,-7.9678,-7.8921,-7.7995,-7.7331,-10.3217,-10.3964,-10.4209,-10.5057,-10.6221,-10.6582,-10.7025,-10.7375,-10.7428,-10.7882,-10.862,-10.9125,-10.9708,-11.0601,-11.1456,-11.1845,-11.1922,-11.235,-11.2583,-11.257,-11.2386,-11.2243,-11.2091,-11.1957,-11.1847,-11.1713,-11.1632,-11.1571,-11.1487,-11.138,-11.1291,-11.1246,-11.1178,-11.1108,-11.0965,-11.1004,-11.0867,-11.0691,-11.0613,-11.0508,-11.0384,-11.0161,-10.9731,-10.8969,-10.7872,-10.6749,-10.5306,-10.3972,-10.2748,-10.1648,-10.0975,-10.0262,-9.9426,-9.8899,-9.8249,-9.7325,-9.6908,-9.6268,-9.5693,-9.5152,-9.4806,-9.4806,-9.4842,-9.459,-9.4273,-9.4294,-9.4133,-9.3753,-9.3566,-9.3445,-9.3266,-9.2924,-9.2827,-9.283,-9.1811,-9.0794,-9.0133,-8.9948,-8.9708,-8.9553,-8.9426,-8.9307,-8.9035,-8.9113,-8.8836,-8.8506,-8.8334,-8.7837,-8.7249,-8.6891,-8.6408,-8.5796,-8.5205,-8.4507,-8.3928,-8.3471,-8.3208,-8.2878,-8.2678,-8.2177,-8.1566,-8.0848,-8.081,-8.0879,-8.081,-8.084,-8.0732,-8.0732,-8.0871,-8.094,-8.0654,-8.0278,-7.9575,-7.8971,-7.823,-10.3358,-10.4193,-10.4938,-10.5676,-10.6527,-10.7194,-10.7483,-10.751,-10.7476,-10.7984,-10.8917,-10.9682,-11.0459,-11.1495,-11.2117,-11.2544,-11.2544,-11.2583,-11.2596,-11.2583,-11.2466,-11.2369,-11.2251,-11.2124,-11.2007,-11.1918,-11.1865,-11.1809,-11.1751,-11.1672,-11.1591,-11.1449,-11.138,-11.1246,-11.1155,-11.1147,-11.1037,-11.0917,-11.0793,-11.0691,-11.0599,-11.0477,-11.017,-10.9751,-10.8779,-10.7328,-10.5774,-10.4516,-10.3635,-10.2865,-10.1906,-10.1277,-10.079,-10.0125,-9.9524,-9.8986,-9.8233,-9.7629,-9.6977,-9.6098,-9.5374,-9.541,-9.5259,-9.5108,-9.5127,-9.5301,-9.5389,-9.5156,-9.5576,-9.5228,-9.494,-9.4619,-9.4408,-9.4275,-9.4052,-9.3391,-9.2568,-9.221,-9.191,-9.1402,-9.1092,-9.0812,-9.0548,-9.0261,-8.9881,-8.9295,-8.9072,-8.8563,-8.8069,-8.7662,-8.719,-8.659,-8.598,-8.5455,-8.4889,-8.4411,-8.4154,-8.3896,-8.3701,-8.3343,-8.2979,-8.2446,-8.2276,-8.2172,-8.1974,-8.1974,-8.2073,-8.2037,-8.2037,-8.1907,-8.174,-8.1133,-8.044,-7.9888,-7.9304,-10.3681,-10.5109,-10.5182,-10.6046,-10.7282,-10.751,-10.7576,-10.7576,-10.7565,-10.8349,-10.956,-11.0014,-11.0923,-11.2272,-11.2466,-11.2622,-11.2622,-11.2596,-11.2608,-11.2619,-11.258,-11.2556,-11.2479,-11.2341,-11.2189,-11.2108,-11.2113,-11.2028,-11.1921,-11.1865,-11.1809,-11.1712,-11.1591,-11.1487,-11.1341,-11.1291,-11.1216,-11.1061,-11.1013,-11.0941,-11.0793,-11.0703,-11.0546,-11.0215,-10.9135,-10.7718,-10.6283,-10.5483,-10.4757,-10.3871,-10.3104,-10.2604,-10.2313,-10.1908,-10.1276,-10.0569,-10.0041,-9.9402,-9.8456,-9.7564,-9.6927,-9.6691,-9.625,-9.5777,-9.5818,-9.5895,-9.5935,-9.5858,-9.5899,-9.5899,-9.5736,-9.5529,-9.5362,-9.5199,-9.4986,-9.4595,-9.4024,-9.338,-9.2845,-9.2456,-9.201,-9.1606,-9.1385,-9.0917,-9.0548,-9.0118,-8.9737,-8.9295,-8.8903,-8.8472,-8.7954,-8.7393,-8.6891,-8.6408,-8.598,-8.5548,-8.5235,-8.5047,-8.4888,-8.4762,-8.4315,-8.3864,-8.3701,-8.3309,-8.2912,-8.3045,-8.3177,-8.3076,-8.301,-8.2916,-8.2792,-8.2093,-8.1427,-8.0924,-8.0166,-10.3858,-10.5348,-10.5329,-10.6241,-10.7574,-10.7663,-10.7656,-10.7637,-10.7607,-10.8559,-10.9888,-11.0127,-11.1064,-11.2517,-11.2596,-11.2622,-11.2596,-11.2621,-11.2607,-11.2604,-11.2627,-11.265,-11.2639,-11.2543,-11.2425,-11.2335,-11.2275,-11.2196,-11.2091,-11.1989,-11.1918,-11.1902,-11.1771,-11.1672,-11.1612,-11.1529,-11.1423,-11.1291,-11.1246,-11.1178,-11.0989,-11.0843,-11.0665,-11.0329,-10.9371,-10.8252,-10.754,-10.672,-10.5937,-10.5157,-10.4516,-10.3934,-10.3428,-10.3077,-10.2604,-10.2053,-10.1389,-10.087,-9.9976,-9.9119,-9.8411,-9.8094,-9.7612,-9.7086,-9.6794,-9.6648,-9.6545,-9.6326,-9.622,-9.6296,-9.6216,-9.598,-9.5858,-9.5818,-9.5654,-9.5404,-9.5065,-9.4285,-9.3555,-9.3227,-9.2797,-9.2407,-9.201,-9.1606,-9.104,-9.0619,-9.0441,-9.001,-8.9572,-8.9184,-8.8813,-8.8358,-8.7895,-8.7427,-8.7011,-8.6651,-8.6408,-8.6287,-8.6226,-8.6132,-8.5948,-8.5515,-8.4982,-8.4571,-8.4187,-8.4123,-8.4283,-8.4154,-8.4123,-8.4091,-8.3835,-8.3162,-8.2459,-8.1852,-8.0962,-10.3866,-10.5415,-10.539,-10.6354,-10.7678,-10.7752,-10.7753,-10.7702,-10.7656,-10.862,-10.9991,-11.0133,-11.1044,-11.2343,-11.2633,-11.2596,-11.2608,-11.2619,-11.2604,-11.2639,-11.2683,-11.2705,-11.2694,-11.2672,-11.2616,-11.2452,-11.2384,-11.2341,-11.2266,-11.2134,-11.2091,-11.2024,-11.1921,-11.1828,-11.1809,-11.1809,-11.1672,-11.1491,-11.147,-11.1363,-11.1201,-11.1037,-11.0854,-11.0461,-10.9894,-10.9176,-10.8703,-10.7986,-10.7198,-10.6411,-10.6102,-10.5339,-10.4424,-10.3758,-10.3522,-10.3279,-10.2513,-10.1934,-10.1388,-10.0574,-9.9796,-9.945,-9.9032,-9.8504,-9.7835,-9.7768,-9.7588,-9.7298,-9.7117,-9.7156,-9.6856,-9.6844,-9.6688,-9.6575,-9.6538,-9.6344,-9.6063,-9.5318,-9.4678,-9.3878,-9.3509,-9.3085,-9.27,-9.2309,-9.1708,-9.1196,-9.1022,-9.076,-9.028,-8.9901,-8.9593,-8.9317,-8.8869,-8.8415,-8.8012,-8.7804,-8.7511,-8.7544,-8.7486,-8.7486,-8.7486,-8.7157,-8.6645,-8.5886,-8.5515,-8.5515,-8.5515,-8.5515,-8.5483,-8.5418,-8.4962,-8.4312,-8.3597,-8.2789,-8.1863,-10.382,-10.5429,-10.5423,-10.6375,-10.7768,-10.7855,-10.786,-10.7866,-10.7791,-10.8727,-11.0126,-11.0235,-11.112,-11.2322,-11.2616,-11.2607,-11.2621,-11.2631,-11.2639,-11.2672,-11.2775,-11.2756,-11.2766,-11.2795,-11.2716,-11.2661,-11.258,-11.2492,-11.2411,-11.2355,-11.2251,-11.2141,-11.2024,-11.1954,-11.1902,-11.1828,-11.1771,-11.1712,-11.1692,-11.1591,-11.1406,-11.1275,-11.1155,-11.0843,-11.0398,-10.995,-10.9349,-10.891,-10.8344,-10.7621,-10.749,-10.6856,-10.5878,-10.4749,-10.4198,-10.3813,-10.3435,-10.298,-10.2627,-10.1861,-10.1202,-10.0722,-10.0165,-9.9531,-9.9158,-9.9044,-9.8782,-9.8631,-9.8481,-9.8592,-9.8665,-9.829,-9.8476,-9.8473,-9.8244,-9.8124,-9.7933,-9.7205,-9.6165,-9.5289,-9.4536,-9.3776,-9.3368,-9.2989,-9.2456,-9.196,-9.1657,-9.1402,-9.1092,-9.0812,-9.0548,-9.0192,-8.9867,-8.9428,-8.8959,-8.8869,-8.8723,-8.8723,-8.8756,-8.8723,-8.8723,-8.8723,-8.8267,-8.7595,-8.7038,-8.6858,-8.6891,-8.6891,-8.6759,-8.6594,-8.6099,-8.5538,-8.4679,-8.3763,-8.2979,-10.4394,-10.5426,-10.5859,-10.6787,-10.7775,-10.7914,-10.7924,-10.7883,-10.7905,-10.8816,-10.9943,-11.0355,-11.1207,-11.2406,-11.2683,-11.2655,-11.2631,-11.2627,-11.2661,-11.2705,-11.2815,-11.2853,-11.2853,-11.2853,-11.2825,-11.2736,-11.2672,-11.2604,-11.2505,-11.2425,-11.2355,-11.2282,-11.2157,-11.2113,-11.2062,-11.2014,-11.1902,-11.1865,-11.1847,-11.1771,-11.1573,-11.1491,-11.1253,-11.1061,-11.0867,-11.0538,-11.0232,-10.9871,-10.9372,-10.8697,-10.8453,-10.7914,-10.713,-10.643,-10.5467,-10.4584,-10.4148,-10.3888,-10.3655,-10.301,-10.2584,-10.2195,-10.1535,-10.0944,-10.0462,-10.0201,-9.9899,-9.945,-9.9147,-9.9108,-9.9035,-9.9181,-9.9108,-9.9069,-9.9063,-9.9023,-9.8836,-9.8347,-9.7661,-9.6743,-9.5735,-9.4883,-9.405,-9.3602,-9.318,-9.2748,-9.2393,-9.2145,-9.1929,-9.1708,-9.1504,-9.1092,-9.0743,-9.0407,-9.003,-8.9942,-8.9887,-8.9942,-8.9976,-8.9942,-8.9922,-8.9887,-8.9779,-8.9394,-8.8948,-8.8381,-8.8152,-8.8152,-8.7893,-8.7592,-8.6855,-8.6118,-8.5449,-8.4723,-8.3966,-10.4925,-10.5683,-10.6401,-10.7187,-10.7883,-10.7989,-10.7971,-10.7899,-10.7924,-10.8841,-11.0251,-11.0465,-11.1284,-11.2529,-11.2766,-11.2683,-11.2639,-11.2683,-11.2705,-11.2775,-11.2843,-11.2888,-11.2888,-11.2879,-11.2862,-11.2825,-11.2716,-11.2661,-11.258,-11.2492,-11.2464,-11.2355,-11.2236,-11.2196,-11.2163,-11.2118,-11.2049,-11.1975,-11.1957,-11.1902,-11.1771,-11.1591,-11.1341,-11.1178,-11.1037,-11.0941,-11.0766,-11.0576,-11.0179,-10.9669,-10.9349,-10.8964,-10.8262,-10.8072,-10.7186,-10.5604,-10.5029,-10.4773,-10.4437,-10.4216,-10.3772,-10.3204,-10.3005,-10.2348,-10.1722,-10.1165,-10.0752,-10.0045,-9.9777,-9.9732,-9.9842,-9.9659,-9.9659,-9.9695,-9.9732,-9.9622,-9.9656,-9.9389,-9.9086,-9.8144,-9.6946,-9.6195,-9.5626,-9.5045,-9.4727,-9.4373,-9.3994,-9.3532,-9.3304,-9.2832,-9.2519,-9.2025,-9.1708,-9.1402,-9.1196,-9.1144,-9.1057,-9.1057,-9.1057,-9.1057,-9.1092,-9.1092,-9.0988,-9.0848,-9.0532,-9.007,-8.969,-8.9258,-8.8829,-8.8286,-8.7471,-8.6826,-8.6283,-8.5633,-8.4843,-10.504,-10.647,-10.6643,-10.7212,-10.7928,-10.8007,-10.8005,-10.7997,-10.7976,-10.8969,-11.0353,-11.0553,-11.1403,-11.2626,-11.2843,-11.2775,-11.2754,-11.2765,-11.2795,-11.2805,-11.2862,-11.2888,-11.2888,-11.2888,-11.2888,-11.2853,-11.2736,-11.2672,-11.2604,-11.2569,-11.2505,-11.2398,-11.2311,-11.2275,-11.2212,-11.2152,-11.2084,-11.2084,-11.2067,-11.1993,-11.1884,-11.1692,-11.1529,-11.1363,-11.1269,-11.1132,-11.1004,-11.0919,-11.0729,-11.0512,-11.0474,-11.0015,-10.9223,-10.9044,-10.8507,-10.7669,-10.7066,-10.6539,-10.5793,-10.5328,-10.4812,-10.4171,-10.3676,-10.311,-10.2497,-10.1904,-10.1559,-10.1628,-10.1247,-10.098,-10.0907,-10.109,-10.1164,-10.1017,-10.087,-10.0943,-10.0943,-10.0316,-10.0053,-9.9749,-9.8655,-9.8147,-9.7608,-9.6967,-9.6353,-9.5964,-9.554,-9.508,-9.4584,-9.4135,-9.3711,-9.3272,-9.2651,-9.2323,-9.2224,-9.2174,-9.2174,-9.2174,-9.2174,-9.2174,-9.2174,-9.2174,-9.2174,-9.2025,-9.1825,-9.1537,-9.1092,-9.0503,-8.9811,-8.9018,-8.8261,-8.771,-8.7297,-8.6525,-8.5703,-10.5921,-10.6651,-10.7148,-10.7563,-10.7901,-10.7991,-10.8002,-10.8007,-10.8004,-10.8698,-10.9776,-11.0327,-11.144,-11.2719,-11.2862,-11.2805,-11.2785,-11.2805,-11.2815,-11.2825,-11.2862,-11.2888,-11.2888,-11.2888,-11.2888,-11.2862,-11.2795,-11.2694,-11.2627,-11.2607,-11.257,-11.253,-11.2355,-11.2305,-11.2243,-11.213,-11.2101,-11.2084,-11.2084,-11.2049,-11.1902,-11.179,-11.1652,-11.1512,-11.138,-11.13,-11.1262,-11.1515,-11.1288,-11.1098,-11.1124,-11.0971,-11.0308,-11.0015,-10.9771,-10.9448,-10.9142,-10.8299,-10.7027,-10.6541,-10.5956,-10.5434,-10.4795,-10.3945,-10.3086,-10.2388,-10.2006,-10.1932,-10.1657,-10.1534,-10.1494,-10.1494,-10.1494,-10.1494,-10.1494,-10.1494,-10.1457,-10.131,-10.0903,-10.0713,-10.0408,-9.9791,-9.9135,-9.8267,-9.7649,-9.7299,-9.6869,-9.6392,-9.5897,-9.5321,-9.4979,-9.4627,-9.3957,-9.3333,-9.3286,-9.3239,-9.3203,-9.3239,-9.3239,-9.3239,-9.3239,-9.3239,-9.3191,-9.3191,-9.3061,-9.2739,-9.24,-9.148,-9.0454,-8.9707,-8.9025,-8.8335,-8.7715,-8.7304,-8.6573,-10.6824,-10.6982,-10.7643,-10.7905,-10.7924,-10.795,-10.7974,-10.7995,-10.8003,-10.8476,-10.9407,-11.0388,-11.1685,-11.2702,-11.2936,-11.2853,-11.2834,-11.2834,-11.2834,-11.2843,-11.2862,-11.2888,-11.2888,-11.2888,-11.2888,-11.2888,-11.2746,-11.2694,-11.2689,-11.2658,-11.2622,-11.2622,-11.2422,-11.235,-11.229,-11.2179,-11.2135,-11.2101,-11.2101,-11.2067,-11.1957,-11.1865,-11.1751,-11.1709,-11.168,-11.1682,-11.1707,-11.2282,-11.2201,-11.195,-11.208,-11.2003,-11.1545,-11.1188,-11.0983,-11.0622,-11.0346,-10.9571,-10.8451,-10.7794,-10.7328,-10.6635,-10.5875,-10.4694,-10.3636,-10.2834,-10.2234,-10.2122,-10.1734,-10.1534,-10.1494,-10.1494,-10.1494,-10.1494,-10.1494,-10.1494,-10.1457,-10.1347,-10.131,-10.116,-10.1006,-10.1075,-10.0349,-9.9468,-9.8887,-9.8613,-9.818,-9.7737,-9.7172,-9.6526,-9.6094,-9.5726,-9.5027,-9.4374,-9.4249,-9.4249,-9.4249,-9.4204,-9.4204,-9.416,-9.4115,-9.4069,-9.406,-9.4105,-9.4115,-9.3934,-9.3484,-9.2236,-9.1032,-9.0351,-8.96,-8.8662,-8.8042,-8.7784,-8.7491,-10.7633,-10.7722,-10.7834,-10.7899,-10.7905,-10.79,-10.7924,-10.7914,-10.7971,-10.8545,-10.9569,-11.0866,-11.1979,-11.2814,-11.2999,-11.2913,-11.2879,-11.2879,-11.2879,-11.2879,-11.2888,-11.2888,-11.2888,-11.2888,-11.2888,-11.2871,-11.2756,-11.2705,-11.2711,-11.2619,-11.2608,-11.257,-11.2489,-11.2394,-11.2383,-11.2444,-11.2346,-11.2256,-11.2179,-11.2101,-11.201,-11.1939,-11.1885,-11.2021,-11.2403,-11.2702,-11.2482,-11.322,-11.3442,-11.3117,-11.3239,-11.31,-11.2717,-11.222,-11.1939,-11.153,-11.0896,-11.0263,-10.9619,-10.8791,-10.7918,-10.7019,-10.6189,-10.5448,-10.4451,-10.3687,-10.3013,-10.2269,-10.1844,-10.1534,-10.1494,-10.1494,-10.1494,-10.1494,-10.1494,-10.1494,-10.1494,-10.1494,-10.142,-10.1457,-10.1494,-10.1413,-10.1372,-10.0463,-10.0068,-9.976,-9.9451,-9.8976,-9.8336,-9.7749,-9.7204,-9.6654,-9.5965,-9.5477,-9.5199,-9.5121,-9.4993,-9.4993,-9.4993,-9.4986,-9.49,-9.49,-9.4857,-9.4814,-9.477,-9.4683,-9.4372,-9.2916,-9.1736,-9.1022,-9.0176,-8.9199,-8.8593,-8.8396,-8.8097,-10.7723,-10.775,-10.7808,-10.7845,-10.7866,-10.784,-10.7866,-10.79,-10.7938,-10.8807,-11.0117,-11.0803,-11.1737,-11.2694,-11.3021,-11.2969,-11.2888,-11.2888,-11.2888,-11.2888,-11.2888,-11.2888,-11.2888,-11.2888,-11.2888,-11.2871,-11.2815,-11.2716,-11.2683,-11.2682,-11.3009,-11.301,-11.2788,-11.2821,-11.2848,-11.2986,-11.2887,-11.2737,-11.2449,-11.214,-11.2084,-11.2014,-11.2116,-11.2581,-11.2636,-11.3129,-11.344,-11.4195,-11.4126,-11.4018,-11.4152,-11.3978,-11.3635,-11.31,-11.2603,-11.2105,-11.1342,-11.0786,-11.0256,-10.955,-10.8697,-10.7607,-10.6846,-10.6165,-10.5308,-10.4207,-10.3456,-10.2782,-10.2067,-10.1644,-10.1494,-10.1494,-10.1494,-10.1494,-10.1494,-10.1494,-10.1494,-10.1494,-10.1494,-10.1494,-10.1494,-10.1494,-10.1454,-10.134,-10.114,-10.0975,-10.0631,-10.0219,-9.9531,-9.8728,-9.8103,-9.741,-9.6676,-9.6089,-9.5858,-9.574,-9.574,-9.574,-9.574,-9.5617,-9.5571,-9.5612,-9.5571,-9.5529,-9.5404,-9.5284,-9.4723,-9.3422,-9.2475,-9.1726,-9.078,-8.9664,-8.9241,-8.8943,-8.8775,-10.7685,-10.7714,-10.7767,-10.78,-10.7791,-10.7791,-10.7813,-10.7886,-10.7889,-10.8862,-11.0546,-11.058,-11.1449,-11.2642,-11.3009,-11.2992,-11.2952,-11.2897,-11.2888,-11.2888,-11.2888,-11.2888,-11.2888,-11.2888,-11.2888,-11.2879,-11.2834,-11.2785,-11.2694,-11.2872,-11.3268,-11.3476,-11.3501,-11.3717,-11.3809,-11.3822,-11.3722,-11.3571,-11.3262,-11.2836,-11.2857,-11.2861,-11.2868,-11.3449,-11.3679,-11.398,-11.4506,-11.5071,-11.5217,-11.5056,-11.5024,-11.4905,-11.4462,-11.389,-11.3329,-11.2563,-11.1816,-11.1167,-11.0417,-10.9764,-10.9107,-10.8192,-10.7677,-10.6947,-10.5988,-10.4838,-10.4304,-10.3672,-10.2693,-10.1861,-10.1824,-10.1714,-10.1531,-10.1494,-10.1494,-10.1494,-10.1494,-10.1494,-10.1494,-10.1494,-10.1494,-10.1494,-10.1494,-10.1494,-10.1413,-10.1291,-10.114,-10.0838,-10.0546,-9.9668,-9.8712,-9.7981,-9.7253,-9.6777,-9.6299,-9.6377,-9.6455,-9.6377,-9.6338,-9.622,-9.614,-9.614,-9.602,-9.5818,-9.5777,-9.5858,-9.5154,-9.4001,-9.3199,-9.2466,-9.1265,-8.9875,-8.9713,-8.9464,-8.9421,-10.7576,-10.7675,-10.7767,-10.7783,-10.7792,-10.7792,-10.7815,-10.7845,-10.7944,-10.8891,-11.0457,-11.0624,-11.1543,-11.2783,-11.3033,-11.2982,-11.2976,-11.2905,-11.2888,-11.2888,-11.2888,-11.2888,-11.2888,-11.2888,-11.2888,-11.2879,-11.2843,-11.2795,-11.285,-11.3389,-11.3746,-11.4305,-11.4732,-11.4963,-11.4945,-11.4755,-11.4624,-11.4556,-11.4461,-11.4267,-11.4229,-11.4134,-11.4141,-11.4395,-11.476,-11.5044,-11.5374,-11.583,-11.6016,-11.6016,-11.5963,-11.5931,-11.5769,-11.5037,-11.4247,-11.3291,-11.2198,-11.1243,-11.0332,-10.9689,-10.9066,-10.8626,-10.8061,-10.7513,-10.6735,-10.5987,-10.5186,-10.4482,-10.3426,-10.2783,-10.2448,-10.2118,-10.1934,-10.1677,-10.1714,-10.1567,-10.1604,-10.1494,-10.1494,-10.1494,-10.1494,-10.1494,-10.1494,-10.1494,-10.1494,-10.1494,-10.1494,-10.1307,-10.1046,-10.0199,-9.9023,-9.8259,-9.7527,-9.7128,-9.6763,-9.7026,-9.7101,-9.7026,-9.6876,-9.6647,-9.6492,-9.6414,-9.6296,-9.61,-9.61,-9.614,-9.5516,-9.4667,-9.3615,-9.2528,-9.1233,-9.0167,-9.0042,-9.0048,-9.0053,-10.7522,-10.7666,-10.7714,-10.7758,-10.7783,-10.7783,-10.78,-10.7893,-10.849,-10.9393,-11.0481,-11.1053,-11.1943,-11.2802,-11.3012,-11.2989,-11.2992,-11.2952,-11.2888,-11.2888,-11.2888,-11.2888,-11.2888,-11.2888,-11.2927,-11.2888,-11.2901,-11.3243,-11.3589,-11.4062,-11.4769,-11.5406,-11.5986,-11.6279,-11.5864,-11.5582,-11.5484,-11.535,-11.4964,-11.4577,-11.4616,-11.4675,-11.4835,-11.5147,-11.5513,-11.5758,-11.6028,-11.6391,-11.6446,-11.6484,-11.6416,-11.6393,-11.63,-11.5648,-11.4897,-11.3712,-11.253,-11.1472,-11.0167,-10.9211,-10.8882,-10.8574,-10.8218,-10.7814,-10.7255,-10.6353,-10.5706,-10.5137,-10.4195,-10.3664,-10.3366,-10.3293,-10.3072,-10.2485,-10.2265,-10.1934,-10.1788,-10.1604,-10.1494,-10.1494,-10.1494,-10.1494,-10.1494,-10.1494,-10.1494,-10.1384,-10.1347,-10.1017,-10.0683,-9.9916,-9.8885,-9.827,-9.7649,-9.7321,-9.7175,-9.7321,-9.7358,-9.7211,-9.7063,-9.6914,-9.68,-9.6647,-9.657,-9.6414,-9.6414,-9.638,-9.5679,-9.4867,-9.361,-9.2463,-9.1436,-9.0813,-9.0661,-9.074,-9.0819,-10.7389,-10.7544,-10.7617,-10.7714,-10.7758,-10.7775,-10.7783,-10.7956,-10.8809,-10.9705,-11.0545,-11.1402,-11.2261,-11.2855,-11.3022,-11.3002,-11.3007,-11.2913,-11.2888,-11.2888,-11.2888,-11.2888,-11.2888,-11.2966,-11.3161,-11.32,-11.3407,-11.3672,-11.4445,-11.4735,-11.5598,-11.6623,-11.7225,-11.6957,-11.6631,-11.6456,-11.6353,-11.6258,-11.5931,-11.5699,-11.566,-11.5681,-11.5781,-11.5997,-11.613,-11.6203,-11.644,-11.6529,-11.6484,-11.6484,-11.6484,-11.6439,-11.6347,-11.6013,-11.5201,-11.3891,-11.2198,-11.1051,-10.9699,-10.8949,-10.8643,-10.8398,-10.8037,-10.7702,-10.7436,-10.6638,-10.625,-10.5679,-10.4885,-10.4509,-10.432,-10.432,-10.3806,-10.3182,-10.2742,-10.2415,-10.2122,-10.1938,-10.1534,-10.1534,-10.1494,-10.1494,-10.1494,-10.1494,-10.1494,-10.1347,-10.12,-10.076,-10.0322,-9.9591,-9.886,-9.8241,-9.7765,-9.7506,-9.7394,-9.7502,-9.7502,-9.7394,-9.7285,-9.7138,-9.6989,-9.6838,-9.6762,-9.6685,-9.6608,-9.6423,-9.5911,-9.5027,-9.3963,-9.3011,-9.2206,-9.1691,-9.1395,-9.1322,-9.1396,-10.7209,-10.7377,-10.7544,-10.7617,-10.7675,-10.7758,-10.7783,-10.7909,-10.8848,-10.9734,-11.0566,-11.1518,-11.238,-11.2944,-11.3028,-11.3015,-11.2989,-11.2922,-11.2897,-11.2888,-11.2888,-11.2888,-11.2927,-11.3044,-11.3464,-11.3923,-11.4246,-11.4547,-11.534,-11.5972,-11.6792,-11.7334,-11.7414,-11.7299,-11.7158,-11.7092,-11.7028,-11.6877,-11.682,-11.6627,-11.6627,-11.6859,-11.6748,-11.6731,-11.6672,-11.6609,-11.6637,-11.6551,-11.6506,-11.6484,-11.6484,-11.6484,-11.6416,-11.6253,-11.5083,-11.3495,-11.1364,-11.0127,-10.9377,-10.8848,-10.8504,-10.8255,-10.7777,-10.7511,-10.724,-10.6847,-10.6534,-10.6222,-10.5615,-10.539,-10.5165,-10.4724,-10.4288,-10.3774,-10.326,-10.297,-10.2603,-10.2236,-10.1721,-10.1534,-10.1534,-10.1534,-10.1494,-10.1494,-10.1457,-10.1351,-10.1093,-10.0509,-10.0034,-9.945,-9.8718,-9.817,-9.7802,-9.765,-9.7646,-9.7717,-9.7717,-9.7646,-9.7502,-9.7394,-9.7211,-9.6989,-9.6838,-9.6762,-9.6724,-9.6503,-9.6286,-9.5553,-9.4411,-9.36,-9.2935,-9.224,-9.1803,-9.1803,-9.1767,-10.7052,-10.7195,-10.7377,-10.751,-10.7576,-10.7695,-10.775,-10.7994,-10.9355,-11.028,-11.0605,-11.2098,-11.2812,-11.3105,-11.3047,-11.3,-11.2989,-11.2937,-11.2897,-11.2888,-11.2888,-11.2888,-11.3083,-11.3425,-11.3884,-11.4285,-11.4752,-11.5401,-11.6178,-11.696,-11.727,-11.7496,-11.7446,-11.7384,-11.7302,-11.7257,-11.7243,-11.7207,-11.7207,-11.7207,-11.7207,-11.7207,-11.7114,-11.7039,-11.6885,-11.6784,-11.668,-11.6551,-11.6506,-11.6484,-11.6484,-11.6484,-11.6462,-11.6176,-11.5267,-11.3129,-11.1159,-10.9606,-10.9238,-10.864,-10.8291,-10.8074,-10.7588,-10.7237,-10.7039,-10.6837,-10.6668,-10.6318,-10.6203,-10.5862,-10.5789,-10.55,-10.5138,-10.4779,-10.4195,-10.3577,-10.3172,-10.2436,-10.1917,-10.1654,-10.1614,-10.1534,-10.1534,-10.1494,-10.1461,-10.1314,-10.0953,-10.0257,-9.9749,-9.9163,-9.8613,-9.8023,-9.7873,-9.7719,-9.7787,-9.7822,-9.7822,-9.7822,-9.768,-9.7538,-9.7285,-9.7063,-9.6914,-9.6838,-9.68,-9.6914,-9.6953,-9.5993,-9.4698,-9.4321,-9.3689,-9.2922,-9.2303,-9.2303,-9.2231,-10.6846,-10.7037,-10.7206,-10.7366,-10.7526,-10.7965,-10.8201,-10.8546,-10.9816,-11.0592,-11.1151,-11.2485,-11.3086,-11.3105,-11.3064,-11.3012,-11.3002,-11.2953,-11.2913,-11.2888,-11.2888,-11.2888,-11.32,-11.3767,-11.4285,-11.4762,-11.5412,-11.6213,-11.6908,-11.7245,-11.755,-11.7521,-11.7415,-11.7335,-11.7308,-11.7239,-11.7225,-11.7207,-11.7207,-11.7207,-11.7207,-11.7207,-11.7114,-11.7058,-11.6904,-11.6804,-11.6722,-11.6594,-11.6506,-11.6484,-11.6484,-11.6462,-11.6163,-11.5557,-11.4655,-11.2565,-11.0831,-10.9734,-10.9206,-10.8643,-10.8289,-10.8,-10.7473,-10.7158,-10.6918,-10.6714,-10.6585,-10.6381,-10.6381,-10.6339,-10.6381,-10.6387,-10.6181,-10.5973,-10.5134,-10.4295,-10.3444,-10.2596,-10.2186,-10.1847,-10.1694,-10.1614,-10.1574,-10.1534,-10.1277,-10.0836,-10.0331,-9.9714,-9.9312,-9.8947,-9.8393,-9.7836,-9.7794,-9.7787,-9.7857,-9.7892,-9.7892,-9.7857,-9.7822,-9.7681,-9.7394,-9.7211,-9.7063,-9.6989,-9.6914,-9.7064,-9.7173,-9.6095,-9.5015,-9.467,-9.4243,-9.343,-9.2847,-9.2781,-9.271,-10.6639,-10.6885,-10.7037,-10.7202,-10.7508,-10.8319,-10.8849,-10.9193,-11.0138,-11.0971,-11.1811,-11.2678,-11.3086,-11.3112,-11.3079,-11.3072,-11.3027,-11.2968,-11.2969,-11.2897,-11.2888,-11.2888,-11.3143,-11.3817,-11.4645,-11.5422,-11.6224,-11.6932,-11.7414,-11.7606,-11.7521,-11.7491,-11.7368,-11.7308,-11.7274,-11.7186,-11.7171,-11.7114,-11.7114,-11.7153,-11.7189,-11.7207,-11.7189,-11.7132,-11.6963,-11.6766,-11.6764,-11.6659,-11.6484,-11.6484,-11.6484,-11.6439,-11.5807,-11.4541,-11.3439,-11.2319,-11.0696,-10.9748,-10.9174,-10.8643,-10.8289,-10.7926,-10.7473,-10.7158,-10.6918,-10.6632,-10.646,-10.6418,-10.6376,-10.6376,-10.6418,-10.6544,-10.6448,-10.6132,-10.5442,-10.4861,-10.4273,-10.3235,-10.2232,-10.1969,-10.1891,-10.1773,-10.1614,-10.1578,-10.132,-10.0622,-9.9967,-9.9386,-9.891,-9.8651,-9.8278,-9.772,-9.7789,-9.7822,-9.7857,-9.7892,-9.7892,-9.7892,-9.7857,-9.7752,-9.7466,-9.7321,-9.7211,-9.7175,-9.7138,-9.721,-9.7092,-9.6046,-9.5288,-9.5003,-9.4495,-9.3768,-9.3438,-9.3243,-9.3077,-10.6486,-10.6546,-10.6834,-10.7029,-10.7304,-10.8298,-10.9159,-10.991,-11.0914,-11.1461,-11.1862,-11.2626,-11.3084,-11.3118,-11.3095,-11.3095,-11.309,-11.3035,-11.2992,-11.2969,-11.2913,-11.2897,-11.323,-11.4275,-11.5054,-11.5741,-11.6567,-11.7401,-11.7528,-11.7535,-11.7485,-11.739,-11.7463,-11.7545,-11.7436,-11.7346,-11.7232,-11.7232,-11.702,-11.7039,-11.7153,-11.7189,-11.7189,-11.7096,-11.6943,-11.6786,-11.6764,-11.6616,-11.6529,-11.6484,-11.6484,-11.637,-11.608,-11.4235,-11.3221,-11.2471,-11.0788,-10.9762,-10.9109,-10.864,-10.8254,-10.8,-10.7626,-10.7279,-10.6958,-10.6627,-10.6418,-10.6376,-10.6376,-10.6376,-10.646,-10.6627,-10.6681,-10.6217,-10.5787,-10.5425,-10.5022,-10.3685,-10.2349,-10.2161,-10.2046,-10.193,-10.1773,-10.155,-10.1255,-10.0745,-10.005,-9.9464,-9.8798,-9.8424,-9.8199,-9.7824,-9.7859,-9.7892,-9.7892,-9.7892,-9.7892,-9.7892,-9.7892,-9.7752,-9.7538,-9.721,-9.6953,-9.7211,-9.7321,-9.7093,-9.6676,-9.621,-9.5591,-9.5124,-9.4541,-9.375,-9.3532,-9.337,-9.3306,-10.6156,-10.6326,-10.6602,-10.7066,-10.7695,-10.8646,-10.9617,-11.0636,-11.1636,-11.2117,-11.2307,-11.2795,-11.3117,-11.3085,-11.3108,-11.3118,-11.3116,-11.3073,-11.3002,-11.2975,-11.2945,-11.296,-11.359,-11.4548,-11.5033,-11.5707,-11.6882,-11.7592,-11.7521,-11.7896,-11.7955,-11.7927,-11.8009,-11.8228,-11.8156,-11.7927,-11.7561,-11.76,-11.7096,-11.6943,-11.7078,-11.7077,-11.7096,-11.7039,-11.6924,-11.6825,-11.6701,-11.6594,-11.6529,-11.6439,-11.637,-11.6181,-11.5664,-11.442,-11.3307,-11.2345,-11.1076,-10.9749,-10.9194,-10.8674,-10.8255,-10.8,-10.7626,-10.7277,-10.7158,-10.6796,-10.6502,-10.646,-10.6376,-10.6376,-10.6502,-10.6632,-10.6796,-10.6629,-10.609,-10.5654,-10.4727,-10.3428,-10.2611,-10.2313,-10.2238,-10.2161,-10.2008,-10.1893,-10.1414,-10.0346,-9.9796,-9.9243,-9.8648,-9.8234,-9.8043,-9.7892,-9.7892,-9.7892,-9.7892,-9.7892,-9.7892,-9.7892,-9.7892,-9.768,-9.7392,-9.6878,-9.6621,-9.6694,-9.6543,-9.6203,-9.5855,-9.5608,-9.526,-9.4761,-9.4217,-9.3631,-9.3563,-9.3401,-9.3211,-10.5777,-10.6156,-10.6523,-10.7181,-10.8226,-10.9205,-11.0174,-11.1171,-11.2164,-11.2687,-11.2771,-11.2928,-11.3056,-11.3085,-11.3081,-11.31,-11.3115,-11.3095,-11.3061,-11.3027,-11.2989,-11.3007,-11.3537,-11.4509,-11.5305,-11.61,-11.705,-11.7409,-11.7491,-11.8004,-11.8487,-11.8724,-11.9175,-11.9644,-11.9453,-11.8952,-11.8372,-11.7947,-11.7481,-11.6977,-11.6922,-11.6904,-11.6982,-11.6924,-11.6865,-11.6764,-11.6697,-11.6611,-11.6506,-11.6393,-11.6277,-11.6033,-11.5508,-11.459,-11.3698,-11.2615,-11.133,-11.0208,-10.9424,-10.8718,-10.84,-10.8074,-10.7588,-10.7394,-10.7277,-10.7039,-10.6714,-10.6544,-10.6502,-10.6418,-10.6544,-10.6714,-10.6918,-10.6857,-10.6317,-10.5656,-10.4467,-10.3279,-10.2834,-10.2463,-10.2426,-10.2351,-10.2276,-10.2161,-10.1459,-10.0352,-9.9538,-9.8871,-9.8386,-9.8195,-9.7968,-9.7892,-9.7892,-9.7892,-9.7892,-9.7892,-9.7892,-9.7892,-9.7857,-9.7572,-9.7245,-9.6729,-9.6214,-9.5771,-9.5582,-9.5425,-9.5186,-9.4938,-9.4626,-9.4286,-9.3998,-9.3532,-9.3306,-9.3179,-9.2946,-10.551,-10.5932,-10.683,-10.7423,-10.8009,-10.9514,-11.0502,-11.1058,-11.1899,-11.2427,-11.2666,-11.2784,-11.2892,-11.31,-11.3081,-11.3085,-11.3078,-11.3103,-11.3115,-11.3086,-11.3022,-11.3015,-11.346,-11.4603,-11.6017,-11.6866,-11.7348,-11.739,-11.7655,-11.8243,-11.859,-11.8615,-11.9466,-11.9799,-11.9742,-11.93,-11.8969,-11.8504,-11.7879,-11.7369,-11.6876,-11.6823,-11.6845,-11.6804,-11.6764,-11.6701,-11.6676,-11.6551,-11.6506,-11.6416,-11.6253,-11.5983,-11.5467,-11.4773,-11.3945,-11.3108,-11.1791,-11.0812,-11.0022,-10.9124,-10.8731,-10.8255,-10.7852,-10.7625,-10.7473,-10.7279,-10.7039,-10.6837,-10.6714,-10.6502,-10.6585,-10.6837,-10.7002,-10.6717,-10.6245,-10.5358,-10.4319,-10.3427,-10.2796,-10.2685,-10.2685,-10.2575,-10.2463,-10.2241,-10.1981,-10.0944,-10.0167,-9.9498,-9.8789,-9.8377,-9.7892,-9.7892,-9.7926,-9.7892,-9.7892,-9.7892,-9.7892,-9.7892,-9.7746,-9.7311,-9.6908,-9.6577,-9.606,-9.5215,-9.4952,-9.483,-9.4622,-9.4169,-9.404,-9.377,-9.3705,-9.3438,-9.3179,-9.2881,-9.268]},{"header":{"parameterUnit":"m.s-1","parameterCategory":1,"la1":31.0,"la2":29.5877,"lo1":-88.7671,"lo2":-86.6584,"dx":0.0162,"dy":0.0185,"nx":115,"ny":88,"refTime":"2022-11-14T06:00:00:Z","depth":0,"parameterNumber":3,"parameterNumberName":"V-component_of_WINDS"},"data":[0.0,0.0,0.0,0.0,0.0,0.0,0.0,0.0,0.0,0.0,0.0,0.0,0.0,0.0,0.0,0.0,0.0,0.0,0.0,0.0,0.0,0.0,0.0,0.0,0.0,0.0,0.0,0.0,0.0,0.0,0.0,0.0,0.0,0.0,0.0,0.0,0.0,0.0,0.0,0.0,0.0,0.0,0.0,0.0,0.0,0.0,0.0,0.0,0.0,0.0,0.0,0.0,0.0,0.0,0.0,0.0,0.0,0.0,0.0,0.0,0.0,0.0,0.0,0.0,0.0,0.0,0.0,0.0,0.0,0.0,0.0,0.0,0.0,0.0,0.0,0.0,0.0,0.0,0.0,0.0,0.0,0.0,0.0,0.0,0.0,0.0,0.0,0.0,0.0,0.0,0.0,0.0,0.0,0.0,0.0,0.0,0.0,0.0,0.0,0.0,0.0,0.0,0.0,0.0,0.0,0.0,0.0,0.0,0.0,0.0,0.0,0.0,0.0,0.0,0.0,0.0,0.0,0.0,0.0,0.0,0.0,0.0,0.0,0.0,0.0,0.0,0.0,0.0,0.0,0.0,0.0,0.0,0.0,0.0,0.0,0.0,0.0,0.0,0.0,0.0,0.0,0.0,0.0,0.0,0.0,0.0,0.0,0.0,0.0,0.0,0.0,0.0,0.0,0.0,0.0,0.0,0.0,0.0,0.0,0.0,0.0,0.0,0.0,0.0,0.0,0.0,0.0,0.0,0.0,0.0,0.0,0.0,0.0,0.0,0.0,0.0,0.0,0.0,0.0,0.0,0.0,0.0,0.0,0.0,0.0,0.0,0.0,0.0,0.0,0.0,0.0,0.0,0.0,0.0,0.0,0.0,0.0,0.0,0.0,0.0,0.0,0.0,0.0,0.0,0.0,0.0,0.0,0.0,0.0,0.0,0.0,0.0,0.0,0.0,0.0,0.0,0.0,0.0,0.0,0.0,0.0,0.0,0.0,0.0,0.0,0.0,0.0,0.0,0.0,0.0,0.0,0.0,0.0,0.0,0.0,0.0,0.0,0.0,0.0,0.0,0.0,0.0,0.0,0.0,0.0,0.0,0.0,0.0,0.0,0.0,0.0,0.0,0.0,0.0,0.0,0.0,0.0,0.0,0.0,0.0,0.0,0.0,0.0,0.0,0.0,0.0,0.0,0.0,0.0,0.0,0.0,0.0,0.0,0.0,0.0,0.0,0.0,0.0,0.0,0.0,0.0,0.0,0.0,0.0,0.0,0.0,0.0,0.0,0.0,0.0,0.0,0.0,0.0,0.0,0.0,0.0,0.0,0.0,0.0,0.0,0.0,0.0,0.0,0.0,0.0,0.0,0.0,0.0,0.0,0.0,0.0,0.0,0.0,0.0,0.0,0.0,0.0,0.0,0.0,0.0,0.0,0.0,0.0,0.0,0.0,0.0,0.0,0.0,0.0,0.0,0.0,0.0,0.0,0.0,0.0,0.0,0.0,0.0,0.0,0.0,0.0,0.0,0.0,0.0,0.0,0.0,0.0,0.0,0.0,0.0,0.0,0.0,0.0,0.0,0.0,0.0,0.0,0.0,0.0,0.0,0.0,0.0,0.0,0.0,0.0,0.0,0.0,0.0,0.0,0.0,0.0,0.0,0.0,0.0,0.0,0.0,0.0,0.0,0.0,0.0,0.0,0.0,0.0,0.0,0.0,0.0,0.0,0.0,0.0,0.0,0.0,0.0,0.0,0.0,0.0,0.0,0.0,0.0,0.0,0.0,0.0,0.0,0.0,0.0,0.0,0.0,0.0,0.0,0.0,0.0,0.0,0.0,0.0,0.0,0.0,0.0,0.0,0.0,0.0,0.0,0.0,0.0,0.0,0.0,0.0,0.0,0.0,0.0,0.0,0.0,0.0,0.0,0.0,0.0,0.0,0.0,0.0,0.0,0.0,0.0,0.0,0.0,0.0,0.0,0.0,0.0,0.0,0.0,0.0,0.0,0.0,0.0,0.0,0.0,0.0,0.0,0.0,0.0,0.0,0.0,0.0,0.0,0.0,0.0,0.0,0.0,0.0,0.0,0.0,0.0,0.0,0.0,0.0,0.0,0.0,0.0,0.0,0.0,0.0,0.0,0.0,0.0,0.0,0.0,0.0,0.0,0.0,0.0,0.0,0.0,0.0,0.0,0.0,0.0,0.0,0.0,0.0,0.0,0.0,0.0,0.0,0.0,0.0,0.0,0.0,0.0,0.0,0.0,0.0,0.0,0.0,0.0,0.0,0.0,0.0,0.0,0.0,0.0,0.0,0.0,0.0,0.0,0.0,0.0,0.0,0.0,0.0,0.0,0.0,0.0,0.0,0.0,0.0,0.0,0.0,0.0,0.0,0.0,0.0,0.0,0.0,0.0,0.0,0.0,0.0,0.0,0.0,0.0,0.0,0.0,0.0,0.0,0.0,0.0,0.0,0.0,0.0,0.0,0.0,0.0,0.0,0.0,0.0,0.0,0.0,0.0,0.0,0.0,0.0,0.0,0.0,0.0,0.0,0.0,0.0,0.0,0.0,0.0,0.0,0.0,0.0,0.0,0.0,0.0,0.0,0.0,0.0,0.0,0.0,0.0,0.0,0.0,0.0,0.0,0.0,0.0,0.0,0.0,0.0,0.0,0.0,0.0,0.0,0.0,0.0,0.0,0.0,0.0,0.0,0.0,0.0,0.0,0.0,0.0,0.0,0.0,0.0,0.0,0.0,0.0,0.0,0.0,0.0,0.0,0.0,0.0,0.0,0.0,0.0,0.0,0.0,0.0,0.0,0.0,0.0,0.0,0.0,0.0,0.0,0.0,0.0,0.0,0.0,0.0,0.0,0.0,0.0,0.0,0.0,0.0,0.0,0.0,0.0,0.0,0.0,0.0,0.0,0.0,0.0,0.0,0.0,0.0,0.0,0.0,0.0,0.0,0.0,0.0,0.0,0.0,0.0,0.0,0.0,0.0,0.0,0.0,0.0,0.0,0.0,0.0,0.0,0.0,0.0,0.0,0.0,0.0,0.0,0.0,0.0,0.0,0.0,0.0,0.0,0.0,0.0,0.0,0.0,0.0,0.0,0.0,0.0,0.0,0.0,0.0,0.0,0.0,0.0,0.0,0.0,0.0,0.0,0.0,0.0,0.0,0.0,0.0,0.0,0.0,0.0,0.0,0.0,0.0,0.0,0.0,0.0,0.0,0.0,0.0,0.0,0.0,0.0,0.0,0.0,0.0,0.0,0.0,0.0,0.0,0.0,0.0,0.0,0.0,0.0,0.0,0.0,0.0,0.0,0.0,0.0,0.0,0.0,0.0,0.0,0.0,0.0,0.0,0.0,0.0,0.0,0.0,0.0,0.0,0.0,0.0,0.0,0.0,0.0,0.0,0.0,0.0,0.0,0.0,0.0,0.0,0.0,0.0,0.0,0.0,0.0,0.0,0.0,0.0,0.0,0.0,0.0,0.0,0.0,0.0,0.0,0.0,0.0,0.0,0.0,0.0,0.0,0.0,0.0,0.0,0.0,0.0,0.0,0.0,0.0,0.0,0.0,0.0,0.0,0.0,0.0,0.0,0.0,0.0,0.0,0.0,0.0,0.0,0.0,0.0,0.0,0.0,0.0,0.0,0.0,0.0,0.0,0.0,0.0,0.0,0.0,0.0,0.0,0.0,0.0,0.0,0.0,0.0,0.0,0.0,0.0,0.0,0.0,0.0,0.0,0.0,0.0,0.0,0.0,0.0,0.0,0.0,0.0,0.0,0.0,0.0,0.0,0.0,0.0,0.0,0.0,0.0,0.0,0.0,0.0,0.0,0.0,0.0,0.0,0.0,0.0,0.0,0.0,0.0,0.0,0.0,0.0,0.0,0.0,0.0,0.0,0.0,0.0,0.0,0.0,0.0,0.0,0.0,0.0,0.0,0.0,0.0,0.0,0.0,0.0,0.0,0.0,0.0,0.0,0.0,0.0,0.0,0.0,0.0,0.0,0.0,0.0,0.0,0.0,0.0,0.0,0.0,0.0,0.0,0.0,0.0,0.0,0.0,0.0,0.0,0.0,0.0,0.0,0.0,0.0,0.0,0.0,0.0,0.0,0.0,0.0,0.0,0.0,0.0,0.0,0.0,0.0,0.0,0.0,0.0,0.0,0.0,0.0,0.0,0.0,0.0,0.0,0.0,0.0,0.0,0.0,0.0,0.0,0.0,0.0,0.0,0.0,0.0,0.0,0.0,0.0,0.0,0.0,0.0,2.032,0.0,0.0,0.0,2.1782,0.0,0.0,0.0,0.0,0.0,0.0,0.0,0.0,0.0,0.0,0.0,0.0,0.0,0.0,0.0,0.0,0.0,0.0,0.0,0.0,0.0,0.0,0.0,0.0,0.0,0.0,0.0,0.0,0.0,0.0,0.0,0.0,0.0,0.0,0.0,0.0,0.0,0.0,0.0,0.0,0.0,0.0,0.0,0.0,0.0,0.0,0.0,0.0,0.0,0.0,0.0,0.0,0.0,0.0,0.0,0.0,0.0,0.0,0.0,0.0,0.0,0.0,0.0,0.0,0.0,0.0,0.0,0.0,0.0,0.0,0.0,0.0,0.0,0.0,0.0,0.0,0.0,0.0,0.0,0.0,0.0,0.0,0.0,0.0,0.0,0.0,0.0,0.0,0.0,0.0,0.0,0.0,0.0,0.0,0.0,0.0,0.0,0.0,0.0,0.0,0.0,0.0,0.0,0.0,0.0,0.0,0.0,0.0,0.0,0.0,2.056,2.1075,2.1346,2.169,2.2195,0.0,0.0,0.0,0.0,0.0,0.0,0.0,0.0,0.0,0.0,0.0,0.0,0.0,0.0,0.0,0.0,0.0,0.0,0.0,0.0,0.0,0.0,0.0,0.0,0.0,0.0,0.0,0.0,0.0,0.0,0.0,0.0,0.0,0.0,0.0,0.0,0.0,0.0,0.0,0.0,0.0,0.0,0.0,0.0,0.0,0.0,0.0,0.0,0.0,0.0,0.0,0.0,0.0,0.0,0.0,0.0,0.0,0.0,0.0,0.0,0.0,0.0,0.0,0.0,0.0,0.0,0.0,0.0,0.0,0.0,0.0,0.0,0.0,0.0,0.0,0.0,0.0,0.0,0.0,0.0,0.0,0.0,0.0,0.0,0.0,0.0,0.0,0.0,0.0,0.0,0.0,0.0,0.0,0.0,0.0,0.0,0.0,0.0,0.0,0.0,0.0,0.0,0.0,0.0,0.0,0.0,0.0,0.0,0.0,0.0,0.0,0.0,2.2151,2.2389,2.2525,0.0,0.0,0.0,0.0,0.0,0.0,0.0,0.0,0.0,0.0,0.0,0.0,0.0,0.0,0.0,0.0,0.0,0.0,0.0,0.0,0.0,0.0,0.0,0.0,0.0,0.0,0.0,0.0,0.0,0.0,0.0,0.0,0.0,0.0,0.0,0.0,0.0,0.0,0.0,0.0,0.0,0.0,0.0,0.0,0.0,0.0,0.0,0.0,0.0,0.0,0.0,0.0,0.0,0.0,0.0,0.0,0.0,0.0,0.0,0.0,0.0,0.0,0.0,0.0,0.0,0.0,0.0,0.0,0.0,0.0,0.0,0.0,0.0,0.0,0.0,0.0,0.0,0.0,0.0,0.0,0.0,0.0,0.0,0.0,0.0,0.0,0.0,0.0,0.0,0.0,0.0,0.0,0.0,0.0,0.0,0.0,0.0,0.0,0.0,0.0,0.0,0.0,0.0,0.0,0.0,0.0,0.0,0.0,0.0,0.0,2.1618,2.1872,2.2837,0.0,2.2943,0.0,0.0,0.0,0.0,0.0,0.0,0.0,0.0,0.0,0.0,0.0,0.0,0.0,0.0,0.0,0.0,0.0,0.0,0.0,0.0,0.0,0.0,0.0,0.0,0.0,0.0,0.0,0.0,0.0,0.0,0.0,0.0,0.0,0.0,0.0,0.0,0.0,0.0,0.0,0.0,0.0,0.0,0.0,0.0,0.0,0.0,0.0,0.0,0.0,0.0,0.0,0.0,0.0,0.0,0.0,0.0,0.0,0.0,0.0,0.0,0.0,0.0,0.0,0.0,0.0,0.0,0.0,0.0,0.0,0.0,0.0,0.0,0.0,0.0,0.0,0.0,0.0,0.0,0.0,0.0,0.0,0.0,0.0,0.0,0.0,0.0,0.0,0.0,0.0,0.0,0.0,0.0,0.0,0.0,0.0,0.0,0.0,0.0,0.0,0.0,0.0,0.0,0.0,0.0,0.0,0.0,0.0,0.0,0.0,0.0,2.2181,2.3287,2.4037,2.4249,0.0,0.0,0.0,0.0,0.0,0.0,0.0,0.0,0.0,0.0,0.0,0.0,0.0,0.0,0.0,0.0,0.0,0.0,0.0,0.0,0.0,0.0,0.0,0.0,0.0,0.0,0.0,0.0,0.0,0.0,0.0,0.0,0.0,0.0,0.0,0.0,0.0,0.0,0.0,0.0,0.0,0.0,0.0,0.0,0.0,0.0,0.0,0.0,0.0,0.0,0.0,0.0,0.0,0.0,0.0,0.0,0.0,0.0,0.0,0.0,0.0,0.0,0.0,0.0,0.0,0.0,0.0,0.0,0.0,0.0,0.0,0.0,0.0,0.0,0.0,0.0,0.0,0.0,0.0,0.0,0.0,0.0,0.0,0.0,0.0,0.0,0.0,0.0,0.0,0.0,0.0,0.0,0.0,0.0,0.0,0.0,0.0,0.0,0.0,0.0,0.0,0.0,0.0,0.0,0.0,0.0,0.0,0.0,0.0,0.0,2.1954,2.3102,2.4687,2.5183,2.513,2.4451,0.0,0.0,0.0,0.0,0.0,0.0,0.0,0.0,0.0,0.0,0.0,0.0,0.0,0.0,0.0,0.0,0.0,0.0,0.0,0.0,0.0,0.0,0.0,0.0,0.0,0.0,0.0,0.0,0.0,0.0,0.0,0.0,0.0,0.0,0.0,0.0,0.0,0.0,0.0,0.0,0.0,0.0,0.0,0.0,0.0,0.0,0.0,0.0,0.0,0.0,0.0,0.0,0.0,0.0,0.0,0.0,0.0,0.0,0.0,0.0,0.0,0.0,0.0,0.0,0.0,0.0,0.0,0.0,0.0,0.0,0.0,0.0,0.0,0.0,0.0,0.0,0.0,0.0,0.0,0.0,0.0,0.0,0.0,0.0,0.0,0.0,0.0,0.0,0.0,0.0,0.0,0.0,0.0,0.0,0.0,0.0,0.0,0.0,0.0,0.0,0.0,0.0,0.0,0.0,0.0,0.0,0.0,0.0,2.1445,2.2991,2.4502,2.5855,2.6122,2.5698,0.0,0.0,0.0,0.0,0.0,0.0,0.0,0.0,0.0,0.0,0.0,0.0,0.0,0.0,0.0,0.0,0.0,0.0,0.0,0.0,0.0,0.0,0.0,0.0,0.0,0.0,0.0,0.0,0.0,0.0,0.0,0.0,0.0,0.0,0.0,0.0,0.0,0.0,0.0,0.0,0.0,0.0,0.0,0.0,0.0,0.0,0.0,0.0,0.0,0.0,0.0,0.0,0.0,0.0,0.0,0.0,0.0,0.0,0.0,0.0,0.0,0.0,0.0,0.0,0.0,0.0,0.0,0.0,0.0,0.0,0.0,0.0,0.0,0.0,0.0,0.0,0.0,0.0,0.0,0.0,0.0,0.0,0.0,0.0,0.0,0.0,0.0,0.0,0.0,0.0,0.0,0.0,0.0,0.0,0.0,0.0,0.0,0.0,0.0,0.0,0.0,0.0,0.0,0.0,0.0,0.0,0.0,0.0,0.0,2.2811,2.4684,2.6029,2.6741,2.6975,2.6302,0.0,0.0,0.0,0.0,0.0,0.0,0.0,0.0,0.0,0.0,0.0,0.0,0.0,0.0,0.0,0.0,0.0,0.0,0.0,0.0,0.0,0.0,0.0,0.0,0.0,0.0,0.0,0.0,0.0,0.0,0.0,0.0,0.0,0.0,0.0,0.0,0.0,0.0,0.0,0.0,0.0,0.0,0.0,0.0,0.0,0.0,0.0,0.0,0.0,0.0,0.0,0.0,0.0,0.0,0.0,0.0,0.0,0.0,0.0,0.0,0.0,0.0,0.0,0.0,0.0,0.0,0.0,0.0,0.0,0.0,0.0,0.0,0.0,0.0,0.0,0.0,0.0,0.0,0.0,0.0,0.0,0.0,0.0,0.0,0.0,0.0,0.0,0.0,0.0,0.0,0.0,0.0,0.0,0.0,0.0,0.0,0.0,0.0,0.0,0.0,0.0,0.0,0.0,0.0,0.0,0.0,0.0,0.0,0.0,2.4704,2.6459,2.7552,2.7869,2.7877,2.7042,0.0,0.0,0.0,0.0,0.0,0.0,0.0,0.0,0.0,0.0,0.0,0.0,0.0,0.0,0.0,0.0,0.0,0.0,0.0,0.0,0.0,0.0,0.0,0.0,0.0,0.0,0.0,0.0,0.0,0.0,0.0,0.0,0.0,0.0,0.0,0.0,0.0,0.0,0.0,0.0,0.0,0.0,0.0,0.0,0.0,0.0,0.0,0.0,0.0,0.0,0.0,0.0,0.0,0.0,0.0,0.0,0.0,0.0,0.0,0.0,0.0,0.0,0.0,0.0,0.0,0.0,0.0,0.0,0.0,0.0,0.0,0.0,0.0,0.0,0.0,0.0,0.0,0.0,0.0,0.0,0.0,0.0,0.0,0.0,0.0,0.0,0.0,0.0,0.0,0.0,0.0,0.0,0.0,0.0,0.0,0.0,0.0,0.0,0.0,0.0,0.0,0.0,0.0,0.0,0.0,0.0,0.0,0.0,2.3793,2.6999,2.8276,2.9118,2.943,2.8996,2.8083,0.0,0.0,0.0,0.0,0.0,0.0,0.0,0.0,0.0,0.0,0.0,0.0,0.0,0.0,0.0,0.0,0.0,0.0,0.0,0.0,0.0,0.0,0.0,0.0,0.0,0.0,0.0,0.0,0.0,0.0,0.0,0.0,0.0,0.0,0.0,0.0,0.0,0.0,0.0,0.0,0.0,0.0,0.0,0.0,0.0,0.0,0.0,0.0,0.0,0.0,0.0,0.0,0.0,0.0,0.0,0.0,0.0,0.0,0.0,0.0,0.0,0.0,0.0,0.0,0.0,0.0,0.0,0.0,0.0,0.0,0.0,0.0,0.0,0.0,0.0,0.0,0.0,0.0,0.0,0.0,0.0,0.0,0.0,0.0,0.0,0.0,0.0,0.0,0.0,0.0,0.0,0.0,0.0,0.0,0.0,0.0,0.0,0.0,0.0,0.0,0.0,0.0,0.0,0.0,0.0,0.0,0.0,0.0,0.0,2.9512,3.1157,3.1956,3.1788,3.1286,2.9926,0.0,0.0,0.0,0.0,0.0,0.0,0.0,0.0,0.0,0.0,0.0,0.0,0.0,0.0,0.0,0.0,0.0,0.0,0.0,0.0,0.0,0.0,0.0,0.0,0.0,0.0,0.0,0.0,0.0,0.0,0.0,0.0,0.0,0.0,0.0,0.0,0.0,0.0,0.0,0.0,0.0,0.0,0.0,0.0,0.0,0.0,0.0,0.0,0.0,0.0,0.0,0.0,0.0,0.0,0.0,0.0,0.0,0.0,0.0,0.0,0.0,0.0,0.0,0.0,0.0,0.0,0.0,0.0,0.0,0.0,0.0,0.0,0.0,0.0,0.0,0.0,0.0,0.0,0.0,0.0,0.0,0.0,0.0,0.0,0.0,0.0,0.0,0.0,0.0,0.0,0.0,0.0,0.0,0.0,0.0,0.0,0.0,0.0,0.0,0.0,0.0,0.0,0.0,0.0,0.0,0.0,0.0,0.0,0.0,3.3885,3.4658,3.5029,3.4948,3.3829,3.2244,3.0097,0.0,0.0,0.0,0.0,0.0,0.0,0.0,0.0,0.0,0.0,0.0,0.0,0.0,0.0,0.0,0.0,0.0,0.0,0.0,0.0,0.0,0.0,0.0,0.0,0.0,0.0,0.0,0.0,0.0,0.0,0.0,0.0,0.0,0.0,0.0,0.0,0.0,0.0,0.0,0.0,0.0,0.0,0.0,0.0,0.0,0.0,0.0,0.0,0.0,0.0,0.0,0.0,0.0,0.0,0.0,0.0,0.0,0.0,0.0,0.0,0.0,0.0,0.0,0.0,0.0,0.0,0.0,0.0,0.0,0.0,0.0,0.0,0.0,0.0,0.0,0.0,0.0,0.0,0.0,0.0,0.0,0.0,0.0,0.0,0.0,0.0,0.0,0.0,0.0,0.0,0.0,0.0,0.0,0.0,0.0,0.0,0.0,0.0,0.0,0.0,0.0,0.0,0.0,0.0,0.0,0.0,0.0,0.0,3.9726,3.8632,3.8208,3.8535,3.6567,3.4824,0.0,0.0,0.0,0.0,0.0,0.0,0.0,0.0,0.0,0.0,0.0,0.0,0.0,0.0,0.0,0.0,0.0,0.0,0.0,0.0,0.0,0.0,0.0,0.0,0.0,0.0,0.0,0.0,0.0,0.0,0.0,0.0,0.0,0.0,0.0,0.0,0.0,0.0,0.0,0.0,0.0,0.0,0.0,0.0,0.0,0.0,0.0,0.0,0.0,0.0,0.0,0.0,0.0,0.0,0.0,0.0,0.0,0.0,0.0,0.0,0.0,0.0,0.0,0.0,0.0,0.0,0.0,0.0,0.0,0.0,0.0,0.0,0.0,0.0,0.0,0.0,0.0,0.0,0.0,0.0,0.0,0.0,0.0,0.0,0.0,0.0,0.0,0.0,0.0,0.0,0.0,0.0,0.0,0.0,0.0,0.0,0.0,0.0,0.0,0.0,0.0,0.0,0.0,0.0,0.0,0.0,0.0,0.0,0.0,4.2608,4.3121,4.2532,4.1003,3.9402,3.7201,0.0,0.0,0.0,0.0,0.0,0.0,0.0,0.0,0.0,0.0,0.0,0.0,0.0,0.0,0.0,0.0,0.0,0.0,0.0,0.0,0.0,0.0,0.0,0.0,0.0,0.0,0.0,0.0,0.0,0.0,0.0,0.0,0.0,0.0,0.0,0.0,0.0,0.0,0.0,0.0,0.0,0.0,0.0,0.0,0.0,0.0,0.0,0.0,0.0,0.0,0.0,0.0,0.0,0.0,0.0,0.0,0.0,0.0,0.0,0.0,0.0,0.0,0.0,0.0,0.0,0.0,0.0,0.0,0.0,0.0,0.0,0.0,0.0,0.0,0.0,0.0,0.0,0.0,0.0,0.0,0.0,0.0,0.0,0.0,0.0,0.0,0.0,0.0,0.0,0.0,0.0,0.0,0.0,0.0,0.0,0.0,0.0,0.0,0.0,0.0,0.0,0.0,0.0,0.0,0.0,0.0,0.0,0.0,4.1143,4.5114,4.6192,4.6022,4.4704,4.2384,3.9799,0.0,0.0,0.0,0.0,0.0,0.0,0.0,0.0,0.0,0.0,0.0,0.0,0.0,0.0,0.0,0.0,0.0,0.0,0.0,0.0,0.0,0.0,0.0,0.0,0.0,0.0,0.0,0.0,0.0,0.0,0.0,0.0,0.0,0.0,0.0,0.0,0.0,0.0,0.0,0.0,0.0,0.0,0.0,0.0,0.0,0.0,0.0,0.0,0.0,0.0,0.0,0.0,0.0,0.0,0.0,0.0,0.0,0.0,0.0,0.0,0.0,0.0,0.0,0.0,0.0,0.0,0.0,0.0,0.0,0.0,0.0,0.0,0.0,0.0,0.0,0.0,0.0,0.0,0.0,0.0,0.0,0.0,0.0,0.0,0.0,0.0,0.0,0.0,0.0,0.0,0.0,0.0,0.0,0.0,0.0,0.0,0.0,0.0,0.0,0.0,0.0,0.0,0.0,0.0,0.0,0.0,0.0,0.0,4.3234,4.7056,4.8117,4.8693,4.879,4.5343,4.2433,0.0,0.0,0.0,0.0,0.0,0.0,0.0,0.0,0.0,0.0,0.0,0.0,0.0,0.0,0.0,0.0,0.0,0.0,0.0,0.0,0.0,0.0,0.0,0.0,0.0,0.0,0.0,0.0,0.0,0.0,0.0,0.0,0.0,0.0,0.0,0.0,0.0,0.0,0.0,0.0,0.0,0.0,0.0,0.0,0.0,0.0,0.0,0.0,0.0,0.0,0.0,0.0,0.0,0.0,0.0,0.0,0.0,0.0,0.0,0.0,0.0,0.0,0.0,0.0,0.0,0.0,0.0,0.0,0.0,0.0,0.0,0.0,0.0,0.0,0.0,0.0,0.0,0.0,0.0,0.0,0.0,0.0,0.0,0.0,0.0,0.0,0.0,0.0,0.0,0.0,0.0,0.0,0.0,0.0,0.0,0.0,0.0,0.0,0.0,0.0,0.0,0.0,0.0,0.0,0.0,0.0,0.0,0.0,4.4715,4.8515,4.9129,5.0039,5.145,4.8225,4.4774,0.0,0.0,0.0,0.0,0.0,0.0,0.0,0.0,0.0,0.0,0.0,0.0,0.0,0.0,0.0,0.0,0.0,0.0,0.0,0.0,0.0,0.0,0.0,0.0,0.0,0.0,0.0,0.0,0.0,0.0,0.0,0.0,0.0,0.0,0.0,0.0,0.0,0.0,0.0,0.0,0.0,0.0,0.0,0.0,0.0,0.0,0.0,0.0,3.2586,0.0,0.0,0.0,0.0,0.0,0.0,0.0,0.0,0.0,0.0,0.0,0.0,0.0,0.0,0.0,0.0,0.0,0.0,0.0,0.0,0.0,0.0,0.0,0.0,0.0,0.0,0.0,0.0,0.0,0.0,0.0,0.0,0.0,0.0,0.0,0.0,0.0,0.0,0.0,0.0,0.0,0.0,0.0,0.0,0.0,0.0,0.0,0.0,0.0,0.0,0.0,0.0,0.0,0.0,0.0,0.0,0.0,0.0,0.0,4.6346,4.9826,5.083,5.1627,5.2203,5.0392,4.7306,0.0,0.0,0.0,0.0,0.0,0.0,0.0,0.0,0.0,0.0,0.0,0.0,0.0,0.0,0.0,0.0,0.0,0.0,0.0,0.0,0.0,0.0,0.0,0.0,0.0,0.0,0.0,0.0,0.0,0.0,0.0,0.0,0.0,0.0,0.0,0.0,0.0,0.0,0.0,0.0,0.0,0.0,0.0,0.0,0.0,0.0,0.0,0.0,0.0,0.0,0.0,0.0,0.0,0.0,0.0,0.0,0.0,0.0,0.0,0.0,0.0,0.0,0.0,0.0,0.0,0.0,0.0,0.0,0.0,0.0,0.0,0.0,0.0,0.0,0.0,0.0,0.0,0.0,0.0,0.0,0.0,0.0,0.0,0.0,0.0,0.0,0.0,0.0,0.0,0.0,0.0,0.0,0.0,0.0,0.0,0.0,0.0,0.0,0.0,0.0,0.0,0.0,0.0,0.0,0.0,0.0,0.0,4.4236,4.7781,5.0813,5.2391,5.3018,5.2617,5.1943,4.9492,4.5058,0.0,0.0,0.0,0.0,0.0,0.0,0.0,0.0,0.0,0.0,0.0,0.0,0.0,0.0,0.0,0.0,0.0,0.0,0.0,0.0,0.0,0.0,0.0,0.0,0.0,0.0,0.0,0.0,0.0,0.0,0.0,0.0,0.0,0.0,0.0,0.0,0.0,0.0,3.0069,3.3567,0.0,0.0,0.0,0.0,0.0,0.0,0.0,0.0,4.0199,0.0,0.0,0.0,0.0,0.0,0.0,0.0,0.0,0.0,0.0,0.0,0.0,0.0,0.0,0.0,0.0,0.0,0.0,0.0,0.0,0.0,0.0,0.0,0.0,0.0,0.0,0.0,0.0,0.0,0.0,0.0,0.0,0.0,0.0,0.0,0.0,0.0,0.0,0.0,0.0,0.0,0.0,0.0,0.0,0.0,0.0,0.0,0.0,0.0,0.0,0.0,0.0,0.0,0.0,0.0,0.0,4.1404,4.5273,4.8495,5.0953,5.2101,5.3117,5.3915,5.2618,5.0285,4.6848,0.0,0.0,0.0,0.0,0.0,0.0,0.0,0.0,0.0,0.0,0.0,0.0,0.0,0.0,0.0,0.0,0.0,0.0,0.0,0.0,0.0,0.0,0.0,0.0,0.0,0.0,0.0,0.0,0.0,0.0,0.0,0.0,0.0,0.0,0.0,0.0,0.0,0.0,0.0,3.7878,4.0327,0.0,0.0,0.0,0.0,0.0,0.0,0.0,0.0,4.3473,0.0,0.0,0.0,0.0,0.0,0.0,0.0,0.0,0.0,0.0,0.0,0.0,0.0,0.0,0.0,0.0,0.0,0.0,0.0,0.0,0.0,0.0,0.0,0.0,0.0,0.0,0.0,0.0,0.0,0.0,0.0,0.0,0.0,0.0,0.0,0.0,0.0,0.0,0.0,0.0,0.0,0.0,0.0,0.0,0.0,0.0,0.0,0.0,0.0,0.0,0.0,0.0,0.0,0.0,0.0,4.2859,4.6624,4.9667,5.1945,5.3341,5.4115,5.4287,5.3142,5.0775,0.0,0.0,0.0,0.0,0.0,0.0,0.0,0.0,0.0,0.0,0.0,0.0,0.0,0.0,0.0,0.0,0.0,0.0,0.0,0.0,0.0,0.0,0.0,0.0,0.0,0.0,0.0,0.0,0.0,0.0,0.0,0.0,0.0,0.0,0.0,0.0,0.0,0.0,0.0,0.0,4.0285,4.2693,4.322,0.0,0.0,0.0,0.0,0.0,0.0,4.7885,4.7242,0.0,0.0,0.0,0.0,0.0,0.0,0.0,0.0,0.0,0.0,0.0,0.0,0.0,0.0,0.0,0.0,0.0,0.0,0.0,0.0,0.0,0.0,0.0,0.0,0.0,0.0,0.0,0.0,0.0,0.0,0.0,0.0,0.0,0.0,0.0,0.0,0.0,0.0,0.0,0.0,0.0,0.0,0.0,0.0,0.0,0.0,0.0,0.0,0.0,0.0,0.0,0.0,0.0,0.0,0.0,4.4112,4.7671,5.0572,5.2729,5.4297,5.4875,5.4439,5.3506,5.1048,0.0,0.0,0.0,0.0,0.0,0.0,0.0,0.0,0.0,0.0,0.0,0.0,0.0,0.0,0.0,0.0,0.0,0.0,0.0,0.0,0.0,0.0,0.0,0.0,0.0,0.0,0.0,0.0,0.0,0.0,0.0,0.0,0.0,0.0,0.0,0.0,0.0,0.0,0.0,0.0,0.0,4.4694,4.652,4.7949,0.0,0.0,0.0,0.0,5.247,5.2176,0.0,0.0,0.0,0.0,0.0,0.0,0.0,0.0,0.0,0.0,0.0,0.0,0.0,0.0,0.0,0.0,0.0,0.0,0.0,0.0,0.0,0.0,0.0,0.0,0.0,0.0,0.0,0.0,0.0,0.0,0.0,0.0,0.0,0.0,0.0,0.0,0.0,0.0,0.0,0.0,0.0,0.0,0.0,0.0,0.0,0.0,0.0,0.0,0.0,0.0,0.0,0.0,0.0,0.0,0.0,0.0,4.4625,4.7873,5.0442,5.2389,5.352,5.4326,5.476,5.3427,5.1,0.0,0.0,0.0,0.0,0.0,0.0,0.0,0.0,0.0,0.0,0.0,0.0,0.0,0.0,0.0,0.0,0.0,0.0,0.0,0.0,0.0,0.0,0.0,0.0,0.0,0.0,0.0,0.0,0.0,0.0,0.0,0.0,0.0,0.0,0.0,0.0,0.0,0.0,0.0,0.0,0.0,4.7601,4.9525,5.1865,5.3626,0.0,0.0,5.5182,5.5328,5.5047,0.0,0.0,0.0,0.0,0.0,0.0,0.0,0.0,0.0,0.0,0.0,0.0,0.0,0.0,0.0,0.0,0.0,0.0,0.0,0.0,0.0,0.0,0.0,0.0,0.0,0.0,0.0,0.0,0.0,0.0,0.0,0.0,0.0,0.0,0.0,0.0,0.0,0.0,0.0,0.0,0.0,0.0,0.0,0.0,0.0,0.0,0.0,0.0,0.0,0.0,0.0,0.0,0.0,0.0,0.0,4.1893,4.5789,4.9127,5.1541,5.2977,5.4446,5.508,5.4715,5.3928,5.1642,0.0,0.0,0.0,0.0,0.0,0.0,0.0,0.0,0.0,0.0,0.0,0.0,0.0,0.0,0.0,0.0,0.0,0.0,0.0,0.0,0.0,0.0,0.0,0.0,0.0,0.0,0.0,0.0,0.0,0.0,0.0,0.0,0.0,0.0,0.0,0.0,0.0,0.0,0.0,0.0,0.0,0.0,5.2586,5.532,0.0,0.0,0.0,5.9534,5.9772,0.0,0.0,0.0,0.0,0.0,0.0,0.0,0.0,0.0,0.0,0.0,0.0,0.0,0.0,0.0,0.0,0.0,0.0,0.0,0.0,0.0,0.0,0.0,0.0,0.0,0.0,0.0,0.0,0.0,0.0,0.0,0.0,0.0,0.0,0.0,0.0,0.0,0.0,0.0,0.0,0.0,0.0,0.0,0.0,0.0,0.0,0.0,0.0,0.0,0.0,0.0,0.0,0.0,0.0,0.0,0.0,0.0,4.6963,5.0029,5.2127,5.3304,5.4914,5.5435,5.4671,5.4132,0.0,0.0,0.0,0.0,0.0,0.0,0.0,0.0,0.0,0.0,0.0,0.0,0.0,0.0,0.0,0.0,0.0,0.0,0.0,0.0,0.0,0.0,0.0,0.0,0.0,0.0,0.0,2.8073,0.0,0.0,0.0,0.0,0.0,0.0,0.0,0.0,0.0,0.0,0.0,0.0,0.0,0.0,5.0862,5.5366,5.8219,6.036,0.0,0.0,6.3188,6.3484,6.1772,5.9608,0.0,0.0,0.0,0.0,0.0,0.0,0.0,0.0,0.0,0.0,0.0,0.0,0.0,0.0,0.0,0.0,0.0,0.0,0.0,0.0,0.0,0.0,0.0,0.0,0.0,0.0,0.0,0.0,0.0,0.0,0.0,0.0,0.0,0.0,0.0,0.0,0.0,0.0,0.0,0.0,0.0,0.0,0.0,0.0,0.0,0.0,0.0,0.0,0.0,0.0,0.0,0.0,0.0,0.0,4.3868,4.7817,4.9724,5.1522,5.3098,5.4084,5.4646,5.4777,5.3779,5.2002,0.0,0.0,0.0,0.0,0.0,0.0,0.0,0.0,0.0,0.0,0.0,0.0,0.0,0.0,0.0,0.0,0.0,0.0,0.0,0.0,0.0,0.0,0.0,0.0,0.0,0.0,0.0,0.0,0.0,0.0,0.0,0.0,0.0,0.0,0.0,0.0,0.0,0.0,0.0,0.0,0.0,5.3041,5.7538,6.0473,6.2771,0.0,6.5128,6.5422,6.5326,6.3739,6.1759,5.9484,0.0,0.0,0.0,0.0,0.0,0.0,0.0,0.0,0.0,0.0,0.0,0.0,0.0,0.0,0.0,0.0,0.0,0.0,0.0,0.0,0.0,0.0,0.0,0.0,0.0,0.0,0.0,0.0,0.0,0.0,0.0,0.0,0.0,0.0,0.0,0.0,0.0,0.0,0.0,0.0,0.0,0.0,0.0,0.0,0.0,0.0,0.0,0.0,0.0,0.0,0.0,0.0,0.0,4.4667,4.8402,5.1027,5.2911,5.3969,5.5208,5.561,5.4938,5.4278,5.2874,0.0,0.0,0.0,0.0,0.0,0.0,0.0,0.0,0.0,0.0,0.0,0.0,0.0,0.0,0.0,0.0,0.0,0.0,0.0,0.0,0.0,0.0,0.0,0.0,0.0,0.0,0.0,0.0,3.8908,3.9858,3.9342,0.0,0.0,0.0,0.0,0.0,0.0,0.0,0.0,0.0,0.0,5.6132,6.0185,6.3135,0.0,0.0,6.7235,6.7367,6.7138,6.5597,6.3719,6.1623,5.8296,0.0,0.0,0.0,0.0,0.0,0.0,0.0,0.0,0.0,0.0,0.0,0.0,0.0,0.0,0.0,0.0,0.0,0.0,0.0,0.0,0.0,0.0,0.0,0.0,0.0,0.0,0.0,0.0,0.0,0.0,0.0,0.0,0.0,0.0,0.0,0.0,0.0,0.0,0.0,0.0,0.0,0.0,0.0,0.0,0.0,0.0,0.0,0.0,0.0,0.0,0.0,0.0,4.5318,4.8991,5.157,5.3309,5.4047,5.5469,5.5839,5.5104,5.4648,5.3665,0.0,0.0,0.0,0.0,0.0,0.0,0.0,0.0,0.0,0.0,0.0,0.0,0.0,0.0,0.0,0.0,0.0,0.0,0.0,0.0,0.0,0.0,0.0,0.0,0.0,0.0,0.0,0.0,4.1279,4.1783,4.0605,0.0,0.0,0.0,0.0,0.0,0.0,0.0,0.0,0.0,0.0,5.8829,6.2604,6.5334,6.731,6.8206,6.8707,6.875,6.8044,6.6592,6.503,6.331,0.0,0.0,0.0,0.0,0.0,0.0,0.0,0.0,0.0,0.0,0.0,0.0,0.0,0.0,0.0,0.0,0.0,0.0,0.0,0.0,0.0,0.0,0.0,0.0,0.0,0.0,0.0,2.847,0.0,0.0,2.7684,0.0,0.0,0.0,0.0,0.0,0.0,0.0,0.0,0.0,0.0,0.0,0.0,0.0,0.0,0.0,0.0,0.0,0.0,0.0,0.0,0.0,0.0,4.5901,4.9581,5.1146,5.2247,5.3105,5.4199,5.5033,5.5328,5.471,5.4213,5.3754,0.0,0.0,0.0,0.0,0.0,0.0,0.0,0.0,0.0,0.0,0.0,0.0,0.0,0.0,0.0,0.0,0.0,0.0,0.0,0.0,0.0,0.0,0.0,0.0,0.0,0.0,4.2395,4.3479,4.3382,0.0,0.0,0.0,0.0,0.0,0.0,0.0,0.0,0.0,5.3447,5.7143,6.0858,6.4596,6.6814,6.8241,6.8663,6.952,6.9526,6.7803,6.6561,6.5444,0.0,0.0,0.0,0.0,0.0,0.0,0.0,0.0,0.0,0.0,0.0,0.0,0.0,0.0,0.0,0.0,0.0,0.0,0.0,0.0,0.0,0.0,0.0,0.0,0.0,0.0,0.0,3.096,3.1469,0.0,0.0,0.0,0.0,0.0,0.0,0.0,0.0,0.0,0.0,0.0,4.0639,4.1015,0.0,0.0,0.0,0.0,0.0,0.0,0.0,0.0,0.0,0.0,0.0,0.0,4.72,5.0518,5.2691,5.4199,5.5034,5.6209,5.6637,5.6459,5.5636,5.4485,5.2939,0.0,0.0,0.0,0.0,0.0,0.0,0.0,0.0,0.0,0.0,0.0,0.0,0.0,0.0,0.0,0.0,0.0,0.0,0.0,0.0,0.0,0.0,0.0,0.0,0.0,4.1974,0.0,0.0,0.0,0.0,0.0,0.0,0.0,0.0,0.0,0.0,0.0,5.3376,5.7149,6.1061,6.443,6.6659,6.8213,6.92,0.0,0.0,0.0,0.0,0.0,0.0,0.0,0.0,0.0,0.0,0.0,0.0,0.0,0.0,5.402,5.0459,5.0668,5.1378,5.1112,0.0,0.0,0.0,0.0,0.0,0.0,0.0,0.0,0.0,0.0,0.0,0.0,0.0,0.0,3.4149,0.0,3.48,0.0,0.0,0.0,0.0,0.0,0.0,0.0,0.0,4.0832,4.1777,4.2545,4.2977,4.2945,0.0,4.2863,4.1765,0.0,0.0,0.0,0.0,0.0,0.0,0.0,0.0,4.8134,5.1164,5.3298,5.4798,5.5668,5.6547,5.693,5.6724,5.6279,5.5168,5.3317,5.2624,5.0953,0.0,0.0,0.0,0.0,0.0,0.0,0.0,0.0,0.0,0.0,0.0,0.0,0.0,0.0,0.0,0.0,0.0,0.0,0.0,0.0,0.0,0.0,0.0,4.4317,0.0,0.0,0.0,0.0,0.0,0.0,0.0,0.0,0.0,4.9444,5.3134,5.7032,6.0185,6.3826,6.6801,6.8461,0.0,0.0,0.0,0.0,0.0,0.0,0.0,6.8997,6.8288,6.7536,6.6633,6.5361,6.4003,6.3075,6.3075,0.0,0.0,5.6742,5.702,5.7943,5.7704,5.9214,6.0417,5.9863,6.0054,6.0783,0.0,0.0,0.0,0.0,0.0,0.0,0.0,0.0,3.6777,3.7589,0.0,3.8517,0.0,0.0,0.0,0.0,0.0,3.9904,0.0,0.0,4.2319,4.3083,4.3674,4.4071,4.4272,4.4269,4.469,4.4756,4.4366,4.2473,0.0,0.0,0.0,0.0,0.0,0.0,4.8658,5.1346,5.2892,5.402,5.4825,5.5439,5.586,5.6253,5.6709,5.626,5.4917,5.4153,5.2659,5.037,4.8209,0.0,0.0,0.0,0.0,0.0,0.0,0.0,0.0,0.0,0.0,0.0,0.0,0.0,0.0,0.0,0.0,0.0,0.0,0.0,0.0,4.4681,0.0,0.0,0.0,0.0,0.0,0.0,0.0,0.0,0.0,0.0,5.3788,5.6921,6.0128,6.2747,0.0,0.0,0.0,0.0,7.206,7.2223,7.2337,7.1975,7.0959,7.0456,7.0299,7.0757,0.0,0.0,6.819,6.8099,6.8066,6.8099,6.8066,6.7179,6.4267,6.3798,6.4254,6.5099,6.5435,6.5907,6.6135,6.6305,6.7024,3.4011,0.0,0.0,0.0,0.0,3.5641,3.689,3.8134,3.889,3.9658,4.0456,4.0657,0.0,0.0,0.0,0.0,0.0,0.0,4.1302,4.138,4.2468,4.2863,4.2873,4.3896,4.4149,4.3834,4.5057,4.5437,4.4983,4.4971,4.4354,4.3255,0.0,0.0,0.0,0.0,4.924,5.1605,5.3375,5.4808,5.5753,5.6687,5.7137,5.7095,5.7416,5.7266,5.6532,5.5488,5.4473,5.3386,5.1042,0.0,0.0,0.0,0.0,0.0,0.0,0.0,0.0,0.0,0.0,0.0,0.0,0.0,0.0,0.0,0.0,0.0,0.0,0.0,4.6911,4.7412,4.7835,0.0,0.0,0.0,0.0,0.0,0.0,0.0,0.0,0.0,5.9407,6.1702,6.4092,0.0,0.0,6.9893,7.1207,7.1536,7.1815,7.2248,7.2571,0.0,7.1421,7.2051,7.258,7.2395,7.2623,7.2738,7.2641,7.2495,7.2381,7.2348,7.2495,7.2289,7.1398,6.9032,6.764,6.7853,6.814,6.8603,6.9454,7.0038,7.0767,3.6145,3.5382,3.5571,3.6062,3.6756,3.7719,3.8678,3.9587,4.0234,4.0976,4.1726,4.159,4.1463,4.1263,4.1063,0.0,0.0,0.0,4.0995,4.0972,4.1691,4.1954,4.1837,4.2939,4.3389,4.3302,4.4614,4.5197,4.5072,4.5675,4.5493,4.4573,0.0,0.0,4.661,4.804,4.9614,5.1459,5.3303,5.4669,5.5531,5.6522,5.7173,5.7349,5.7514,5.7482,5.7198,5.6332,5.5522,5.4862,5.2767,5.0463,0.0,0.0,0.0,0.0,0.0,0.0,0.0,0.0,0.0,0.0,0.0,3.3976,3.6912,0.0,0.0,0.0,4.5427,4.7936,5.0735,5.0202,0.0,0.0,0.0,0.0,0.0,0.0,0.0,5.6971,5.9579,6.1944,6.391,6.5864,6.7376,6.8252,7.001,7.1496,7.2279,0.0,7.2827,7.3167,7.3426,7.3454,7.3009,7.3613,7.4242,7.439,7.5106,7.5724,7.5912,7.5842,7.579,7.5894,7.5964,7.6066,7.6066,7.4089,7.2209,7.1497,7.1502,7.1943,7.2788,7.3264,7.3817,3.6569,3.6877,3.6887,3.7532,3.8648,3.903,3.9685,4.0546,4.0913,4.158,4.2246,4.1629,4.18,4.2351,4.1243,0.0,3.9217,3.971,3.9981,4.0159,4.0261,4.033,4.0457,4.1405,4.2078,4.2496,4.3516,4.4198,4.4693,4.5207,4.5534,4.5555,4.5998,4.6573,4.7128,4.8497,4.9755,5.0901,5.2711,5.4098,5.4822,5.5602,5.6375,5.7141,5.7219,5.72,5.7197,5.6632,5.6029,5.5168,5.3804,5.1964,4.9686,0.0,0.0,0.0,0.0,0.0,0.0,0.0,0.0,0.0,0.0,0.0,0.0,0.0,0.0,4.6149,4.8707,0.0,5.3297,5.2907,0.0,0.0,0.0,5.462,5.5536,5.7113,5.8768,6.0601,0.0,0.0,6.7263,6.914,7.0031,6.9035,7.1029,7.2708,7.304,7.3831,7.4425,7.4351,7.449,7.473,7.494,7.5212,7.5701,7.6496,7.727,7.7763,7.8069,7.8157,7.8298,7.8449,7.8622,7.8589,7.8622,7.8378,7.8007,7.5706,7.5368,7.5512,7.5633,7.596,7.6233,3.5181,3.5333,3.5491,3.6511,3.7965,3.8273,3.8914,3.9682,4.0111,4.034,4.0509,4.0335,3.997,3.9346,3.803,3.7411,3.7403,3.7533,3.7583,3.7598,3.7859,3.8219,3.8694,3.9682,4.0396,4.0947,4.2557,4.3453,4.3628,4.4847,4.5385,4.5433,4.5912,4.6393,4.6883,4.7611,4.8555,4.9769,5.172,5.3743,5.5952,5.6196,5.6572,5.7133,5.6994,5.7053,5.7318,5.6999,5.6548,5.6019,5.5164,5.3831,5.205,4.9584,0.0,0.0,0.0,0.0,0.0,0.0,0.0,0.0,0.0,4.0952,4.4255,0.0,4.8495,0.0,5.235,5.3926,5.5496,5.5086,0.0,0.0,5.7393,5.7946,5.8841,6.0177,6.1554,6.2972,6.5054,6.6793,6.7695,6.994,7.1566,7.1475,7.1971,7.2559,7.3129,7.3588,7.4033,7.4301,7.4924,7.5624,7.5943,7.6921,7.7679,7.8283,7.8616,7.9031,7.9313,7.9369,7.9425,7.9481,7.9671,7.9749,7.9804,8.0003,7.9968,7.9335,7.8236,7.7126,7.6843,7.7008,7.7333,3.2822,3.2837,3.3012,3.3704,3.4782,3.6406,3.7419,3.7793,3.7981,3.7994,3.7919,3.737,3.6708,3.5875,3.4797,3.4457,3.4589,3.4614,3.4695,3.5035,3.5212,3.5772,3.6555,3.7585,3.8425,3.9277,4.1029,4.1961,4.2235,4.3416,4.4138,4.4427,4.4857,4.545,4.62,4.722,4.8169,4.8861,5.0972,5.3215,5.5526,5.5549,5.5911,5.6467,5.6449,5.6566,5.6855,5.6777,5.6651,5.658,5.598,5.5047,5.3711,5.1895,5.0019,0.0,0.0,0.0,0.0,0.0,0.0,0.0,0.0,0.0,0.0,0.0,5.1329,5.3938,5.4905,5.5971,5.735,5.7138,5.7688,5.9641,6.0036,6.0651,6.1899,6.2877,6.3856,6.496,6.6778,6.8156,6.8763,7.0674,7.2179,7.2374,7.2477,7.2861,7.3747,7.412,7.437,7.4523,7.5117,7.5803,7.623,7.7496,7.8515,7.8726,7.922,7.9801,8.0236,8.0352,8.041,8.073,8.0869,8.0983,8.1007,8.1153,8.1167,8.0705,7.9958,7.9041,7.8541,7.8515,7.8638,2.9804,2.9816,2.9881,3.0062,3.0525,3.3307,3.4876,3.5234,3.5181,3.5046,3.4788,3.3585,3.2752,3.2178,3.1595,3.1373,3.1373,3.1373,3.1847,3.2639,3.2848,3.3461,3.4492,3.5575,3.6624,3.7586,3.9212,4.0178,4.0652,4.1672,4.2422,4.3018,4.3466,4.4209,4.5206,4.696,4.8027,4.8418,5.0456,5.2433,5.416,5.4264,5.4646,5.5365,5.5624,5.58,5.6065,5.6208,5.6508,5.695,5.6599,5.5962,5.5102,5.398,5.2557,0.0,4.9595,0.0,0.0,0.0,0.0,0.0,0.0,0.0,0.0,5.1717,5.3815,5.6562,5.6917,5.7556,5.9075,5.9028,5.9797,6.1761,6.2127,6.2774,6.4316,6.5048,6.5742,6.6484,6.8186,6.9436,6.9801,7.1234,7.2243,7.2214,7.2581,7.325,7.4363,7.466,7.4761,7.4884,7.5358,7.6052,7.6651,7.7778,7.8716,7.8903,7.9657,8.0408,8.0984,8.1035,8.1182,8.1656,8.1701,8.1785,8.185,8.1876,8.1795,8.1172,8.0976,8.0621,8.0034,7.9766,7.9702,2.6275,2.6308,2.6711,2.6901,2.7033,2.7605,2.967,3.2557,3.2367,3.1816,3.0934,2.9846,2.9323,2.9188,2.8697,2.8654,2.8802,2.9212,2.9775,3.0346,3.1262,3.2201,3.3018,3.4544,3.5571,3.6263,3.8269,3.938,3.948,4.0948,4.1948,4.2455,4.2927,4.3706,4.479,0.0,0.0,0.0,5.0209,5.1396,5.2822,5.2814,5.3059,5.3648,5.4328,0.0,5.5359,5.6385,5.6949,5.6958,5.7457,0.0,0.0,0.0,0.0,0.0,0.0,0.0,0.0,0.0,0.0,0.0,5.2697,5.261,5.3308,5.5344,5.7098,5.8608,5.8743,5.9264,6.0457,6.0889,6.1493,6.2632,6.3293,6.4023,6.4816,6.5737,6.6647,6.7602,6.8748,6.9614,6.9991,7.1046,7.172,7.175,7.2508,7.3179,7.3458,7.4136,7.4571,7.4932,7.6024,7.7059,7.7644,7.8533,7.9367,8.0071,8.0553,8.1031,8.1314,8.1179,8.1076,8.1289,8.1201,8.1171,8.1171,8.1584,8.1876,8.177,8.1563,8.108,8.0049,7.9866,7.9681,2.3246,0.0,2.3479,2.3734,0.0,2.3519,2.4608,2.6582,2.7874,2.8019,2.7337,2.6648,2.6322,2.6429,2.6355,2.6381,2.6497,2.7447,2.815,2.8707,2.955,3.0658,3.1805,3.2827,3.3974,3.5116,3.6736,3.765,3.7954,3.9265,4.0169,4.0769,4.1268,4.2162,4.3563,4.4742,4.6649,4.9141,4.9881,5.0851,5.1954,5.2089,5.2381,5.3055,5.3298,0.0,0.0,0.0,0.0,0.0,0.0,0.0,0.0,0.0,0.0,5.5346,5.4874,5.4302,5.3643,5.3703,5.4131,5.4929,5.5361,5.5411,5.5054,5.6498,5.7722,5.8462,5.8929,5.9487,6.0211,6.0856,6.1675,6.2894,6.3575,6.4286,6.5352,6.5936,6.6529,6.7296,6.8188,6.8915,6.9377,7.0276,7.0935,7.0964,7.1582,7.2216,7.2806,7.3533,7.4313,7.4984,7.6168,7.7175,7.7646,7.8403,7.9084,7.9454,7.995,8.041,8.08,8.0554,8.0428,8.0521,8.0414,8.0239,8.0299,8.0694,8.1058,8.1058,8.0906,8.0684,8.0027,7.9899,7.97,2.041,2.041,2.0443,2.0569,2.0744,2.0323,2.0214,2.0553,0.0,0.0,0.0,2.3613,2.3615,2.3889,2.4108,2.4308,2.4633,2.5766,2.6723,2.7387,2.8125,2.921,3.0817,3.1432,3.2486,3.4056,3.5061,3.587,3.6396,3.7433,3.8247,3.8842,3.9247,4.0357,4.206,4.4046,4.5994,4.7821,4.9072,5.0156,5.1081,5.1282,5.1821,5.2557,5.2554,5.3134,5.4347,5.4859,5.5761,5.6917,5.7834,5.8012,5.7573,5.8002,5.7683,5.6412,5.6265,5.602,5.558,5.5531,5.5701,5.614,5.6993,5.7144,5.6145,5.6867,5.7545,5.8001,5.8604,5.9154,5.9679,6.0371,6.1306,6.2729,6.3282,6.4081,6.5345,6.5684,6.5889,6.6474,6.7258,6.7981,6.8382,6.9272,6.9858,6.9933,7.0416,7.1217,7.2262,7.3471,7.4391,7.5117,7.6122,7.6923,7.7274,7.7914,7.8399,7.8727,7.9244,7.9661,7.9778,7.9676,7.9564,7.9538,7.9385,7.9194,7.9255,7.9535,7.9846,7.9907,7.9846,7.9846,7.9782,7.9701,7.9478,1.732,1.7327,1.7571,1.7615,1.7756,1.765,1.7734,1.8053,2.0055,2.0965,2.0912,2.0949,2.1348,2.1802,2.2001,2.261,2.3575,2.4239,2.5204,2.6556,2.7621,2.8805,3.0182,3.1249,3.2205,3.2854,3.3991,3.4833,3.5372,3.5987,3.6823,3.776,3.7982,3.9107,4.1163,4.2896,4.4295,4.56,4.7229,4.8441,4.8977,4.9889,5.0342,5.0605,5.2168,5.3328,5.3837,5.4715,5.5485,5.605,5.6958,5.7338,5.7302,5.8017,5.8274,5.7941,5.7947,5.7887,5.7765,5.7716,5.7648,5.7445,5.7967,5.7999,5.7246,5.7745,5.8274,5.8741,5.8793,5.9226,6.0118,6.053,6.1094,6.1784,6.2535,6.3337,6.4039,6.4455,6.5028,6.5813,6.6492,6.6906,6.7265,6.786,6.8274,6.8432,6.9405,7.074,7.2349,7.3948,7.4895,7.5186,7.5975,7.6792,7.7139,7.7772,7.834,7.9162,7.9496,7.9642,7.9529,7.9164,7.8817,7.8358,7.8037,7.7925,7.812,7.8501,7.8691,7.8943,7.8817,7.8691,7.8691,7.8502,7.8501,1.5962,1.6038,1.5785,1.5786,1.5809,1.5159,1.4866,1.5014,1.5967,1.7295,1.869,1.909,1.944,1.9776,2.0806,2.164,2.2186,2.3897,2.4969,2.5595,2.7114,2.8242,2.9211,3.0071,3.1035,3.2103,3.2729,3.3379,3.424,3.4848,3.5375,3.5901,3.674,3.7994,3.967,4.0996,4.2329,4.3755,4.6023,4.7638,4.842,4.8875,4.9435,5.001,5.1031,5.1832,5.2579,5.3823,5.4676,5.5126,5.63,5.6839,5.6564,5.7388,5.7656,5.7325,5.7523,5.7673,5.7701,5.7677,5.761,5.7441,5.7432,5.729,5.6962,5.7371,5.7919,5.8322,5.8322,5.8579,5.9305,5.9706,6.0168,6.0713,6.1301,6.2008,6.2729,6.3017,6.344,6.4177,6.4868,6.5345,6.5477,6.6132,6.6788,6.7343,6.88,7.0447,7.1684,7.2994,7.4041,7.4592,7.5517,7.6312,7.674,7.724,7.774,7.8325,7.8717,7.8855,7.8779,7.8307,7.7728,7.7373,7.6794,7.6421,7.6528,7.6858,7.7119,7.725,7.738,7.7315,7.7346,7.7442,7.777,1.4945,1.485,1.4417,1.4186,1.4216,1.3264,1.2837,1.2942,1.2947,1.4135,1.6194,1.7149,1.7676,1.8229,1.969,2.0637,2.1423,2.3175,2.4446,2.4991,2.6295,2.7378,2.8145,2.8781,2.9856,3.113,3.1356,3.1926,3.2935,3.3455,3.3812,3.4289,3.5788,3.716,3.812,3.9256,4.0593,4.2262,4.4395,4.6233,4.7672,4.7974,4.8494,4.9352,4.9839,5.041,5.117,5.267,5.3632,5.3982,5.5383,5.5977,5.5512,5.6419,5.6843,5.6491,5.6842,5.7178,5.7238,5.7261,5.7178,5.7094,5.6735,5.6483,5.6314,5.6567,5.6977,5.7373,5.7361,5.7597,5.8046,5.8317,5.8756,5.9319,5.9829,6.0364,6.1169,6.1432,6.1763,6.2281,6.3017,6.3503,6.3771,6.4415,6.5419,6.6818,6.8385,6.975,7.0768,7.1736,7.2609,7.3585,7.4677,7.5621,7.5981,7.6329,7.6704,7.7076,7.7372,7.7475,7.7429,7.6877,7.6308,7.6022,7.5458,7.498,7.4839,7.5052,7.5324,7.5429,7.5728,7.599,7.6337,7.6532,7.7042,1.346,1.3134,1.3037,1.2831,1.2697,1.2569,1.2496,1.2496,1.2506,1.2617,1.3258,1.4596,1.6191,1.752,1.8101,1.9375,2.1242,2.1595,2.2918,2.4674,2.51,2.5969,2.7517,2.8155,2.8792,2.9438,2.9998,3.0662,3.1485,3.1593,3.2254,3.3571,3.5223,3.6262,3.7014,3.8084,3.959,4.1178,4.1494,4.306,4.5909,4.664,4.7121,4.7735,4.9063,4.981,4.9967,5.1474,5.2323,5.2472,5.3839,5.4497,5.4229,5.5309,5.613,5.5988,5.6464,5.6919,5.7326,5.7349,5.7131,5.6832,5.6614,5.6245,5.5485,5.542,5.5648,5.5846,5.5931,5.6245,5.6675,5.6829,5.7098,5.7514,5.8034,5.8554,5.9002,5.9449,5.9955,6.09,6.1399,6.1895,6.2306,6.3199,6.4444,6.6184,6.7429,6.8688,6.9878,7.0501,7.1096,7.1873,7.3303,7.4528,7.4865,7.5173,7.5497,7.5744,7.5924,7.6005,7.5824,7.5579,7.5216,7.4431,7.3892,7.3628,7.3433,7.3322,7.3551,7.3938,7.4287,7.4743,7.5557,7.5815,7.6153,1.2544,1.2487,1.2055,1.1736,1.147,1.1518,1.1532,1.1532,1.1532,1.1643,1.1973,1.2709,1.4017,1.5685,1.7177,1.8412,1.9405,2.0725,2.1991,2.3083,2.4083,2.5137,2.6234,2.6904,2.7673,2.854,2.877,2.9251,2.9876,3.0336,3.0941,3.1899,3.3223,3.442,3.5275,3.6477,3.7769,3.9039,3.948,4.071,4.2972,4.4593,4.584,4.6639,4.7741,4.8316,4.8479,4.9886,5.0746,5.09,5.2343,5.3053,5.2868,5.3984,5.4625,5.4711,5.5203,5.5576,5.5751,5.5751,5.5664,5.5488,5.5225,5.4895,5.4454,5.401,5.3706,5.3931,5.4629,5.5152,5.5417,5.5374,5.555,5.5707,5.6188,5.6622,5.7056,5.755,5.815,5.9026,5.9642,6.0207,6.1081,6.2572,6.401,6.5282,6.6445,6.7699,6.8769,6.9128,6.9459,7.02,7.1231,7.2381,7.328,7.3857,7.4218,7.4577,7.4732,7.4638,7.4544,7.4193,7.3719,7.3207,7.2865,7.2655,7.2576,7.2535,7.2609,7.2817,7.3284,7.3907,7.4805,7.4685,7.4657,1.1928,1.1894,1.1413,1.1078,1.0751,1.0751,1.0751,1.0751,1.0751,1.0974,1.1424,1.1558,1.2358,1.3805,1.5886,1.7105,1.7693,1.9582,2.078,2.1383,2.295,2.403,2.4826,2.5506,2.6276,2.7055,2.7267,2.7752,2.8359,2.8999,2.9699,3.0354,3.1572,3.2675,3.3554,3.4772,3.596,3.6938,3.7588,3.8668,4.0371,4.2061,4.3673,4.506,4.6029,4.6452,4.6348,4.7962,4.8953,4.8941,5.03,5.1147,5.1431,5.2323,5.2982,5.3352,5.3724,5.4005,5.4026,5.3897,5.3811,5.3811,5.3476,5.3298,5.303,5.2492,5.2041,5.2021,5.2851,5.3434,5.3811,5.3811,5.39,5.401,5.4343,5.4785,5.5401,5.5839,5.6536,5.7401,5.8002,5.8601,5.987,6.1692,6.3334,6.3965,6.5383,6.6626,6.7366,6.7704,6.8041,6.8795,6.9293,7.0255,7.1794,7.254,7.2937,7.3039,7.309,7.3252,7.3252,7.2807,7.2417,7.2006,7.1861,7.1555,7.1221,7.1304,7.1597,7.1854,7.2339,7.3103,7.3862,7.3494,7.3251,1.1714,1.1264,1.1001,1.085,1.0751,1.0751,1.0755,1.0763,1.0759,1.0867,1.0999,1.1524,1.1785,1.2118,1.3826,1.5166,1.6379,1.7741,1.8944,2.0095,2.1454,2.2361,2.2923,2.4044,2.4612,2.4882,2.5451,2.6086,2.6813,2.7566,2.8379,2.9049,3.0587,3.1611,3.1936,3.3379,3.4655,3.516,3.5826,3.6958,3.8513,3.8952,4.0281,4.2661,4.3986,4.4462,4.4267,4.5618,4.6662,4.6793,4.7816,4.8717,4.9373,5.0223,5.123,5.2165,5.2405,5.2524,5.2462,5.213,5.1972,5.1951,5.1861,5.168,5.1318,5.1046,5.0773,5.0428,5.0499,5.0955,5.1659,5.193,5.2222,5.2581,5.2581,5.3119,5.3922,5.4365,5.5071,5.5926,5.6622,5.751,5.8756,6.0658,6.192,6.2836,6.4235,6.5594,6.6086,6.6515,6.7052,6.7561,6.8041,6.8769,7.031,7.115,7.123,7.1284,7.1607,7.1608,7.15,7.1419,7.112,7.0955,7.0844,7.0545,6.9952,6.9973,7.0368,7.0818,7.1489,7.2222,7.2897,7.2516,7.217,1.0948,1.0799,1.0813,1.0751,1.0751,1.0751,1.0784,1.0837,1.0837,1.0873,1.0926,1.1191,1.1317,1.1317,1.2305,1.3664,1.5282,1.6413,1.7508,1.8544,1.9697,2.066,2.1445,2.2595,2.3394,2.3849,2.4418,2.4795,2.52,2.5854,2.6472,2.7271,2.8513,2.941,3.01,3.168,3.2679,3.3016,3.4147,3.5374,3.6373,3.6817,3.7798,3.9538,4.1591,4.2607,4.2482,4.3605,4.4528,4.4921,4.5677,4.6569,4.7634,4.8963,4.9915,5.0317,5.0684,5.0842,5.0782,5.0497,5.0238,5.0218,4.9979,4.9839,4.9656,4.938,4.9105,4.8848,4.859,4.8663,4.9124,5.0042,5.0864,5.1046,5.1409,5.1771,5.2402,5.294,5.3655,5.4542,5.5576,5.6823,5.8103,5.9575,6.0813,6.1891,6.3215,6.4129,6.4726,6.5137,6.5742,6.6455,6.6771,6.7197,6.8351,6.9542,7.0091,7.0146,7.0255,7.0554,7.0554,7.0554,7.0286,7.0178,7.0071,6.999,6.9508,6.9615,6.9911,7.034,7.0958,7.1064,7.1813,7.1199,7.0887,1.0288,1.062,1.0714,1.0751,1.0755,1.0784,1.0833,1.089,1.0922,1.0967,1.1024,1.1057,1.1069,1.1188,1.1559,1.2493,1.3863,1.5092,1.6049,1.6859,1.8017,1.9136,2.0081,2.114,2.1982,2.2618,2.3314,2.3671,2.4134,2.4597,2.5059,2.5761,2.6664,2.7593,2.8396,2.9872,3.0659,3.1125,3.2487,3.3593,3.4059,3.4607,3.5451,3.6679,3.8564,3.9928,4.0717,4.1754,4.2428,4.2844,4.3526,4.4464,4.5639,4.7401,4.8336,4.8494,4.8934,4.9186,4.9129,4.8881,4.8575,4.8441,4.8192,4.7982,4.7848,4.7531,4.7457,4.727,4.7196,4.6934,4.7289,4.8312,4.9308,4.9787,5.0225,5.0773,5.1248,5.1771,5.2402,5.3387,5.4542,5.5821,5.7061,5.8265,5.9477,6.0697,6.1835,6.2766,6.3209,6.3826,6.444,6.5248,6.5594,6.6026,6.6771,6.7704,6.8544,6.8685,6.9018,6.932,6.9568,6.9485,6.9485,6.9403,6.9403,6.932,6.932,6.932,6.9568,6.9871,6.9874,6.9823,6.9963,6.975,6.9531,1.0061,1.0526,1.0714,1.0755,1.0775,1.0845,1.0886,1.0922,1.0992,1.1037,1.1069,1.1127,1.1163,1.1176,1.1358,1.175,1.2434,1.3421,1.4354,1.5137,1.6419,1.7658,1.8848,1.9676,2.057,2.1285,2.1795,2.274,2.3775,2.3884,2.4237,2.485,2.5401,2.6084,2.6725,2.7959,2.8804,2.949,3.0627,3.146,3.1864,3.2627,3.3416,3.4321,3.5151,3.6573,3.8924,4.0041,4.0694,4.0813,4.1198,4.2064,4.3602,4.5421,4.6658,4.6769,4.7292,4.7601,4.7528,4.7217,4.6814,4.6558,4.6393,4.621,4.603,4.5844,4.5826,4.5789,4.5789,4.5978,4.6353,4.6635,4.7382,4.8682,4.9328,4.9787,5.0225,5.0682,5.1388,5.2402,5.3341,5.4248,5.5419,5.6754,5.7963,5.9203,6.0337,6.1359,6.1874,6.2588,6.341,6.3939,6.4377,6.4988,6.5335,6.5853,6.654,6.7222,6.7646,6.8067,6.8235,6.8235,6.8319,6.8319,6.8319,6.8319,6.8319,6.8403,6.8319,6.8544,6.8461,6.8602,6.8677,6.8641,6.8276,0.9547,1.0154,1.0627,1.0792,1.0845,1.0877,1.0955,1.1073,1.111,1.1151,1.1204,1.1237,1.1249,1.1269,1.1339,1.1502,1.1738,1.2118,1.2837,1.3867,1.5151,1.6273,1.732,1.8655,1.9984,2.0982,2.17,2.2173,2.2646,2.3008,2.359,2.4171,2.4415,2.4759,2.5482,2.6158,2.6861,2.7688,2.8718,2.9617,3.0258,3.1286,3.2081,3.2659,3.3642,3.4756,3.5813,3.7483,3.8688,3.9534,3.9669,4.0538,4.2205,4.3654,4.4565,4.507,4.557,4.59,4.5848,4.555,4.5287,4.5014,4.4902,4.4473,4.4141,4.4088,4.3966,4.3852,4.4068,4.443,4.4637,4.5205,4.6202,4.7662,4.8312,4.8814,4.9407,5.0102,5.0773,5.145,5.2333,5.3436,5.4588,5.5861,5.6867,5.8177,5.9156,5.9795,6.0432,6.1245,6.1987,6.2499,6.3145,6.3851,6.4377,6.4814,6.531,6.6086,6.654,6.6882,6.7052,6.7052,6.7137,6.7222,6.7222,6.7307,6.7307,6.7307,6.7307,6.7477,6.7704,6.7822,6.7938,6.7671,6.7164,0.8701,0.9638,1.0232,1.0724,1.0898,1.0955,1.1053,1.1159,1.1196,1.1241,1.1286,1.1327,1.1339,1.1359,1.1433,1.1474,1.1482,1.1539,1.2031,1.2833,1.3986,1.5103,1.617,1.8148,1.9725,2.0809,2.1287,2.1645,2.1884,2.2242,2.2838,2.3314,2.3433,2.3917,2.4621,2.5087,2.5561,2.6399,2.7452,2.8237,2.8773,2.9762,3.0695,3.1323,3.2001,3.2784,3.3722,3.5148,3.6607,3.7835,3.8405,3.9344,4.0697,4.1692,4.2415,4.3043,4.3755,4.4144,4.4144,4.4144,4.4059,4.3924,4.3488,4.3104,4.2703,4.2522,4.229,4.2416,4.2576,4.2947,4.3448,4.3913,4.4988,4.6228,4.7234,4.7967,4.8698,4.9429,5.008,5.0715,5.1339,5.2518,5.3788,5.4503,5.5599,5.6825,5.7585,5.8234,5.8879,5.9726,6.0432,6.1178,6.1987,6.2701,6.341,6.3851,6.4202,6.4876,6.5483,6.5828,6.6,6.6,6.6086,6.6,6.6,6.5914,6.6,6.6086,6.6172,6.6515,6.6882,6.6942,6.6959,6.6361,6.5919,0.7849,0.8985,0.9726,1.0332,1.0821,1.1078,1.1159,1.1184,1.1249,1.129,1.1318,1.138,1.1421,1.1449,1.1531,1.1568,1.1572,1.1596,1.1641,1.2145,1.3076,1.428,1.5817,1.7726,1.9233,2.0216,2.0466,2.0844,2.1412,2.1661,2.1956,2.2515,2.2627,2.315,2.4081,2.4364,2.4691,2.5524,2.6621,2.6997,2.7084,2.8207,2.9195,3.0049,3.0288,3.1064,3.233,3.3236,3.4444,3.6254,3.7512,3.8282,3.8997,3.9673,4.0501,4.109,4.1968,4.2361,4.2566,4.2823,4.2998,4.2635,4.2267,4.1786,4.1496,4.11,4.0953,4.1171,4.1386,4.1799,4.2575,4.2854,4.3478,4.4609,4.6151,4.7436,4.8328,4.8919,4.9318,4.985,5.0421,5.1334,5.2681,5.3087,5.3921,5.4926,5.5713,5.6371,5.7213,5.8141,5.9177,5.9909,6.0545,6.1449,6.2053,6.2701,6.3056,6.3498,6.4178,6.4615,6.5137,6.5223,6.5223,6.5137,6.4963,6.4789,6.4963,6.5248,6.5421,6.557,6.5853,6.594,6.5685,6.5125,6.4713,0.664,0.781,0.9409,1.0166,1.0503,1.0916,1.12,1.1253,1.1278,1.1323,1.138,1.1412,1.1465,1.1535,1.1621,1.1661,1.1674,1.1727,1.1768,1.1914,1.2631,1.3959,1.5695,1.7191,1.8312,1.9164,1.9644,2.0258,2.0865,2.1229,2.16,2.1843,2.1835,2.2319,2.3045,2.3166,2.3649,2.4614,2.4975,2.5559,2.6114,2.71,2.7731,2.7933,2.8981,2.9953,3.0928,3.2055,3.3689,3.5649,3.6489,3.7234,3.7991,3.8609,3.919,3.9957,4.0315,4.0639,4.0868,4.1012,4.1068,4.0903,4.0841,4.0527,4.0202,4.0054,3.993,3.9861,4.0084,4.0416,4.0785,4.12,4.1995,4.3372,4.5025,4.6616,4.7383,4.7846,4.8249,4.846,4.9474,5.0472,5.13,5.2016,5.2791,5.3774,5.4292,5.4672,5.5713,5.6465,5.7399,5.8256,5.8993,5.9909,6.0726,6.1359,6.1831,6.2255,6.279,6.3298,6.4002,6.4702,6.4789,6.4789,6.4353,6.4178,6.4576,6.5037,6.4925,6.4639,6.4925,6.5099,6.4481,6.4009,6.3464,0.5409,0.67,0.8201,0.9307,0.9877,1.0615,1.0895,1.093,1.1173,1.1339,1.1416,1.147,1.1531,1.1625,1.1715,1.1755,1.1764,1.1808,1.1833,1.1956,1.2557,1.3782,1.5255,1.6482,1.7215,1.7818,1.8556,1.8921,1.9408,2.0015,2.0501,2.0744,2.1108,2.1471,2.2198,2.2206,2.2682,2.3528,2.389,2.4373,2.5104,2.6066,2.6851,2.7169,2.8149,2.8728,2.9699,3.0798,3.2396,3.4258,3.5138,3.5751,3.668,3.6977,3.7591,3.846,3.8662,3.8895,3.9271,3.9657,3.9877,3.9877,3.9892,3.9786,3.9532,3.9178,3.8751,3.8954,3.8996,3.9185,3.9709,4.0404,4.1208,4.2061,4.3423,4.4898,4.6297,4.6824,4.7198,4.7742,4.8555,4.9503,4.999,5.0804,5.1678,5.2394,5.2684,5.3432,5.4387,5.4957,5.5713,5.6652,5.7607,5.8625,5.9452,6.0091,6.0454,6.0907,6.1178,6.1784,6.2588,6.345,6.3562,6.3474,6.3562,6.3586,6.3787,6.3787,6.3611,6.3522,6.4011,6.3856,6.3297,6.2676,6.2227,0.4061,0.5461,0.6763,0.7969,0.9086,0.9968,1.0231,1.0352,1.0704,1.1111,1.1207,1.1407,1.1488,1.1719,1.1784,1.1829,1.1829,1.1833,1.171,1.1833,1.2193,1.3051,1.4031,1.501,1.5866,1.6477,1.7093,1.7459,1.7825,1.8312,1.8799,1.9401,2.0015,2.0744,2.1229,2.1479,2.1835,2.244,2.3045,2.3528,2.414,2.4872,2.5688,2.6602,2.7122,2.7757,2.859,2.9477,3.0698,3.2804,3.3357,3.4256,3.5074,3.4965,3.561,3.6518,3.6972,3.7354,3.7956,3.8583,3.9018,3.9033,3.9093,3.9152,3.8796,3.8262,3.7936,3.8204,3.7889,3.8233,3.8841,3.992,4.0317,4.0626,4.1139,4.2807,4.4649,4.5473,4.6075,4.7075,4.7672,4.8286,4.878,4.9391,5.0078,5.1037,5.1426,5.2298,5.3048,5.3719,5.4482,5.543,5.6371,5.7234,5.8071,5.8695,5.9063,5.9429,5.9703,6.0136,6.0703,6.1425,6.1718,6.1921,6.2053,6.2053,6.1987,6.21,6.21,6.2142,6.2297,6.2255,6.2003,6.1439,6.0852,0.2489,0.4245,0.5973,0.7183,0.7972,0.9051,0.9648,0.9648,0.9766,1.0194,1.067,1.0835,1.1169,1.18,1.1821,1.1837,1.1837,1.171,1.1587,1.1092,1.1088,1.1334,1.207,1.3296,1.4521,1.5133,1.5383,1.5994,1.6727,1.7093,1.7459,1.8068,1.8799,1.9408,2.0008,2.0501,2.1115,2.1714,2.1956,2.2319,2.3045,2.3657,2.4381,2.5319,2.6327,2.6857,2.7116,2.8018,2.9052,3.003,3.1645,3.272,3.3243,3.3974,3.4502,3.4997,3.5672,3.6179,3.6934,3.7085,3.7328,3.7723,3.7671,3.7486,3.7382,3.7291,3.7187,3.7277,3.7173,3.7173,3.7591,3.8112,3.8529,3.8826,3.9345,4.0275,4.1494,4.2925,4.4161,4.4969,4.5875,4.6676,4.7193,4.8088,4.878,4.9569,5.0255,5.1037,5.1717,5.2374,5.324,5.4081,5.4957,5.5713,5.6371,5.7026,5.7492,5.7771,5.7934,5.8119,5.8764,5.9407,5.9703,6.025,6.0794,6.0613,6.0432,6.0636,6.0726,6.0657,6.0429,6.0193,5.9978,5.9608,5.9319,0.136,0.2989,0.4599,0.5917,0.7169,0.8119,0.8709,0.8944,0.9296,0.9617,1.0097,1.0483,1.0939,1.133,1.171,1.1837,1.171,1.1464,1.1215,1.0843,1.0597,1.0351,1.0474,1.1457,1.2561,1.3669,1.4159,1.4771,1.5255,1.5988,1.6477,1.6849,1.7703,1.8312,1.8677,1.9164,1.9772,2.0501,2.0744,2.1108,2.2077,2.2803,2.3649,2.4459,2.5502,2.5989,2.5942,2.698,2.752,2.8177,2.9477,3.0787,3.1251,3.213,3.272,3.3282,3.3678,3.4363,3.5036,3.5465,3.5819,3.6676,3.6738,3.7025,3.6914,3.6858,3.6578,3.6495,3.6334,3.6243,3.6453,3.6963,3.7277,3.7382,3.78,3.8425,3.9256,4.0996,4.2636,4.3349,4.4262,4.507,4.5875,4.6676,4.7772,4.8564,4.8978,4.9765,5.0549,5.1231,5.1794,5.2567,5.3336,5.4101,5.4767,5.5336,5.5713,5.5901,5.5996,5.6068,5.635,5.7004,5.7727,5.8396,5.8948,5.904,5.8879,5.9063,5.904,5.8881,5.8566,5.8096,5.7738,5.7447,5.7218,0.034,0.1725,0.2875,0.4411,0.6114,0.6826,0.7417,0.8122,0.8709,0.8906,0.9381,0.9999,1.0326,1.0694,1.1342,1.171,1.1587,1.1092,1.0843,1.0474,0.9982,0.9737,0.9859,1.0105,1.072,1.2316,1.2929,1.3296,1.3909,1.4638,1.5255,1.5744,1.6727,1.7337,1.7459,1.7709,1.8312,1.9158,1.9279,1.9887,2.0986,2.1835,2.2553,2.3857,2.4615,2.4955,2.5096,2.5925,2.6355,2.6285,2.7193,2.8102,2.9082,2.9997,3.0665,3.1206,3.1708,3.2507,3.3433,3.3896,3.4484,3.5584,3.6167,3.6584,3.6701,3.6433,3.6244,3.6016,3.5828,3.5722,3.5972,3.645,3.6752,3.683,3.6816,3.7104,3.7719,3.936,4.0677,4.192,4.2738,4.3654,4.4464,4.5271,4.6476,4.7473,4.7889,4.8385,4.9273,4.9961,5.0432,5.092,5.1697,5.2471,5.3144,5.3412,5.389,5.391,5.4006,5.4006,5.4006,5.4461,5.5199,5.6444,5.7004,5.7004,5.7004,5.7004,5.6983,5.6939,5.6636,5.6203,5.5726,5.5318,5.5087,-0.1246,0.0345,0.115,0.2553,0.4234,0.4945,0.5653,0.6243,0.6829,0.7484,0.8184,0.8797,0.9477,1.0074,1.072,1.1215,1.1464,1.0969,1.0474,1.0105,0.9371,0.9122,0.8999,0.9125,0.9614,1.0228,1.1088,1.1947,1.2683,1.3174,1.4031,1.4888,1.5744,1.6233,1.6849,1.7337,1.7703,1.8068,1.819,1.8799,1.9644,2.0373,2.1229,2.2803,2.3592,2.3998,2.4367,2.4894,2.5262,2.5094,2.531,2.5777,2.6644,2.819,2.9019,2.9523,3.0271,3.1116,3.1867,3.2606,3.3371,3.4068,3.4612,3.5124,3.5357,3.556,3.571,3.5899,3.5966,3.6006,3.6033,3.6261,3.6208,3.6329,3.661,3.6931,3.7104,3.7801,3.8731,3.9836,4.1105,4.2243,4.3043,4.3856,4.4969,4.5975,4.6576,4.7075,4.7672,4.8286,4.878,4.9353,4.9942,5.0725,5.162,5.1697,5.1871,5.1871,5.1891,5.1871,5.1871,5.1871,5.2644,5.3678,5.4652,5.4936,5.4957,5.4957,5.4873,5.4769,5.4456,5.4101,5.3558,5.3106,5.3246,-0.205,-0.0805,0.0115,0.1398,0.2822,0.3415,0.424,0.5182,0.5537,0.606,0.6845,0.7717,0.8386,0.9093,0.9982,1.0723,1.0969,1.0597,1.0228,0.9737,0.8879,0.8386,0.8386,0.8386,0.8756,0.9368,1.0105,1.0843,1.1825,1.2561,1.3174,1.3786,1.4766,1.5383,1.5749,1.6366,1.6849,1.7093,1.7215,1.7703,1.8671,1.9158,2.0494,2.1714,2.2682,2.3118,2.3431,2.4358,2.4623,2.4596,2.4789,2.5038,2.5473,2.6043,2.7153,2.7901,2.8761,2.9544,3.0213,3.088,3.1608,3.259,3.3359,3.4021,3.4469,3.4747,3.5254,3.5584,3.5964,3.6072,3.6046,3.6099,3.6072,3.618,3.6423,3.6531,3.6585,3.6893,3.7489,3.823,3.9166,4.0398,4.1628,4.2533,4.345,4.4363,4.5188,4.5691,4.6211,4.6476,4.6876,4.7672,4.8249,4.8959,4.9648,4.9727,4.9825,4.9727,4.9746,4.9727,4.9844,4.9825,5.0021,5.0705,5.1484,5.2451,5.2836,5.2836,5.2811,5.263,5.2188,5.1745,5.1343,5.1033,5.1077,-0.2748,-0.2075,-0.1045,0.0234,0.1295,0.2003,0.2827,0.3886,0.424,0.4752,0.5537,0.6635,0.7294,0.7992,0.8999,0.9982,1.0474,0.9982,0.9737,0.9371,0.8509,0.7894,0.7894,0.8017,0.8263,0.8756,0.9614,1.0228,1.1088,1.1947,1.2565,1.3174,1.4154,1.4771,1.5016,1.5633,1.6122,1.636,1.6482,1.6849,1.7703,1.8799,2.0008,2.1108,2.1835,2.2319,2.2787,2.3504,2.4048,2.4188,2.4367,2.4656,2.4746,2.4702,2.5239,2.6453,2.7285,2.7951,2.8595,2.9392,3.037,3.1184,3.223,3.3008,3.3912,3.4587,3.5184,3.5428,3.5946,3.6299,3.634,3.6273,3.6273,3.6286,3.6299,3.6259,3.6395,3.6667,3.6924,3.7429,3.7822,3.8865,4.0345,4.1697,4.2796,4.3008,4.383,4.3988,4.4379,4.4279,4.475,4.5757,4.6476,4.7075,4.7473,4.7573,4.7654,4.7654,4.7654,4.7654,4.7672,4.7672,4.7871,4.8051,4.8645,4.9414,5.01,5.0628,5.0513,5.0204,4.9741,4.9374,4.9065,4.8943,4.8984,-0.4012,-0.3369,-0.2793,-0.1754,-0.0589,0.0118,0.0707,0.1532,0.2592,0.3448,0.4095,0.4948,0.596,0.7135,0.8509,0.9371,0.9617,0.9494,0.9125,0.9002,0.8263,0.7894,0.7894,0.7894,0.7894,0.8386,0.9368,1.0105,1.0843,1.1583,1.2197,1.2806,1.3541,1.4159,1.4648,1.5388,1.5877,1.5877,1.5999,1.6238,1.6971,1.819,1.9164,1.9887,2.0622,2.135,2.2206,2.2819,2.3158,2.3616,2.3608,2.3887,2.4214,2.4299,2.4553,2.5229,2.6075,2.7058,2.7606,2.8592,2.9437,3.0117,3.0833,3.1893,3.318,3.484,3.5715,3.5988,3.6476,3.6754,3.6727,3.6794,3.6821,3.6767,3.6714,3.674,3.674,3.6636,3.6787,3.7047,3.7623,3.829,3.9436,4.0786,4.202,4.2225,4.2412,4.2581,4.2731,4.2776,4.2953,4.399,4.4565,4.5154,4.5355,4.5455,4.5455,4.5455,4.5455,4.5455,4.5455,4.5455,4.5455,4.5757,4.6158,4.664,4.7419,4.7868,4.8005,4.7831,4.7424,4.7128,4.6907,4.6857,4.6897,-0.5319,-0.4773,-0.4093,-0.3404,-0.2472,-0.1885,-0.106,-0.0118,0.0825,0.166,0.2515,0.3732,0.5231,0.6894,0.8263,0.9002,0.9248,0.9002,0.8879,0.8756,0.8263,0.7894,0.7894,0.7894,0.7894,0.8263,0.9125,0.9859,1.0597,1.1215,1.1956,1.2324,1.3174,1.3914,1.4404,1.526,1.5755,1.5877,1.5877,1.6122,1.6849,1.7581,1.8434,1.9036,2.0015,2.088,2.1501,2.2435,2.2768,2.3109,2.3367,2.3714,2.3824,2.3887,2.4085,2.464,2.5448,2.6125,2.6561,2.7678,2.8515,2.924,2.9926,3.116,3.275,3.4507,3.5622,3.5596,3.6373,3.683,3.6941,3.6941,3.6941,3.6941,3.6941,3.6941,3.6927,3.6874,3.685,3.703,3.7291,3.7932,3.8551,3.9578,4.0572,4.0801,4.1118,4.1538,4.1697,4.1942,4.2039,4.2254,4.2695,4.3027,4.3129,4.3231,4.3214,4.3231,4.3231,4.3231,4.3231,4.3231,4.3332,4.3332,4.3519,4.411,4.4817,4.5361,4.584,4.5585,4.5116,4.5009,4.4934,4.4965,4.5187,-0.6651,-0.5958,-0.5288,-0.4711,-0.424,-0.3534,-0.271,-0.1649,-0.0943,-0.0118,0.1193,0.3011,0.4998,0.6523,0.7773,0.8386,0.8633,0.8633,0.8633,0.8509,0.8263,0.7894,0.7894,0.7894,0.7894,0.7894,0.9245,0.9859,1.0355,1.1096,1.1837,1.1837,1.2933,1.3546,1.4036,1.4893,1.551,1.5755,1.5755,1.5999,1.6482,1.7093,1.7825,1.8568,1.9441,2.0321,2.083,2.1571,2.2191,2.2649,2.3185,2.3552,2.3455,2.3634,2.3843,2.4398,2.5095,2.5674,2.6162,2.6876,2.7757,2.8698,2.9984,3.1385,3.2304,3.4034,3.5202,3.5288,3.6276,3.683,3.6941,3.6941,3.6941,3.6941,3.6941,3.6941,3.6927,3.6887,3.6874,3.6944,3.7138,3.7289,3.7894,3.8556,3.9077,3.9343,3.9792,4.0359,4.0498,4.0725,4.0542,4.051,4.0459,4.0791,4.0981,4.0981,4.0981,4.1084,4.1084,4.1186,4.1289,4.1392,4.151,4.1407,4.1289,4.1699,4.2603,4.3255,4.3786,4.358,4.3339,4.3124,4.306,4.3053,4.3383,-0.7998,-0.7297,-0.6123,-0.5655,-0.5537,-0.4829,-0.424,-0.3415,-0.2827,-0.1421,0.0359,0.2661,0.4522,0.5912,0.6788,0.7524,0.8017,0.8017,0.8017,0.8017,0.7894,0.7894,0.7894,0.7894,0.7894,0.814,0.9122,0.9737,1.0109,1.1092,1.1587,1.1956,1.2692,1.3178,1.3923,1.4679,1.5414,1.5777,1.5766,1.5755,1.6116,1.6605,1.7221,1.7868,1.8684,1.9492,2.072,2.124,2.1538,2.1988,2.2782,2.3268,2.3189,2.347,2.3666,2.4088,2.4966,2.5456,2.5812,2.6747,2.7658,2.8926,3.0449,3.1862,3.2183,3.4316,3.5219,3.5339,3.6315,3.683,3.6941,3.6941,3.6941,3.6941,3.6941,3.6941,3.6941,3.6941,3.6914,3.6927,3.6941,3.7162,3.7273,3.7812,3.8412,3.8669,3.8924,3.9487,3.8983,3.8874,3.8658,3.8561,3.8286,3.8454,3.8826,3.8915,3.9226,3.9226,3.9226,3.9345,3.9552,3.9552,3.9655,3.9759,3.9862,4.0069,4.0302,4.1005,4.1445,4.1601,4.1572,4.1357,4.1547,4.169,4.2138,-0.836,-0.8007,-0.7184,-0.6596,-0.6243,-0.6006,-0.5535,-0.4829,-0.3887,-0.2137,0.012,0.1934,0.3658,0.5167,0.6418,0.7281,0.7894,0.7894,0.7894,0.7894,0.7894,0.7894,0.7894,0.7894,0.7894,0.814,0.8879,0.9614,0.9982,1.085,1.1504,1.1878,1.2477,1.3228,1.3981,1.475,1.5489,1.5719,1.5804,1.576,1.5877,1.6366,1.7006,1.7831,1.847,1.9312,2.0258,2.0907,2.1281,2.1647,2.2189,2.2672,2.299,2.3268,2.355,2.3829,2.4939,2.545,2.5835,2.6933,2.8237,2.9589,3.1269,3.2458,3.2321,3.4362,3.5371,3.5767,3.6269,3.687,3.6941,3.6941,3.6941,3.6941,3.6941,3.6941,3.6941,3.6941,3.6941,3.6941,3.6941,3.6941,3.7051,3.7135,3.7563,3.8004,3.8251,3.8345,3.7957,3.7651,3.7536,3.727,3.7111,3.7005,3.7277,3.7472,3.7472,3.7472,3.7472,3.7785,3.8008,3.7904,3.8008,3.8112,3.8425,3.8618,3.8752,3.8936,3.9372,4.0122,3.9944,3.957,3.9849,4.0416,4.0691,-0.883,-0.8477,-0.7772,-0.7302,-0.6829,-0.6829,-0.6476,-0.589,-0.5064,-0.3088,-0.0482,0.1086,0.2797,0.4549,0.5923,0.6911,0.7527,0.7771,0.7894,0.7894,0.7894,0.7894,0.7894,0.7894,0.7894,0.8017,0.8633,0.9248,0.9859,1.0496,1.1281,1.1927,1.243,1.2956,1.3848,1.4985,1.573,1.5961,1.5918,1.5858,1.5987,1.6238,1.6994,1.7842,1.8386,1.9201,2.0062,2.0679,2.0965,2.1195,2.1578,2.2205,2.2638,2.2912,2.3315,2.3926,2.4789,2.5537,2.6,2.7367,2.898,3.0259,3.1768,3.257,3.3291,3.457,3.5788,3.5824,3.6492,3.7074,3.7061,3.7021,3.6954,3.6941,3.6941,3.6941,3.6941,3.6941,3.6941,3.6941,3.6941,3.6941,3.6941,3.6941,3.7162,3.7494,3.7563,3.7702,3.7592,3.7264,3.703,3.6755,3.6361,3.6183,3.6124,3.5914,3.5704,3.5914,3.6019,3.6334,3.6544,3.6544,3.6859,3.7382,3.7486,3.7277,3.7362,3.7621,3.8247,3.8893,3.8622,3.8497,3.8776,3.9249,3.9346,-0.9648,-0.8474,-0.7772,-0.7537,-0.7419,-0.7419,-0.7067,-0.6596,-0.6248,-0.4516,-0.1566,0.0241,0.2069,0.3938,0.5429,0.6416,0.7157,0.7648,0.7894,0.7894,0.7894,0.7894,0.7894,0.7894,0.7894,0.8017,0.8509,0.9125,0.9873,1.0419,1.1203,1.1888,1.2312,1.2717,1.3223,1.4471,1.5472,1.5972,1.6086,1.6059,1.6054,1.6167,1.6931,1.7863,1.8305,1.8994,2.0084,2.0424,2.0718,2.0718,2.1231,2.1617,2.1849,2.2752,2.3114,2.3307,2.4874,2.5555,2.5853,2.7985,2.9735,3.102,3.2394,3.3255,3.391,3.5077,3.6347,3.6231,3.6879,3.7283,3.7288,3.7168,3.7101,3.7008,3.7021,3.6967,3.6981,3.6941,3.6941,3.6941,3.6941,3.6941,3.6941,3.6941,3.6941,3.6941,3.6941,3.6998,3.7028,3.6841,3.6531,3.6006,3.5618,3.5232,3.4861,3.424,3.4028,3.424,3.4663,3.5296,3.5717,3.5928,3.6243,3.6649,3.6649,3.6544,3.6426,3.6458,3.7112,3.7619,3.779,3.781,3.8105,3.7991,3.7878,-1.0235,-0.9065,-0.8477,-0.789,-0.7537,-0.7537,-0.7302,-0.7072,-0.6279,-0.4657,-0.2411,-0.0485,0.1465,0.3323,0.5058,0.6292,0.6911,0.7527,0.7894,0.7894,0.7894,0.7894,0.7894,0.7894,0.7897,0.7894,0.8266,0.8912,0.9938,1.0355,1.1177,1.1875,1.2703,1.3248,1.4098,1.5088,1.6102,1.6211,1.6157,1.6103,1.6108,1.6244,1.6778,1.8109,1.8295,1.8982,2.0198,2.0392,2.0532,2.0539,2.092,2.1047,2.1555,2.248,2.2854,2.3393,2.4818,2.6633,2.7851,2.9646,3.0836,3.1903,3.2956,3.3864,3.4591,3.5585,3.6397,3.6844,3.7282,3.7603,3.7622,3.7595,3.7515,3.7301,3.7221,3.7101,3.7048,3.6981,3.6941,3.6941,3.6941,3.6941,3.6941,3.6941,3.6941,3.6901,3.6887,3.6767,3.677,3.6366,3.6113,3.5404,3.4819,3.4344,3.3816,3.3392,3.3286,3.371,3.4134,3.4557,3.4874,3.5296,3.5507,3.5928,3.5928,3.5795,3.5773,3.5824,3.6051,3.6306,3.6248,3.6231,3.64,3.6202,3.6004,-1.1169,-1.0,-0.9179,-0.8477,-0.789,-0.7655,-0.7537,-0.7312,-0.6179,-0.467,-0.3015,-0.0972,0.098,0.2832,0.4811,0.6046,0.6664,0.7524,0.7894,0.7894,0.7894,0.7894,0.7894,0.7899,0.7913,0.7916,0.8303,0.8946,1.0013,1.029,1.1131,1.2258,1.3227,1.3843,1.4579,1.5332,1.6094,1.621,1.6293,1.626,1.6255,1.6387,1.6787,1.7724,1.8393,1.8925,1.9877,2.0285,2.0539,2.0539,2.0539,2.0793,2.1301,2.2026,2.2523,2.3301,2.4874,2.7046,2.8881,3.0598,3.1667,3.2495,3.3676,3.4605,3.5297,3.6328,3.6974,3.7423,3.7787,3.7909,3.7969,3.7969,3.7782,3.7555,3.7395,3.715,3.7043,3.6977,3.683,3.683,3.6941,3.6941,3.6941,3.6941,3.6941,3.6887,3.6834,3.6674,3.639,3.6002,3.5494,3.4789,3.4141,3.3574,3.3179,3.286,3.286,3.3179,3.3498,3.3922,3.4346,3.4768,3.498,3.5191,3.5401,3.5453,3.5146,3.5175,3.4898,3.4544,3.4017,3.4282,3.4626,3.4599,3.4513,-1.2452,-1.1286,-1.0,-0.9179,-0.8474,-0.789,-0.7537,-0.7427,-0.6181,-0.4911,-0.362,-0.1095,0.0736,0.2341,0.4688,0.5799,0.6292,0.7401,0.7771,0.7894,0.7894,0.7894,0.7897,0.7905,0.8059,0.8216,0.8615,0.9267,1.0091,1.0912,1.176,1.2591,1.3637,1.4273,1.4774,1.5286,1.6057,1.6296,1.6418,1.6391,1.6391,1.6423,1.6928,1.7576,1.8218,1.886,1.9649,2.0158,2.0412,2.0539,2.0539,2.0539,2.092,2.1809,2.2109,2.3091,2.5199,2.7203,2.918,3.0955,3.214,3.2968,3.437,3.5192,3.6012,3.6921,3.7464,3.7876,3.818,3.8229,3.8277,3.8116,3.7829,3.7643,3.7456,3.7224,3.7091,3.6958,3.6772,3.683,3.683,3.683,3.6941,3.6941,3.6927,3.6763,3.667,3.6334,3.6039,3.5584,3.5079,3.4283,3.3556,3.291,3.2553,3.234,3.234,3.2553,3.286,3.3179,3.371,3.4346,3.4768,3.498,3.5085,3.5005,3.457,3.3954,3.3433,3.2916,3.2568,3.2777,3.33,3.3414,3.34,-1.3737,-1.2569,-1.1286,-1.0352,-0.9648,-0.8712,-0.8007,-0.7315,-0.621,-0.4935,-0.3621,-0.159,0.0369,0.2098,0.4195,0.5304,0.6292,0.7155,0.7771,0.7894,0.7894,0.7894,0.7908,0.8056,0.8213,0.8618,0.9157,0.9843,1.0803,1.1648,1.2455,1.3257,1.4031,1.4543,1.5183,1.5828,1.6217,1.6472,1.6472,1.6472,1.6472,1.6472,1.685,1.7361,1.8121,1.8758,1.9395,2.0158,2.0412,2.0539,2.0539,2.0539,2.0666,2.1794,2.2797,2.4821,2.643,2.7836,2.9398,3.1537,3.285,3.3558,3.4957,3.6141,3.6726,3.7309,3.7904,3.8303,3.8393,3.8531,3.8504,3.8269,3.8007,3.762,3.7282,3.6806,3.6662,3.64,3.6341,3.6498,3.6608,3.683,3.683,3.6941,3.6803,3.675,3.637,3.5996,3.5445,3.4994,3.4437,3.3752,3.3104,3.2459,3.2127,3.202,3.202,3.202,3.2328,3.2754,3.3498,3.4134,3.4557,3.4768,3.4874,3.4438,3.3858,3.317,3.2492,3.1903,3.1575,3.1769,3.2008,3.2008,3.2096,-1.5254,-1.3854,-1.2807,-1.1758,-1.059,-0.9683,-0.8753,-0.7828,-0.6356,-0.4949,-0.3639,-0.1841,0.0123,0.2098,0.3701,0.5058,0.6046,0.6908,0.7524,0.7894,0.7894,0.7894,0.7916,0.8205,0.8618,0.9032,0.9717,1.0423,1.1386,1.2323,1.3133,1.339,1.4287,1.4927,1.5444,1.5956,1.6345,1.6472,1.6472,1.6472,1.6472,1.6472,1.685,1.7233,1.7993,1.8631,1.914,1.9904,2.0412,2.0539,2.0539,2.0666,2.1006,2.2331,2.3848,2.5729,2.712,2.8124,2.9517,3.1667,3.272,3.3664,3.5309,3.6375,3.7076,3.7658,3.8137,3.8588,3.8588,3.8704,3.8588,3.8459,3.7992,3.7527,3.6972,3.6294,3.6124,3.5828,3.5935,3.6191,3.6387,3.6608,3.6719,3.683,3.6737,3.6577,3.6022,3.531,3.4803,3.4191,3.3759,3.3092,3.2603,3.2127,3.1914,3.1807,3.1807,3.1914,3.202,3.2447,3.3179,3.371,3.4134,3.4346,3.4557,3.3896,3.3222,3.2386,3.1676,3.1103,3.0394,3.0244,3.0392,3.0595,3.0683,-1.689,-1.526,-1.4448,-1.3163,-1.1537,-1.0907,-0.9882,-0.8594,-0.6857,-0.5209,-0.3782,-0.1967,0.0,0.1728,0.3208,0.4566,0.5553,0.6662,0.7281,0.7771,0.7894,0.7894,0.816,0.8583,0.9023,0.9591,1.0296,1.1131,1.1823,1.262,1.339,1.3646,1.4671,1.5444,1.57,1.6339,1.6728,1.685,1.685,1.6856,1.66,1.6472,1.66,1.6723,1.7611,1.8624,1.8885,1.9522,2.0539,2.0539,2.0539,2.0793,2.1856,2.3043,2.45,2.5931,2.7343,2.8383,2.9636,3.1667,3.272,3.39,3.5309,3.6375,3.7076,3.7891,3.8485,3.8602,3.8718,3.8718,3.8602,3.8253,3.7826,3.7193,3.6564,3.5851,3.5396,3.5295,3.5326,3.5609,3.5831,3.6165,3.6608,3.6595,3.6503,3.6251,3.5646,3.4829,3.4057,3.3487,3.3003,3.2578,3.2246,3.202,3.1914,3.1807,3.1807,3.1807,3.1914,3.2234,3.2967,3.3392,3.371,3.3816,3.3922,3.3235,3.2486,3.1671,3.0846,3.0068,2.9341,2.878,2.879,2.9288,2.9682,-1.8298,-1.771,-1.5609,-1.4209,-1.3294,-1.1861,-1.0751,-0.9858,-0.8121,-0.6329,-0.4517,-0.258,-0.0617,0.1234,0.2591,0.3949,0.5061,0.6171,0.6911,0.7281,0.7524,0.7771,0.8042,0.8743,0.9308,0.9999,1.0839,1.1951,1.2612,1.3262,1.4035,1.4804,1.5464,1.5736,1.6243,1.6884,1.7128,1.7128,1.7489,1.7361,1.6856,1.66,1.66,1.6978,1.7738,1.8497,1.8885,1.9776,2.0285,2.0539,2.0539,2.1174,2.2301,2.3371,2.4583,2.5966,2.7623,2.8642,2.9874,3.1537,3.2838,3.3664,3.484,3.5895,3.6959,3.8021,3.8602,3.8718,3.8718,3.8718,3.8485,3.8021,3.7516,3.6833,3.6039,3.5403,3.4758,3.4818,3.4867,3.5052,3.5387,3.572,3.6165,3.621,3.6105,3.5676,3.5061,3.4248,3.3417,3.2813,3.25,3.2139,3.2033,3.1807,3.1807,3.1807,3.1807,3.1807,3.1807,3.2234,3.2754,3.3235,3.362,3.3472,3.3273,3.2605,3.1879,3.0913,3.0025,2.9423,2.8791,2.8439,2.8484,2.888,2.9084,-1.9914,-1.8987,-1.7123,-1.5643,-1.4537,-1.3581,-1.2368,-1.0897,-0.9399,-0.7717,-0.5886,-0.3569,-0.1357,0.0493,0.1974,0.3209,0.4444,0.5431,0.6046,0.6539,0.7032,0.7404,0.7943,0.8764,0.9559,1.0377,1.1641,1.2749,1.339,1.4215,1.5006,1.5525,1.5798,1.6222,1.6737,1.723,1.757,1.7575,1.8284,1.7999,1.7367,1.7106,1.6978,1.7361,1.7866,1.8503,1.9267,1.9904,2.0285,2.0793,2.1174,2.2189,2.3401,2.4582,2.5639,2.6842,2.8081,2.9151,3.0154,3.1419,3.2968,3.3664,3.484,3.6024,3.6375,3.7426,3.8369,3.8485,3.8718,3.8718,3.8369,3.7891,3.7426,3.6715,3.5755,3.4839,3.4281,3.4105,3.4333,3.4606,3.4829,3.5052,3.5498,3.5707,3.5539,3.5042,3.4363,3.3809,3.3007,3.2393,3.1974,3.1807,3.1807,3.1807,3.1807,3.1807,3.1807,3.1807,3.1807,3.2328,3.2942,3.3358,3.3623,3.3294,3.289,3.2189,3.1376,3.0489,3.0035,2.9537,2.8917,2.8291,2.8382,2.8779,2.9389,-2.1641,-1.9914,-1.8543,-1.7216,-1.5813,-1.5591,-1.426,-1.2175,-1.0924,-0.9487,-0.7886,-0.5177,-0.259,-0.0493,0.0987,0.2344,0.3332,0.3949,0.4813,0.5553,0.6292,0.6664,0.7566,0.8761,0.9581,1.0796,1.2302,1.2988,1.3646,1.462,1.5468,1.5762,1.6219,1.6815,1.7054,1.7512,1.7955,1.8154,1.8607,1.8789,1.8388,1.7993,1.7744,1.7866,1.8248,1.8885,1.9528,2.0037,2.0412,2.1047,2.1682,2.2949,2.4157,2.5273,2.638,2.7557,2.8662,2.9401,3.0346,3.1688,3.2625,3.3558,3.4957,3.5673,3.6024,3.6726,3.7658,3.8253,3.8369,3.8602,3.8253,3.7658,3.7076,3.6533,3.5444,3.4457,3.3944,3.3557,3.3785,3.416,3.4271,3.4495,3.4718,3.5052,3.4812,3.4309,3.3789,3.3202,3.2681,3.2261,3.195,3.1807,3.1807,3.1807,3.1807,3.1807,3.1807,3.1807,3.1914,3.2529,3.301,3.3071,3.3129,3.3094,3.2562,3.1929,3.1158,3.0276,2.9836,2.9615,2.8963,2.8484,2.9084,2.9491,3.0088,-2.2909,-2.1071,-1.992,-1.9062,-1.8196,-1.7468,-1.5899,-1.4128,-1.3368,-1.1817,-0.9733,-0.8258,-0.5916,-0.2344,-0.0987,0.0247,0.1357,0.2221,0.3332,0.4196,0.4811,0.5799,0.6939,0.8014,0.9513,1.0996,1.2463,1.3505,1.3925,1.4911,1.5876,1.6275,1.6391,1.6837,1.6962,1.7563,1.8444,1.8637,1.933,1.9773,1.9165,1.8764,1.8376,1.8631,1.8885,1.9267,1.9656,2.0158,2.0412,2.092,2.1809,2.3202,2.4543,2.5707,2.6699,2.7677,2.8911,2.9562,3.0383,3.1549,3.2337,3.2968,3.4135,3.497,3.5309,3.5895,3.6726,3.7309,3.7658,3.8369,3.8137,3.7309,3.6713,3.6096,3.5291,3.4487,3.3769,3.3481,3.34,3.3488,3.3488,3.3824,3.416,3.4333,3.4246,3.3898,3.3637,3.305,3.2456,3.2083,3.1807,3.1807,3.17,3.1807,3.1807,3.1807,3.1807,3.1807,3.1877,3.2324,3.2543,3.2549,3.2491,3.2669,3.2232,3.1615,3.0745,3.037,2.9876,2.9565,2.8984,2.879,2.9491,3.0291,3.0898]}]]